Time,TemperatureF,DewpointF,PressureIn,WindDirection,WindDirectionDegrees,WindSpeedMPH,WindSpeedGustMPH,Humidity,HourlyPrecipIn,Conditions,Clouds,dailyrainin,SoftwareType,DateUTC
2013-02-25 00:00:00,33.1,21.9,28.91,ENE,70,5.8,7.8,63,0.00,,---,0.00,VWS V14.01,2013-02-25 05:00:00,
2013-02-25 00:01:00,33.1,21.9,28.91,East,85,7.8,8.3,63,0.00,,---,0.00,VWS V14.01,2013-02-25 05:01:00,
2013-02-25 00:02:00,33.1,21.9,28.91,ENE,62,6.9,7.8,63,0.00,,---,0.00,VWS V14.01,2013-02-25 05:02:00,
2013-02-25 00:03:00,33.1,21.9,28.91,ENE,68,9.6,11.0,63,0.00,,---,0.00,VWS V14.01,2013-02-25 05:03:00,
2013-02-25 00:04:00,33.1,21.9,28.91,East,79,9.6,11.2,63,0.00,,---,0.00,VWS V14.01,2013-02-25 05:04:00,
2013-02-25 00:05:00,33.1,21.9,28.91,ENE,74,8.3,9.6,63,0.00,,---,0.00,VWS V14.01,2013-02-25 05:05:00,
2013-02-25 00:06:00,33.1,22.2,28.91,East,80,7.4,9.6,64,0.00,,---,0.00,VWS V14.01,2013-02-25 05:06:00,
2013-02-25 00:07:00,33.1,22.2,28.91,ENE,67,7.4,8.3,64,0.00,,---,0.00,VWS V14.01,2013-02-25 05:07:00,
2013-02-25 00:08:00,33.1,22.2,28.91,ENE,60,10.1,10.1,64,0.00,,---,0.00,VWS V14.01,2013-02-25 05:08:00,
2013-02-25 00:09:00,33.1,22.2,28.91,ENE,66,7.4,10.1,64,0.00,,---,0.00,VWS V14.01,2013-02-25 05:09:00,
2013-02-25 00:10:00,33.1,22.2,28.91,ENE,74,8.3,9.2,64,0.00,,---,0.00,VWS V14.01,2013-02-25 05:10:00,
2013-02-25 00:11:00,33.1,22.2,28.91,ENE,64,6.7,8.3,64,0.00,,---,0.00,VWS V14.01,2013-02-25 05:11:00,
2013-02-25 00:12:00,32.9,22.1,28.91,ENE,76,7.8,9.6,64,0.00,,---,0.00,VWS V14.01,2013-02-25 05:12:00,
2013-02-25 00:13:00,32.9,22.1,28.91,ENE,58,5.8,7.8,64,0.00,,---,0.00,VWS V14.01,2013-02-25 05:13:00,
2013-02-25 00:14:00,32.9,22.4,28.91,ENE,73,10.1,10.1,65,0.00,,---,0.00,VWS V14.01,2013-02-25 05:14:00,
2013-02-25 00:15:00,32.9,22.4,28.91,ENE,68,5.4,10.1,65,0.00,,---,0.00,VWS V14.01,2013-02-25 05:15:00,
2013-02-25 00:16:00,32.7,22.3,28.91,East,86,6.3,6.9,65,0.00,,---,0.00,VWS V14.01,2013-02-25 05:16:00,
2013-02-25 00:17:00,32.7,22.3,28.91,ESE,108,6.3,6.9,65,0.00,,---,0.00,VWS V14.01,2013-02-25 05:17:00,
2013-02-25 00:18:00,32.7,22.3,28.91,East,84,5.4,10.5,65,0.00,,---,0.00,VWS V14.01,2013-02-25 05:18:00,
2013-02-25 00:19:00,32.7,22.6,28.91,NE,52,6.9,8.3,66,0.00,,---,0.00,VWS V14.01,2013-02-25 05:19:00,
2013-02-25 00:20:00,32.7,22.6,28.91,ENE,57,5.4,7.8,66,0.00,,---,0.00,VWS V14.01,2013-02-25 05:20:00,
2013-02-25 00:21:00,32.7,22.6,28.88,East,80,7.8,9.6,66,0.00,,---,0.00,VWS V14.01,2013-02-25 05:21:00,
2013-02-25 00:22:00,32.7,22.6,28.88,East,100,8.7,8.7,66,0.00,,---,0.00,VWS V14.01,2013-02-25 05:22:00,
2013-02-25 00:23:00,32.7,23.0,28.88,ENE,68,7.8,9.2,67,0.00,,---,0.00,VWS V14.01,2013-02-25 05:23:00,
2013-02-25 00:24:00,32.7,23.0,28.88,ENE,74,9.2,9.2,67,0.00,,---,0.00,VWS V14.01,2013-02-25 05:24:00,
2013-02-25 00:25:00,32.7,23.0,28.88,ENE,73,7.8,9.2,67,0.00,,---,0.00,VWS V14.01,2013-02-25 05:25:00,
2013-02-25 00:26:00,32.7,23.0,28.88,East,80,6.9,8.3,67,0.00,,---,0.00,VWS V14.01,2013-02-25 05:26:00,
2013-02-25 00:27:00,32.7,23.0,28.88,ENE,74,7.4,9.2,67,0.00,,---,0.00,VWS V14.01,2013-02-25 05:27:00,
2013-02-25 00:28:00,32.7,23.3,28.88,ENE,70,8.7,9.2,68,0.00,,---,0.00,VWS V14.01,2013-02-25 05:28:00,
2013-02-25 00:29:00,32.7,23.3,28.88,ENE,68,6.9,9.6,68,0.00,,---,0.00,VWS V14.01,2013-02-25 05:29:00,
2013-02-25 00:30:00,32.7,23.3,28.88,ENE,73,5.8,8.3,68,0.00,,---,0.00,VWS V14.01,2013-02-25 05:30:00,
2013-02-25 00:31:00,32.7,23.3,28.88,ENE,68,6.9,9.6,68,0.00,,---,0.00,VWS V14.01,2013-02-25 05:31:00,
2013-02-25 00:32:00,32.7,23.3,28.88,East,101,7.4,8.3,68,0.00,,---,0.00,VWS V14.01,2013-02-25 05:32:00,
2013-02-25 00:33:00,32.7,23.3,28.88,ENE,69,7.8,8.3,68,0.00,,---,0.00,VWS V14.01,2013-02-25 05:33:00,
2013-02-25 00:34:00,32.7,23.3,28.88,ENE,75,7.8,11.2,68,0.00,,---,0.00,VWS V14.01,2013-02-25 05:34:00,
2013-02-25 00:35:00,32.7,23.3,28.88,ENE,62,7.8,7.8,68,0.00,,---,0.00,VWS V14.01,2013-02-25 05:35:00,
2013-02-25 00:36:00,32.7,23.3,28.88,East,87,5.4,11.6,68,0.00,,---,0.00,VWS V14.01,2013-02-25 05:36:00,
2013-02-25 00:37:00,32.7,23.3,28.88,East,85,6.3,9.2,68,0.00,,---,0.00,VWS V14.01,2013-02-25 05:37:00,
2013-02-25 00:38:00,32.7,23.3,28.88,ENE,60,7.8,9.6,68,0.00,,---,0.00,VWS V14.01,2013-02-25 05:38:00,
2013-02-25 00:39:00,32.7,23.3,28.88,ENE,61,7.4,8.7,68,0.00,,---,0.00,VWS V14.01,2013-02-25 05:39:00,
2013-02-25 00:40:00,32.7,23.3,28.88,East,88,8.7,10.1,68,0.00,,---,0.00,VWS V14.01,2013-02-25 05:40:00,
2013-02-25 00:41:00,32.7,23.7,28.88,East,88,7.4,8.7,69,0.00,,---,0.00,VWS V14.01,2013-02-25 05:41:00,
2013-02-25 00:42:00,32.7,23.7,28.88,ENE,64,10.5,10.5,69,0.00,,---,0.00,VWS V14.01,2013-02-25 05:42:00,
2013-02-25 00:43:00,32.7,23.7,28.88,East,95,8.3,11.0,69,0.00,,---,0.00,VWS V14.01,2013-02-25 05:43:00,
2013-02-25 00:44:00,32.7,23.7,28.88,East,82,8.3,9.2,69,0.00,,---,0.00,VWS V14.01,2013-02-25 05:44:00,
2013-02-25 00:45:00,32.7,23.7,28.88,East,83,7.4,11.2,69,0.00,,---,0.00,VWS V14.01,2013-02-25 05:45:00,
2013-02-25 00:46:00,32.5,23.5,28.88,ENE,64,5.8,11.6,69,0.00,,---,0.00,VWS V14.01,2013-02-25 05:46:00,
2013-02-25 00:47:00,32.5,23.5,28.88,ENE,78,7.4,7.4,69,0.00,,---,0.00,VWS V14.01,2013-02-25 05:47:00,
2013-02-25 00:48:00,32.5,23.5,28.88,East,81,6.9,8.7,69,0.00,,---,0.00,VWS V14.01,2013-02-25 05:48:00,
2013-02-25 00:49:00,32.5,23.5,28.88,ESE,113,7.8,7.8,69,0.00,,---,0.00,VWS V14.01,2013-02-25 05:49:00,
2013-02-25 00:50:00,32.5,23.5,28.88,ENE,78,6.9,11.6,69,0.00,,---,0.00,VWS V14.01,2013-02-25 05:50:00,
2013-02-25 00:51:00,32.5,23.5,28.88,East,85,7.8,10.1,69,0.00,,---,0.00,VWS V14.01,2013-02-25 05:51:00,
2013-02-25 00:52:00,32.5,23.5,28.88,East,100,9.6,12.5,69,0.00,,---,0.00,VWS V14.01,2013-02-25 05:52:00,
2013-02-25 00:53:00,32.5,23.5,28.88,ESE,116,6.9,9.6,69,0.00,,---,0.00,VWS V14.01,2013-02-25 05:53:00,
2013-02-25 00:54:00,32.5,23.5,28.88,East,89,4.9,7.4,69,0.00,,---,0.00,VWS V14.01,2013-02-25 05:54:00,
2013-02-25 00:55:00,32.5,23.5,28.88,ENE,59,5.4,7.8,69,0.00,,---,0.00,VWS V14.01,2013-02-25 05:55:00,
2013-02-25 00:56:00,32.5,23.5,28.88,ENE,76,9.6,10.1,69,0.00,,---,0.00,VWS V14.01,2013-02-25 05:56:00,
2013-02-25 00:57:00,32.4,23.3,28.88,East,90,9.2,10.1,69,0.00,,---,0.00,VWS V14.01,2013-02-25 05:57:00,
2013-02-25 00:58:00,32.4,23.3,28.88,East,85,8.3,9.2,69,0.00,,---,0.00,VWS V14.01,2013-02-25 05:58:00,
2013-02-25 01:02:00,32.4,23.7,28.88,East,92,6.7,8.3,70,0.00,,---,0.00,VWS V14.01,2013-02-25 06:02:00,
2013-02-25 01:03:00,32.4,23.7,28.88,ENE,75,6.3,9.2,70,0.00,,---,0.00,VWS V14.01,2013-02-25 06:03:00,
2013-02-25 01:04:00,32.4,23.7,28.88,East,99,7.8,7.8,70,0.00,,---,0.00,VWS V14.01,2013-02-25 06:04:00,
2013-02-25 01:05:00,32.4,23.7,28.88,ENE,73,5.8,7.8,70,0.00,,---,0.00,VWS V14.01,2013-02-25 06:05:00,
2013-02-25 01:06:00,32.2,23.5,28.88,East,80,5.4,8.3,70,0.00,,---,0.00,VWS V14.01,2013-02-25 06:06:00,
2013-02-25 01:07:00,32.2,23.5,28.88,East,87,6.7,9.2,70,0.00,,---,0.00,VWS V14.01,2013-02-25 06:07:00,
2013-02-25 01:08:00,32.2,23.5,28.88,ENE,78,6.7,8.3,70,0.00,,---,0.00,VWS V14.01,2013-02-25 06:08:00,
2013-02-25 01:09:00,32.2,23.5,28.88,NE,52,6.9,11.0,70,0.00,,---,0.00,VWS V14.01,2013-02-25 06:09:00,
2013-02-25 01:10:00,32.2,23.5,28.88,ENE,60,6.7,6.9,70,0.00,,---,0.00,VWS V14.01,2013-02-25 06:10:00,
2013-02-25 01:11:00,32.2,23.5,28.88,East,87,8.7,8.7,70,0.00,,---,0.00,VWS V14.01,2013-02-25 06:11:00,
2013-02-25 01:12:00,32.2,23.5,28.88,ENE,61,6.9,10.1,70,0.00,,---,0.00,VWS V14.01,2013-02-25 06:12:00,
2013-02-25 01:13:00,32.2,23.5,28.88,East,89,7.4,10.5,70,0.00,,---,0.00,VWS V14.01,2013-02-25 06:13:00,
2013-02-25 01:14:00,32.2,23.5,28.88,East,89,6.3,7.8,70,0.00,,---,0.00,VWS V14.01,2013-02-25 06:14:00,
2013-02-25 01:15:00,32.2,23.5,28.88,East,95,8.3,8.3,70,0.00,,---,0.00,VWS V14.01,2013-02-25 06:15:00,
2013-02-25 01:16:00,32.2,23.5,28.88,NE,56,8.3,8.7,70,0.00,,---,0.00,VWS V14.01,2013-02-25 06:16:00,
2013-02-25 01:17:00,32.2,23.5,28.88,ENE,74,6.9,8.7,70,0.00,,---,0.00,VWS V14.01,2013-02-25 06:17:00,
2013-02-25 01:18:00,22.5,15.8,29.06,West,267,0.0,0.0,75,0.00,,---,0.00,VWS V14.01,2013-02-25 06:18:00,
2013-02-25 01:19:00,32.0,23.3,28.88,ENE,78,5.4,8.3,70,0.00,,---,0.00,VWS V14.01,2013-02-25 06:19:00,
2013-02-25 01:20:00,32.0,23.3,28.88,East,90,7.8,8.3,70,0.00,,---,0.00,VWS V14.01,2013-02-25 06:20:00,
2013-02-25 01:21:00,32.0,23.3,28.85,ENE,68,6.3,10.1,70,0.00,,---,0.00,VWS V14.01,2013-02-25 06:21:00,
2013-02-25 01:22:00,32.0,23.3,28.85,East,86,6.7,8.3,70,0.00,,---,0.00,VWS V14.01,2013-02-25 06:22:00,
2013-02-25 01:23:00,22.5,15.8,29.06,West,267,0.0,0.0,75,0.00,,---,0.00,VWS V14.01,2013-02-25 06:23:00,
2013-02-25 01:24:00,32.0,23.3,28.85,ENE,66,5.8,10.1,70,0.00,,---,0.00,VWS V14.01,2013-02-25 06:24:00,
2013-02-25 01:25:00,32.0,23.3,28.85,ENE,61,5.8,8.7,70,0.00,,---,0.00,VWS V14.01,2013-02-25 06:25:00,
2013-02-25 01:26:00,32.0,23.3,28.85,East,93,8.3,9.6,70,0.00,,---,0.00,VWS V14.01,2013-02-25 06:26:00,
2013-02-25 01:27:00,32.0,23.3,28.85,ENE,62,8.3,9.6,70,0.00,,---,0.00,VWS V14.01,2013-02-25 06:27:00,
2013-02-25 01:28:00,22.3,15.6,29.09,West,267,0.0,0.0,75,0.00,,---,0.00,VWS V14.01,2013-02-25 06:28:00,
2013-02-25 01:29:00,32.0,23.3,28.85,ENE,77,6.9,8.3,70,0.00,,---,0.00,VWS V14.01,2013-02-25 06:29:00,
2013-02-25 01:30:00,31.8,23.2,28.85,NE,55,6.7,7.4,70,0.00,,---,0.00,VWS V14.01,2013-02-25 06:30:00,
2013-02-25 01:31:00,31.8,23.2,28.85,ENE,74,5.4,10.1,70,0.00,,---,0.00,VWS V14.01,2013-02-25 06:31:00,
2013-02-25 01:32:00,31.8,23.2,28.85,East,99,10.5,10.5,70,0.00,,---,0.00,VWS V14.01,2013-02-25 06:32:00,
2013-02-25 01:33:00,22.1,15.4,29.09,West,267,0.0,0.0,75,0.00,,---,0.00,VWS V14.01,2013-02-25 06:33:00,
2013-02-25 01:34:00,31.8,23.2,28.85,East,95,7.8,11.2,70,0.00,,---,0.00,VWS V14.01,2013-02-25 06:34:00,
2013-02-25 01:35:00,31.8,23.2,28.85,ENE,74,7.4,9.2,70,0.00,,---,0.00,VWS V14.01,2013-02-25 06:35:00,
2013-02-25 01:36:00,31.8,23.2,28.85,ENE,70,10.1,11.0,70,0.00,,---,0.00,VWS V14.01,2013-02-25 06:36:00,
2013-02-25 01:37:00,31.8,23.2,28.85,ENE,70,9.2,11.2,70,0.00,,---,0.00,VWS V14.01,2013-02-25 06:37:00,
2013-02-25 01:38:00,22.1,15.7,29.09,West,267,0.0,0.0,76,0.00,,---,0.00,VWS V14.01,2013-02-25 06:38:00,
2013-02-25 01:39:00,31.6,23.0,28.85,ENE,75,7.8,10.5,70,0.00,,---,0.00,VWS V14.01,2013-02-25 06:39:00,
2013-02-25 01:40:00,31.6,23.0,28.85,ENE,59,7.4,9.6,70,0.00,,---,0.00,VWS V14.01,2013-02-25 06:40:00,
2013-02-25 01:41:00,31.6,23.0,28.85,ENE,60,10.1,10.1,70,0.00,,---,0.00,VWS V14.01,2013-02-25 06:41:00,
2013-02-25 01:42:00,31.6,23.0,28.85,East,85,6.7,11.0,70,0.00,,---,0.00,VWS V14.01,2013-02-25 06:42:00,
2013-02-25 01:43:00,22.1,15.7,29.09,West,267,0.0,0.0,76,0.00,,---,0.00,VWS V14.01,2013-02-25 06:43:00,
2013-02-25 01:44:00,31.6,23.0,28.85,ENE,66,7.4,11.0,70,0.00,,---,0.00,VWS V14.01,2013-02-25 06:44:00,
2013-02-25 01:45:00,31.6,23.0,28.85,East,89,6.3,10.1,70,0.00,,---,0.00,VWS V14.01,2013-02-25 06:45:00,
2013-02-25 01:46:00,31.6,23.0,28.85,ENE,69,5.8,9.2,70,0.00,,---,0.00,VWS V14.01,2013-02-25 06:46:00,
2013-02-25 01:47:00,31.5,22.8,28.85,ENE,69,5.8,6.9,70,0.00,,---,0.00,VWS V14.01,2013-02-25 06:47:00,
2013-02-25 01:48:00,22.1,15.7,29.09,West,267,0.0,0.0,76,0.00,,---,0.00,VWS V14.01,2013-02-25 06:48:00,
2013-02-25 01:49:00,31.5,22.8,28.85,ENE,68,7.4,10.5,70,0.00,,---,0.00,VWS V14.01,2013-02-25 06:49:00,
2013-02-25 01:50:00,31.5,22.8,28.85,East,94,8.3,9.2,70,0.00,,---,0.00,VWS V14.01,2013-02-25 06:50:00,
2013-02-25 01:51:00,31.5,22.8,28.85,East,95,8.3,10.5,70,0.00,,---,0.00,VWS V14.01,2013-02-25 06:51:00,
2013-02-25 01:52:00,31.5,22.8,28.85,NE,56,6.3,8.7,70,0.00,,---,0.00,VWS V14.01,2013-02-25 06:52:00,
2013-02-25 01:53:00,22.1,15.7,29.09,West,267,0.0,0.0,76,0.00,,---,0.00,VWS V14.01,2013-02-25 06:53:00,
2013-02-25 01:54:00,31.5,22.8,28.85,ENE,77,6.3,9.6,70,0.00,,---,0.00,VWS V14.01,2013-02-25 06:54:00,
2013-02-25 01:55:00,31.5,22.8,28.85,ENE,61,5.8,7.8,70,0.00,,---,0.00,VWS V14.01,2013-02-25 06:55:00,
2013-02-25 01:56:00,31.5,22.8,28.85,East,94,7.8,7.8,70,0.00,,---,0.00,VWS V14.01,2013-02-25 06:56:00,
2013-02-25 01:57:00,31.5,22.8,28.85,ENE,75,9.2,11.6,70,0.00,,---,0.00,VWS V14.01,2013-02-25 06:57:00,
2013-02-25 01:58:00,22.1,15.7,29.06,West,267,0.0,0.0,76,0.00,,---,0.00,VWS V14.01,2013-02-25 06:58:00,
2013-02-25 01:59:00,31.5,22.8,28.85,East,80,7.8,7.8,70,0.00,,---,0.00,VWS V14.01,2013-02-25 06:59:00,
2013-02-25 02:00:00,31.3,22.6,28.85,ENE,70,7.8,12.1,70,0.00,,---,0.00,VWS V14.01,2013-02-25 07:00:00,
2013-02-25 02:01:00,31.3,22.6,28.85,ENE,70,8.3,9.2,70,0.00,,---,0.00,VWS V14.01,2013-02-25 07:01:00,
2013-02-25 02:02:00,31.3,22.6,28.85,ENE,67,8.3,9.2,70,0.00,,---,0.00,VWS V14.01,2013-02-25 07:02:00,
2013-02-25 02:03:00,22.1,16.0,29.06,West,267,0.0,0.0,77,0.00,,---,0.00,VWS V14.01,2013-02-25 07:03:00,
2013-02-25 02:04:00,31.3,22.6,28.85,ENE,69,11.0,12.1,70,0.00,,---,0.00,VWS V14.01,2013-02-25 07:04:00,
2013-02-25 02:05:00,31.3,22.6,28.85,East,82,6.7,11.0,70,0.00,,---,0.00,VWS V14.01,2013-02-25 07:05:00,
2013-02-25 02:07:00,31.3,22.6,28.85,ENE,77,8.7,9.2,70,0.00,,---,0.00,VWS V14.01,2013-02-25 07:07:00,
2013-02-25 02:08:00,22.3,16.2,29.06,West,267,0.0,0.0,77,0.00,,---,0.00,VWS V14.01,2013-02-25 07:08:00,
2013-02-25 02:09:00,31.3,22.6,28.85,East,96,7.8,11.0,70,0.00,,---,0.00,VWS V14.01,2013-02-25 07:09:00,
2013-02-25 02:10:00,31.3,22.6,28.85,East,96,6.3,9.2,70,0.00,,---,0.00,VWS V14.01,2013-02-25 07:10:00,
2013-02-25 02:11:00,31.3,22.6,28.85,ENE,74,6.7,10.5,70,0.00,,---,0.00,VWS V14.01,2013-02-25 07:11:00,
2013-02-25 02:12:00,31.3,22.6,28.85,ENE,64,7.8,7.8,70,0.00,,---,0.00,VWS V14.01,2013-02-25 07:12:00,
2013-02-25 02:13:00,22.3,16.5,29.06,West,267,0.0,0.0,78,0.00,,---,0.00,VWS V14.01,2013-02-25 07:13:00,
2013-02-25 02:14:00,31.3,22.6,28.85,ENE,75,4.9,9.6,70,0.00,,---,0.00,VWS V14.01,2013-02-25 07:14:00,
2013-02-25 02:15:00,31.3,22.6,28.85,NE,53,6.7,8.7,70,0.00,,---,0.00,VWS V14.01,2013-02-25 07:15:00,
2013-02-25 02:16:00,31.3,22.6,28.85,ENE,68,7.8,7.8,70,0.00,,---,0.00,VWS V14.01,2013-02-25 07:16:00,
2013-02-25 02:17:00,31.3,22.6,28.85,East,81,6.9,9.6,70,0.00,,---,0.00,VWS V14.01,2013-02-25 07:17:00,
2013-02-25 02:18:00,22.6,16.8,29.06,West,267,0.0,0.0,78,0.00,,---,0.00,VWS V14.01,2013-02-25 07:18:00,
2013-02-25 02:19:00,31.3,22.3,28.85,ENE,74,6.9,9.2,69,0.00,,---,0.00,VWS V14.01,2013-02-25 07:19:00,
2013-02-25 02:20:00,31.3,22.3,28.85,ENE,75,7.8,8.7,69,0.00,,---,0.00,VWS V14.01,2013-02-25 07:20:00,
2013-02-25 02:21:00,31.3,22.3,28.85,ENE,78,6.7,10.5,69,0.00,,---,0.00,VWS V14.01,2013-02-25 07:21:00,
2013-02-25 02:22:00,31.3,22.3,28.85,SE,129,6.9,7.4,69,0.00,,---,0.00,VWS V14.01,2013-02-25 07:22:00,
2013-02-25 02:23:00,22.8,17.3,29.06,West,267,0.0,0.0,79,0.00,,---,0.00,VWS V14.01,2013-02-25 07:23:00,
2013-02-25 02:24:00,31.5,22.5,28.85,ENE,77,7.8,9.2,69,0.00,,---,0.00,VWS V14.01,2013-02-25 07:24:00,
2013-02-25 02:25:00,31.5,22.5,28.85,ENE,63,9.2,9.2,69,0.00,,---,0.00,VWS V14.01,2013-02-25 07:25:00,
2013-02-25 02:26:00,31.5,22.5,28.85,ESE,111,7.8,9.2,69,0.00,,---,0.00,VWS V14.01,2013-02-25 07:26:00,
2013-02-25 02:27:00,31.5,22.5,28.85,ESE,123,5.8,9.6,69,0.00,,---,0.00,VWS V14.01,2013-02-25 07:27:00,
2013-02-25 02:28:00,31.5,22.5,28.85,ESE,119,7.4,9.6,69,0.00,,---,0.00,VWS V14.01,2013-02-25 07:28:00,
2013-02-25 02:29:00,23.2,17.9,29.06,West,267,2.7,3.6,80,0.00,,---,0.00,VWS V14.01,2013-02-25 07:29:00,
2013-02-25 02:30:00,31.5,22.1,28.85,ENE,62,7.8,10.5,68,0.00,,---,0.00,VWS V14.01,2013-02-25 07:30:00,
2013-02-25 02:31:00,31.5,22.1,28.85,ENE,70,5.8,9.2,68,0.00,,---,0.00,VWS V14.01,2013-02-25 07:31:00,
2013-02-25 02:32:00,31.5,22.1,28.85,ENE,70,6.7,9.2,68,0.00,,---,0.00,VWS V14.01,2013-02-25 07:32:00,
2013-02-25 02:33:00,31.5,22.1,28.85,ENE,68,5.8,7.4,68,0.00,,---,0.00,VWS V14.01,2013-02-25 07:33:00,
2013-02-25 02:34:00,23.4,18.4,29.06,West,267,0.0,0.0,81,0.00,,---,0.00,VWS V14.01,2013-02-25 07:34:00,
2013-02-25 02:35:00,31.5,22.1,28.85,ENE,62,6.9,11.2,68,0.00,,---,0.00,VWS V14.01,2013-02-25 07:35:00,
2013-02-25 02:36:00,31.5,21.8,28.85,ESE,105,5.4,8.3,67,0.00,,---,0.00,VWS V14.01,2013-02-25 07:36:00,
2013-02-25 02:37:00,31.6,22.0,28.85,East,91,6.3,7.8,67,0.00,,---,0.00,VWS V14.01,2013-02-25 07:37:00,
2013-02-25 02:38:00,31.6,22.0,28.85,East,98,6.3,7.8,67,0.00,,---,0.00,VWS V14.01,2013-02-25 07:38:00,
2013-02-25 02:39:00,23.5,18.9,29.06,West,267,0.0,0.0,82,0.00,,---,0.00,VWS V14.01,2013-02-25 07:39:00,
2013-02-25 02:40:00,31.6,22.0,28.85,ENE,72,6.7,10.5,67,0.00,,---,0.00,VWS V14.01,2013-02-25 07:40:00,
2013-02-25 02:41:00,31.6,22.0,28.85,ENE,72,6.3,10.1,67,0.00,,---,0.00,VWS V14.01,2013-02-25 07:41:00,
2013-02-25 02:42:00,31.6,22.0,28.85,ENE,78,5.8,9.6,67,0.00,,---,0.00,VWS V14.01,2013-02-25 07:42:00,
2013-02-25 02:43:00,31.6,22.0,28.85,East,83,5.8,8.3,67,0.00,,---,0.00,VWS V14.01,2013-02-25 07:43:00,
2013-02-25 02:44:00,31.6,21.6,28.85,ENE,73,9.6,9.6,66,0.00,,---,0.00,VWS V14.01,2013-02-25 07:44:00,
2013-02-25 02:45:00,31.6,21.6,28.85,ENE,65,7.4,10.1,66,0.00,,---,0.00,VWS V14.01,2013-02-25 07:45:00,
2013-02-25 02:46:00,31.6,21.6,28.85,East,89,11.2,11.2,66,0.00,,---,0.00,VWS V14.01,2013-02-25 07:46:00,
2013-02-25 02:47:00,31.6,21.6,28.85,East,79,13.4,13.9,66,0.00,,---,0.00,VWS V14.01,2013-02-25 07:47:00,
2013-02-25 02:48:00,23.7,19.6,29.06,West,267,0.0,3.1,84,0.00,,---,0.00,VWS V14.01,2013-02-25 07:48:00,
2013-02-25 02:49:00,31.6,21.2,28.85,ESE,121,5.8,10.1,65,0.00,,---,0.00,VWS V14.01,2013-02-25 07:49:00,
2013-02-25 02:50:00,31.6,21.2,28.85,ENE,76,6.9,8.7,65,0.00,,---,0.00,VWS V14.01,2013-02-25 07:50:00,
2013-02-25 02:51:00,31.6,21.2,28.82,East,95,6.7,9.2,65,0.00,,---,0.00,VWS V14.01,2013-02-25 07:51:00,
2013-02-25 02:52:00,31.6,21.2,28.82,ENE,75,9.2,12.5,65,0.00,,---,0.00,VWS V14.01,2013-02-25 07:52:00,
2013-02-25 02:53:00,23.5,19.4,29.06,West,267,0.0,0.0,84,0.00,,---,0.00,VWS V14.01,2013-02-25 07:53:00,
2013-02-25 02:54:00,31.6,21.2,28.82,ENE,75,8.3,11.0,65,0.00,,---,0.00,VWS V14.01,2013-02-25 07:54:00,
2013-02-25 02:55:00,31.6,21.2,28.82,ENE,75,6.9,8.7,65,0.00,,---,0.00,VWS V14.01,2013-02-25 07:55:00,
2013-02-25 02:56:00,31.6,21.2,28.82,ENE,70,9.6,9.6,65,0.00,,---,0.00,VWS V14.01,2013-02-25 07:56:00,
2013-02-25 02:57:00,31.6,20.9,28.82,East,80,7.4,10.5,64,0.00,,---,0.00,VWS V14.01,2013-02-25 07:57:00,
2013-02-25 02:58:00,31.6,20.9,28.82,NE,54,6.9,7.8,64,0.00,,---,0.00,VWS V14.01,2013-02-25 07:58:00,
2013-02-25 02:59:00,31.6,20.9,28.82,ENE,68,6.9,9.2,64,0.00,,---,0.00,VWS V14.01,2013-02-25 07:59:00,
2013-02-25 03:00:00,23.4,19.5,29.06,West,267,0.0,0.0,85,0.00,,---,0.00,VWS V14.01,2013-02-25 08:00:00,
2013-02-25 03:01:00,31.5,20.7,28.82,ENE,62,8.3,8.3,64,0.00,,---,0.00,VWS V14.01,2013-02-25 08:01:00,
2013-02-25 03:02:00,31.5,20.7,28.82,ENE,61,7.8,10.5,64,0.00,,---,0.00,VWS V14.01,2013-02-25 08:02:00,
2013-02-25 03:03:00,31.5,20.7,28.82,ENE,70,8.7,11.2,64,0.00,,---,0.00,VWS V14.01,2013-02-25 08:03:00,
2013-02-25 03:04:00,31.5,21.1,28.82,East,84,8.3,10.5,65,0.00,,---,0.00,VWS V14.01,2013-02-25 08:04:00,
2013-02-25 03:05:00,23.2,19.4,29.06,West,267,0.0,0.0,85,0.00,,---,0.00,VWS V14.01,2013-02-25 08:05:00,
2013-02-25 03:06:00,31.5,21.1,28.82,East,93,7.8,10.5,65,0.00,,---,0.00,VWS V14.01,2013-02-25 08:06:00,
2013-02-25 03:07:00,31.5,21.1,28.82,East,83,8.7,9.2,65,0.00,,---,0.00,VWS V14.01,2013-02-25 08:07:00,
2013-02-25 03:08:00,31.5,21.1,28.82,ENE,62,10.1,11.6,65,0.00,,---,0.00,VWS V14.01,2013-02-25 08:08:00,
2013-02-25 03:09:00,31.5,21.1,28.82,ENE,72,9.6,11.6,65,0.00,,---,0.00,VWS V14.01,2013-02-25 08:09:00,
2013-02-25 03:10:00,23.0,19.2,29.06,West,267,0.0,0.0,85,0.00,,---,0.00,VWS V14.01,2013-02-25 08:10:00,
2013-02-25 03:11:00,31.5,21.1,28.82,ENE,71,7.8,8.7,65,0.00,,---,0.00,VWS V14.01,2013-02-25 08:11:00,
2013-02-25 03:12:00,31.5,21.1,28.82,ENE,74,6.7,7.8,65,0.00,,---,0.00,VWS V14.01,2013-02-25 08:12:00,
2013-02-25 03:13:00,31.5,21.1,28.82,East,86,8.3,11.0,65,0.00,,---,0.00,VWS V14.01,2013-02-25 08:13:00,
2013-02-25 03:14:00,31.5,21.1,28.82,East,96,8.7,11.0,65,0.00,,---,0.00,VWS V14.01,2013-02-25 08:14:00,
2013-02-25 03:15:00,31.5,21.1,28.82,East,82,5.4,9.6,65,0.00,,---,0.00,VWS V14.01,2013-02-25 08:15:00,
2013-02-25 03:16:00,23.0,19.2,29.06,West,267,0.0,0.0,85,0.00,,---,0.00,VWS V14.01,2013-02-25 08:16:00,
2013-02-25 03:17:00,31.5,21.1,28.82,East,79,7.4,10.1,65,0.00,,---,0.00,VWS V14.01,2013-02-25 08:17:00,
2013-02-25 03:18:00,31.5,21.1,28.82,ENE,61,8.3,10.1,65,0.00,,---,0.00,VWS V14.01,2013-02-25 08:18:00,
2013-02-25 03:19:00,31.5,21.1,28.82,East,83,7.8,11.0,65,0.00,,---,0.00,VWS V14.01,2013-02-25 08:19:00,
2013-02-25 03:20:00,31.5,21.1,28.82,ENE,71,10.1,11.6,65,0.00,,---,0.00,VWS V14.01,2013-02-25 08:20:00,
2013-02-25 03:21:00,23.0,19.5,29.06,West,267,0.0,0.0,86,0.00,,---,0.00,VWS V14.01,2013-02-25 08:21:00,
2013-02-25 03:22:00,31.5,20.7,28.82,ENE,65,9.6,10.5,64,0.00,,---,0.00,VWS V14.01,2013-02-25 08:22:00,
2013-02-25 03:23:00,31.5,20.7,28.82,ENE,60,10.5,11.2,64,0.00,,---,0.00,VWS V14.01,2013-02-25 08:23:00,
2013-02-25 03:24:00,31.5,20.7,28.82,ENE,75,6.9,12.5,64,0.00,,---,0.00,VWS V14.01,2013-02-25 08:24:00,
2013-02-25 03:25:00,31.5,20.7,28.82,ENE,75,8.3,8.3,64,0.00,,---,0.00,VWS V14.01,2013-02-25 08:25:00,
2013-02-25 03:26:00,23.0,19.5,29.06,West,267,0.0,0.0,86,0.00,,---,0.00,VWS V14.01,2013-02-25 08:26:00,
2013-02-25 03:27:00,31.3,20.5,28.82,East,82,8.7,11.6,64,0.00,,---,0.00,VWS V14.01,2013-02-25 08:27:00,
2013-02-25 03:28:00,31.3,20.5,28.82,ENE,67,11.2,12.5,64,0.00,,---,0.00,VWS V14.01,2013-02-25 08:28:00,
2013-02-25 03:29:00,31.3,20.9,28.82,ENE,68,9.6,14.3,65,0.00,,---,0.00,VWS V14.01,2013-02-25 08:29:00,
2013-02-25 03:30:00,31.3,20.9,28.82,ESE,105,10.1,11.6,65,0.00,,---,0.00,VWS V14.01,2013-02-25 08:30:00,
2013-02-25 03:31:00,23.2,19.6,29.06,West,267,0.0,0.0,86,0.00,,---,0.00,VWS V14.01,2013-02-25 08:31:00,
2013-02-25 03:32:00,31.3,20.9,28.82,ENE,73,9.2,10.1,65,0.00,,---,0.00,VWS V14.01,2013-02-25 08:32:00,
2013-02-25 03:33:00,31.3,20.9,28.82,ENE,70,11.0,13.9,65,0.00,,---,0.00,VWS V14.01,2013-02-25 08:33:00,
2013-02-25 03:34:00,31.3,20.9,28.82,East,98,8.7,12.1,65,0.00,,---,0.00,VWS V14.01,2013-02-25 08:34:00,
2013-02-25 03:35:00,31.3,20.9,28.82,East,97,8.3,11.2,65,0.00,,---,0.00,VWS V14.01,2013-02-25 08:35:00,
2013-02-25 03:36:00,23.0,19.5,29.06,West,267,0.0,0.0,86,0.00,,---,0.00,VWS V14.01,2013-02-25 08:36:00,
2013-02-25 03:37:00,31.3,20.9,28.79,NE,53,10.1,11.0,65,0.00,,---,0.00,VWS V14.01,2013-02-25 08:37:00,
2013-02-25 03:38:00,31.3,20.5,28.79,East,98,6.9,10.1,64,0.00,,---,0.00,VWS V14.01,2013-02-25 08:38:00,
2013-02-25 03:39:00,31.3,20.5,28.79,East,88,7.4,9.6,64,0.00,,---,0.00,VWS V14.01,2013-02-25 08:39:00,
2013-02-25 03:40:00,31.3,20.5,28.79,East,82,8.7,10.5,64,0.00,,---,0.00,VWS V14.01,2013-02-25 08:40:00,
2013-02-25 03:41:00,31.3,20.5,28.79,ESE,108,6.7,10.1,64,0.00,,---,0.00,VWS V14.01,2013-02-25 08:41:00,
2013-02-25 03:42:00,22.5,18.9,29.06,West,267,0.0,0.0,86,0.00,,---,0.00,VWS V14.01,2013-02-25 08:42:00,
2013-02-25 03:43:00,31.3,20.5,28.79,East,80,8.7,10.5,64,0.00,,---,0.00,VWS V14.01,2013-02-25 08:43:00,
2013-02-25 03:44:00,31.5,20.7,28.79,ENE,66,12.1,12.1,64,0.00,,---,0.00,VWS V14.01,2013-02-25 08:44:00,
2013-02-25 03:45:00,31.5,20.7,28.79,NE,56,6.9,13.4,64,0.00,,---,0.00,VWS V14.01,2013-02-25 08:45:00,
2013-02-25 03:46:00,31.5,20.7,28.79,ESE,107,7.8,9.6,64,0.00,,---,0.00,VWS V14.01,2013-02-25 08:46:00,
2013-02-25 03:47:00,22.3,18.7,29.06,West,267,0.0,0.0,86,0.00,,---,0.00,VWS V14.01,2013-02-25 08:47:00,
2013-02-25 03:48:00,31.5,20.7,28.79,ENE,71,8.7,11.2,64,0.00,,---,0.00,VWS V14.01,2013-02-25 08:48:00,
2013-02-25 03:49:00,31.5,20.7,28.79,East,91,7.4,10.1,64,0.00,,---,0.00,VWS V14.01,2013-02-25 08:49:00,
2013-02-25 03:50:00,31.5,20.7,28.79,East,98,6.7,9.2,64,0.00,,---,0.00,VWS V14.01,2013-02-25 08:50:00,
2013-02-25 03:51:00,31.5,20.3,28.79,ENE,72,11.2,11.2,63,0.00,,---,0.00,VWS V14.01,2013-02-25 08:51:00,
2013-02-25 03:52:00,22.1,18.6,29.06,West,267,0.0,0.0,86,0.00,,---,0.00,VWS V14.01,2013-02-25 08:52:00,
2013-02-25 03:53:00,31.5,20.3,28.79,ENE,65,7.4,8.7,63,0.00,,---,0.00,VWS V14.01,2013-02-25 08:53:00,
2013-02-25 03:54:00,31.5,20.3,28.79,ENE,67,10.5,10.5,63,0.00,,---,0.00,VWS V14.01,2013-02-25 08:54:00,
2013-02-25 03:55:00,31.3,20.2,28.79,East,87,6.3,11.0,63,0.00,,---,0.00,VWS V14.01,2013-02-25 08:55:00,
2013-02-25 03:56:00,31.3,20.2,28.79,ENE,62,6.3,10.1,63,0.00,,---,0.00,VWS V14.01,2013-02-25 08:56:00,
2013-02-25 03:57:00,22.1,18.6,29.06,West,267,0.0,0.0,86,0.00,,---,0.00,VWS V14.01,2013-02-25 08:57:00,
2013-02-25 03:58:00,31.3,20.2,28.79,ENE,58,6.7,10.5,63,0.00,,---,0.00,VWS V14.01,2013-02-25 08:58:00,
2013-02-25 03:59:00,31.3,20.2,28.79,NE,54,13.0,13.0,63,0.00,,---,0.00,VWS V14.01,2013-02-25 08:59:00,
2013-02-25 04:00:00,31.3,20.2,28.79,ENE,76,7.8,13.0,63,0.00,,---,0.00,VWS V14.01,2013-02-25 09:00:00,
2013-02-25 04:01:00,31.3,20.2,28.79,East,87,6.9,10.5,63,0.00,,---,0.00,VWS V14.01,2013-02-25 09:01:00,
2013-02-25 04:02:00,22.1,18.8,29.06,West,267,0.0,0.0,87,0.00,,---,0.00,VWS V14.01,2013-02-25 09:02:00,
2013-02-25 04:03:00,31.3,20.2,28.79,ENE,77,11.2,13.4,63,0.00,,---,0.00,VWS V14.01,2013-02-25 09:03:00,
2013-02-25 04:04:00,31.3,20.2,28.79,NE,53,8.3,11.2,63,0.00,,---,0.00,VWS V14.01,2013-02-25 09:04:00,
2013-02-25 04:05:00,31.3,20.2,28.79,ENE,75,7.8,9.2,63,0.00,,---,0.00,VWS V14.01,2013-02-25 09:05:00,
2013-02-25 04:06:00,31.3,20.2,28.76,ENE,67,10.1,10.1,63,0.00,,---,0.00,VWS V14.01,2013-02-25 09:06:00,
2013-02-25 04:07:00,22.1,18.8,29.06,West,267,0.0,0.0,87,0.00,,---,0.00,VWS V14.01,2013-02-25 09:07:00,
2013-02-25 04:08:00,31.3,20.5,28.76,ENE,76,12.1,12.5,64,0.00,,---,0.00,VWS V14.01,2013-02-25 09:08:00,
2013-02-25 04:09:00,31.3,20.5,28.76,East,81,10.1,12.5,64,0.00,,---,0.00,VWS V14.01,2013-02-25 09:09:00,
2013-02-25 04:10:00,31.3,20.2,28.76,ENE,59,8.7,12.1,63,0.00,,---,0.00,VWS V14.01,2013-02-25 09:10:00,
2013-02-25 04:11:00,31.3,20.2,28.76,ENE,66,5.4,8.7,63,0.00,,---,0.00,VWS V14.01,2013-02-25 09:11:00,
2013-02-25 04:12:00,21.9,18.6,29.06,West,267,0.0,0.0,87,0.00,,---,0.00,VWS V14.01,2013-02-25 09:12:00,
2013-02-25 04:13:00,31.5,20.3,28.76,ENE,67,11.6,13.0,63,0.00,,---,0.00,VWS V14.01,2013-02-25 09:13:00,
2013-02-25 04:14:00,31.5,20.3,28.76,NE,56,9.2,15.4,63,0.00,,---,0.00,VWS V14.01,2013-02-25 09:14:00,
2013-02-25 04:15:00,31.5,20.3,28.76,ENE,73,13.4,15.2,63,0.00,,---,0.00,VWS V14.01,2013-02-25 09:15:00,
2013-02-25 04:16:00,31.5,20.3,28.76,ENE,75,9.6,13.4,63,0.00,,---,0.00,VWS V14.01,2013-02-25 09:16:00,
2013-02-25 04:17:00,21.7,18.5,29.06,West,267,0.0,0.0,87,0.00,,---,0.00,VWS V14.01,2013-02-25 09:17:00,
2013-02-25 04:18:00,31.6,20.1,28.76,ENE,78,7.4,10.1,62,0.00,,---,0.00,VWS V14.01,2013-02-25 09:18:00,
2013-02-25 04:19:00,31.6,20.1,28.76,ENE,63,9.6,9.6,62,0.00,,---,0.00,VWS V14.01,2013-02-25 09:19:00,
2013-02-25 04:20:00,31.6,20.1,28.76,East,80,10.5,10.5,62,0.00,,---,0.00,VWS V14.01,2013-02-25 09:20:00,
2013-02-25 04:21:00,31.6,20.1,28.76,East,89,9.2,12.1,62,0.00,,---,0.00,VWS V14.01,2013-02-25 09:21:00,
2013-02-25 04:22:00,21.7,18.5,29.06,West,267,0.0,0.0,87,0.00,,---,0.00,VWS V14.01,2013-02-25 09:22:00,
2013-02-25 04:23:00,31.6,19.8,28.76,ENE,77,6.9,9.6,61,0.00,,---,0.00,VWS V14.01,2013-02-25 09:23:00,
2013-02-25 04:24:00,31.6,19.8,28.76,ENE,66,6.3,8.7,61,0.00,,---,0.00,VWS V14.01,2013-02-25 09:24:00,
2013-02-25 04:25:00,31.6,19.8,28.76,ENE,70,9.2,14.3,61,0.00,,---,0.00,VWS V14.01,2013-02-25 09:25:00,
2013-02-25 04:26:00,31.6,19.8,28.76,ENE,77,7.4,11.0,61,0.00,,---,0.00,VWS V14.01,2013-02-25 09:26:00,
2013-02-25 04:27:00,21.6,18.3,29.06,West,267,0.0,0.0,87,0.00,,---,0.00,VWS V14.01,2013-02-25 09:27:00,
2013-02-25 04:28:00,31.6,19.8,28.76,East,84,7.8,11.6,61,0.00,,---,0.00,VWS V14.01,2013-02-25 09:28:00,
2013-02-25 04:29:00,31.8,19.9,28.76,ENE,78,6.3,7.8,61,0.00,,---,0.00,VWS V14.01,2013-02-25 09:29:00,
2013-02-25 04:30:00,31.8,19.9,28.76,East,98,10.1,11.2,61,0.00,,---,0.00,VWS V14.01,2013-02-25 09:30:00,
2013-02-25 04:31:00,31.8,19.5,28.76,East,100,8.3,11.6,60,0.00,,---,0.00,VWS V14.01,2013-02-25 09:31:00,
2013-02-25 04:32:00,21.6,18.3,29.06,West,267,0.0,0.0,87,0.00,,---,0.00,VWS V14.01,2013-02-25 09:32:00,
2013-02-25 04:33:00,31.8,19.5,28.76,East,93,8.3,12.5,60,0.00,,---,0.00,VWS V14.01,2013-02-25 09:33:00,
2013-02-25 04:34:00,31.8,19.5,28.76,ESE,104,9.6,11.2,60,0.00,,---,0.00,VWS V14.01,2013-02-25 09:34:00,
2013-02-25 04:35:00,31.8,19.5,28.76,East,93,8.3,11.2,60,0.00,,---,0.00,VWS V14.01,2013-02-25 09:35:00,
2013-02-25 04:36:00,31.8,19.5,28.76,ENE,68,9.6,11.2,60,0.00,,---,0.00,VWS V14.01,2013-02-25 09:36:00,
2013-02-25 04:37:00,21.4,18.1,29.06,West,267,0.0,0.0,87,0.00,,---,0.00,VWS V14.01,2013-02-25 09:37:00,
2013-02-25 04:38:00,32.0,19.3,28.76,East,84,8.7,11.2,59,0.00,,---,0.00,VWS V14.01,2013-02-25 09:38:00,
2013-02-25 04:39:00,32.0,19.3,28.76,ENE,58,9.6,11.0,59,0.00,,---,0.00,VWS V14.01,2013-02-25 09:39:00,
2013-02-25 04:40:00,32.0,19.3,28.76,East,86,12.1,12.1,59,0.00,,---,0.00,VWS V14.01,2013-02-25 09:40:00,
2013-02-25 04:41:00,32.0,19.3,28.76,East,81,10.5,12.1,59,0.00,,---,0.00,VWS V14.01,2013-02-25 09:41:00,
2013-02-25 04:42:00,21.4,18.1,29.06,West,267,0.0,0.0,87,0.00,,---,0.00,VWS V14.01,2013-02-25 09:42:00,
2013-02-25 04:43:00,32.2,19.5,28.76,ENE,65,8.3,10.5,59,0.00,,---,0.00,VWS V14.01,2013-02-25 09:43:00,
2013-02-25 04:44:00,32.2,19.1,28.76,ENE,57,9.6,9.6,58,0.00,,---,0.00,VWS V14.01,2013-02-25 09:44:00,
2013-02-25 04:45:00,32.2,19.1,28.76,East,80,8.7,10.5,58,0.00,,---,0.00,VWS V14.01,2013-02-25 09:45:00,
2013-02-25 04:46:00,32.2,19.1,28.76,East,100,8.7,12.5,58,0.00,,---,0.00,VWS V14.01,2013-02-25 09:46:00,
2013-02-25 04:47:00,21.4,18.1,29.06,West,267,0.0,0.0,87,0.00,,---,0.00,VWS V14.01,2013-02-25 09:47:00,
2013-02-25 04:48:00,32.2,19.1,28.76,ENE,75,6.9,13.0,58,0.00,,---,0.00,VWS V14.01,2013-02-25 09:48:00,
2013-02-25 04:49:00,32.2,19.1,28.76,East,82,7.4,10.5,58,0.00,,---,0.00,VWS V14.01,2013-02-25 09:49:00,
2013-02-25 04:50:00,32.2,19.1,28.76,East,82,9.6,10.5,58,0.00,,---,0.00,VWS V14.01,2013-02-25 09:50:00,
2013-02-25 04:51:00,32.2,19.1,28.76,East,82,7.4,9.6,58,0.00,,---,0.00,VWS V14.01,2013-02-25 09:51:00,
2013-02-25 04:52:00,21.2,17.9,29.06,West,267,0.0,0.0,87,0.00,,---,0.00,VWS V14.01,2013-02-25 09:52:00,
2013-02-25 04:53:00,32.2,19.1,28.76,East,96,8.3,10.5,58,0.00,,---,0.00,VWS V14.01,2013-02-25 09:53:00,
2013-02-25 04:54:00,32.2,19.1,28.76,East,99,7.4,9.6,58,0.00,,---,0.00,VWS V14.01,2013-02-25 09:54:00,
2013-02-25 04:55:00,32.2,19.1,28.76,East,87,6.7,10.1,58,0.00,,---,0.00,VWS V14.01,2013-02-25 09:55:00,
2013-02-25 04:56:00,32.0,18.9,28.76,ENE,58,13.0,13.0,58,0.00,,---,0.00,VWS V14.01,2013-02-25 09:56:00,
2013-02-25 04:57:00,21.0,17.5,29.09,West,267,0.0,0.0,86,0.00,,---,0.00,VWS V14.01,2013-02-25 09:57:00,
2013-02-25 04:58:00,32.0,18.9,28.76,ENE,71,11.2,14.8,58,0.00,,---,0.00,VWS V14.01,2013-02-25 09:58:00,
2013-02-25 04:59:00,32.0,18.9,28.76,ESE,110,10.5,11.2,58,0.00,,---,0.00,VWS V14.01,2013-02-25 09:59:00,
2013-02-25 05:00:00,32.0,18.9,28.76,ENE,62,8.3,11.6,58,0.00,,---,0.00,VWS V14.01,2013-02-25 10:00:00,
2013-02-25 05:01:00,32.0,18.9,28.76,ENE,73,9.6,14.3,58,0.00,,---,0.00,VWS V14.01,2013-02-25 10:01:00,
2013-02-25 05:02:00,20.8,17.3,29.09,West,267,0.0,0.0,86,0.00,,---,0.00,VWS V14.01,2013-02-25 10:02:00,
2013-02-25 05:03:00,32.0,18.9,28.76,ENE,69,8.3,11.2,58,0.00,,---,0.00,VWS V14.01,2013-02-25 10:03:00,
2013-02-25 05:04:00,32.0,18.9,28.76,ENE,70,12.1,15.9,58,0.00,,---,0.00,VWS V14.01,2013-02-25 10:04:00,
2013-02-25 05:05:00,32.0,18.9,28.76,East,84,11.2,12.1,58,0.00,,---,0.00,VWS V14.01,2013-02-25 10:05:00,
2013-02-25 05:06:00,32.0,18.9,28.73,NE,55,10.1,13.4,58,0.00,,---,0.00,VWS V14.01,2013-02-25 10:06:00,
2013-02-25 05:07:00,32.0,18.9,28.73,ENE,69,9.2,13.0,58,0.00,,---,0.00,VWS V14.01,2013-02-25 10:07:00,
2013-02-25 05:08:00,32.0,18.9,28.73,NE,54,6.7,13.9,58,0.00,,---,0.00,VWS V14.01,2013-02-25 10:08:00,
2013-02-25 05:09:00,32.0,18.9,28.73,ENE,73,7.4,10.1,58,0.00,,---,0.00,VWS V14.01,2013-02-25 10:09:00,
2013-02-25 05:10:00,32.0,18.9,28.73,East,96,7.4,11.6,58,0.00,,---,0.00,VWS V14.01,2013-02-25 10:10:00,
2013-02-25 05:11:00,32.0,18.9,28.73,East,85,9.2,11.0,58,0.00,,---,0.00,VWS V14.01,2013-02-25 10:11:00,
2013-02-25 05:12:00,32.0,18.9,28.73,ENE,62,13.9,13.9,58,0.00,,---,0.00,VWS V14.01,2013-02-25 10:12:00,
2013-02-25 05:13:00,21.0,17.8,29.09,West,267,0.0,0.0,87,0.00,,---,0.00,VWS V14.01,2013-02-25 10:13:00,
2013-02-25 05:14:00,32.0,18.9,28.73,East,88,7.8,11.2,58,0.00,,---,0.00,VWS V14.01,2013-02-25 10:14:00,
2013-02-25 05:15:00,32.0,18.9,28.73,ESE,105,13.0,13.0,58,0.00,,---,0.00,VWS V14.01,2013-02-25 10:15:00,
2013-02-25 05:16:00,32.0,18.9,28.73,ENE,75,13.0,13.0,58,0.00,,---,0.00,VWS V14.01,2013-02-25 10:16:00,
2013-02-25 05:17:00,32.0,18.9,28.73,ENE,72,9.2,13.0,58,0.00,,---,0.00,VWS V14.01,2013-02-25 10:17:00,
2013-02-25 05:18:00,32.0,18.9,28.73,ENE,71,9.2,9.6,58,0.00,,---,0.00,VWS V14.01,2013-02-25 10:18:00,
2013-02-25 05:19:00,32.0,18.9,28.73,East,80,9.2,11.2,58,0.00,,---,0.00,VWS V14.01,2013-02-25 10:19:00,
2013-02-25 05:20:00,21.2,17.9,29.09,West,267,0.0,0.0,87,0.00,,---,0.00,VWS V14.01,2013-02-25 10:20:00,
2013-02-25 05:21:00,32.0,18.9,28.73,ENE,66,11.2,11.6,58,0.00,,---,0.00,VWS V14.01,2013-02-25 10:21:00,
2013-02-25 05:22:00,32.0,18.9,28.73,ENE,69,7.8,13.0,58,0.00,,---,0.00,VWS V14.01,2013-02-25 10:22:00,
2013-02-25 05:23:00,32.0,18.9,28.73,ESE,122,10.5,12.1,58,0.00,,---,0.00,VWS V14.01,2013-02-25 10:23:00,
2013-02-25 05:24:00,32.0,18.9,28.73,ENE,58,11.2,11.2,58,0.00,,---,0.00,VWS V14.01,2013-02-25 10:24:00,
2013-02-25 05:25:00,32.0,18.9,28.73,East,82,8.7,14.3,58,0.00,,---,0.00,VWS V14.01,2013-02-25 10:25:00,
2013-02-25 05:26:00,21.4,18.1,29.09,West,267,0.0,0.0,87,0.00,,---,0.00,VWS V14.01,2013-02-25 10:26:00,
2013-02-25 05:27:00,32.0,18.9,28.73,ENE,68,8.3,13.4,58,0.00,,---,0.00,VWS V14.01,2013-02-25 10:27:00,
2013-02-25 05:28:00,31.8,18.7,28.73,ESE,116,8.3,12.5,58,0.00,,---,0.00,VWS V14.01,2013-02-25 10:28:00,
2013-02-25 05:29:00,31.8,18.7,28.73,ENE,75,9.6,11.6,58,0.00,,---,0.00,VWS V14.01,2013-02-25 10:29:00,
2013-02-25 05:30:00,31.8,18.7,28.73,ENE,72,6.3,9.6,58,0.00,,---,0.00,VWS V14.01,2013-02-25 10:30:00,
2013-02-25 05:31:00,21.4,18.1,29.09,West,267,0.0,0.0,87,0.00,,---,0.00,VWS V14.01,2013-02-25 10:31:00,
2013-02-25 05:32:00,31.8,19.1,28.73,ENE,60,9.2,12.1,59,0.00,,---,0.00,VWS V14.01,2013-02-25 10:32:00,
2013-02-25 05:33:00,31.8,19.1,28.73,ENE,67,11.0,12.1,59,0.00,,---,0.00,VWS V14.01,2013-02-25 10:33:00,
2013-02-25 05:34:00,31.8,19.1,28.73,ENE,71,11.2,11.2,59,0.00,,---,0.00,VWS V14.01,2013-02-25 10:34:00,
2013-02-25 05:35:00,31.8,19.1,28.73,East,97,14.8,14.8,59,0.00,,---,0.00,VWS V14.01,2013-02-25 10:35:00,
2013-02-25 05:36:00,21.4,18.1,29.09,West,267,0.0,0.0,87,0.00,,---,0.00,VWS V14.01,2013-02-25 10:36:00,
2013-02-25 05:37:00,31.8,19.1,28.70,NE,41,11.2,11.6,59,0.00,,---,0.00,VWS V14.01,2013-02-25 10:37:00,
2013-02-25 05:38:00,31.8,19.1,28.70,ENE,65,13.0,15.2,59,0.00,,---,0.00,VWS V14.01,2013-02-25 10:38:00,
2013-02-25 05:39:00,31.8,19.1,28.70,ENE,70,8.7,13.0,59,0.00,,---,0.00,VWS V14.01,2013-02-25 10:39:00,
2013-02-25 05:40:00,31.8,19.1,28.70,East,97,8.3,13.0,59,0.00,,---,0.00,VWS V14.01,2013-02-25 10:40:00,
2013-02-25 05:41:00,21.4,18.1,29.09,West,267,0.0,0.0,87,0.00,,---,0.00,VWS V14.01,2013-02-25 10:41:00,
2013-02-25 05:42:00,31.8,19.1,28.70,ENE,65,7.8,9.2,59,0.00,,---,0.00,VWS V14.01,2013-02-25 10:42:00,
2013-02-25 05:43:00,31.8,19.1,28.70,NE,56,11.2,13.4,59,0.00,,---,0.00,VWS V14.01,2013-02-25 10:43:00,
2013-02-25 05:44:00,31.8,19.1,28.70,East,79,12.5,13.4,59,0.00,,---,0.00,VWS V14.01,2013-02-25 10:44:00,
2013-02-25 05:45:00,31.8,19.1,28.70,ENE,70,12.1,13.9,59,0.00,,---,0.00,VWS V14.01,2013-02-25 10:45:00,
2013-02-25 05:46:00,21.4,18.4,29.09,West,267,0.0,0.0,88,0.00,,---,0.00,VWS V14.01,2013-02-25 10:46:00,
2013-02-25 05:47:00,31.8,19.1,28.70,ENE,68,8.3,11.2,59,0.00,,---,0.00,VWS V14.01,2013-02-25 10:47:00,
2013-02-25 05:48:00,31.8,19.1,28.70,ENE,73,6.9,11.0,59,0.00,,---,0.00,VWS V14.01,2013-02-25 10:48:00,
2013-02-25 05:49:00,31.8,19.1,28.70,East,94,8.7,9.6,59,0.00,,---,0.00,VWS V14.01,2013-02-25 10:49:00,
2013-02-25 05:50:00,31.8,19.1,28.70,East,83,9.2,13.0,59,0.00,,---,0.00,VWS V14.01,2013-02-25 10:50:00,
2013-02-25 05:51:00,21.6,18.6,29.09,West,267,0.0,0.0,88,0.00,,---,0.00,VWS V14.01,2013-02-25 10:51:00,
2013-02-25 05:52:00,31.8,19.1,28.70,East,87,11.6,12.1,59,0.00,,---,0.00,VWS V14.01,2013-02-25 10:52:00,
2013-02-25 05:53:00,31.8,19.1,28.70,ENE,77,8.7,12.1,59,0.00,,---,0.00,VWS V14.01,2013-02-25 10:53:00,
2013-02-25 05:54:00,31.8,19.1,28.70,ENE,57,10.5,11.6,59,0.00,,---,0.00,VWS V14.01,2013-02-25 10:54:00,
2013-02-25 05:55:00,31.8,19.5,28.70,ENE,77,7.4,11.2,60,0.00,,---,0.00,VWS V14.01,2013-02-25 10:55:00,
2013-02-25 05:56:00,21.6,18.6,29.09,West,267,0.0,0.0,88,0.00,,---,0.00,VWS V14.01,2013-02-25 10:56:00,
2013-02-25 05:57:00,31.8,19.5,28.70,ESE,117,7.4,10.5,60,0.00,,---,0.00,VWS V14.01,2013-02-25 10:57:00,
2013-02-25 05:58:00,31.8,19.5,28.70,ENE,73,10.1,13.0,60,0.00,,---,0.00,VWS V14.01,2013-02-25 10:58:00,
2013-02-25 05:59:00,31.6,19.4,28.70,NE,50,9.2,12.1,60,0.00,,---,0.00,VWS V14.01,2013-02-25 10:59:00,
2013-02-25 06:00:00,31.6,19.4,28.70,East,88,13.0,13.9,60,0.00,,---,0.00,VWS V14.01,2013-02-25 11:00:00,
2013-02-25 06:01:00,21.4,18.4,29.09,West,267,0.0,0.0,88,0.00,,---,0.00,VWS V14.01,2013-02-25 11:01:00,
2013-02-25 06:02:00,31.6,19.4,28.70,ENE,61,9.2,12.5,60,0.00,,---,0.00,VWS V14.01,2013-02-25 11:02:00,
2013-02-25 06:03:00,31.6,19.4,28.70,East,79,7.8,11.2,60,0.00,,---,0.00,VWS V14.01,2013-02-25 11:03:00,
2013-02-25 06:04:00,31.6,19.4,28.70,ENE,72,14.3,14.3,60,0.00,,---,0.00,VWS V14.01,2013-02-25 11:04:00,
2013-02-25 06:05:00,31.6,19.4,28.70,NE,55,11.2,14.3,60,0.00,,---,0.00,VWS V14.01,2013-02-25 11:05:00,
2013-02-25 06:06:00,21.4,18.4,29.09,West,267,0.0,0.0,88,0.00,,---,0.00,VWS V14.01,2013-02-25 11:06:00,
2013-02-25 06:07:00,31.6,19.4,28.70,NE,54,11.6,12.5,60,0.00,,---,0.00,VWS V14.01,2013-02-25 11:07:00,
2013-02-25 06:08:00,31.5,19.2,28.70,NE,35,8.3,11.6,60,0.00,,---,0.00,VWS V14.01,2013-02-25 11:08:00,
2013-02-25 06:09:00,31.5,19.2,28.70,ENE,62,12.1,16.3,60,0.00,,---,0.00,VWS V14.01,2013-02-25 11:09:00,
2013-02-25 06:10:00,31.6,19.4,28.70,East,85,10.1,15.2,60,0.00,,---,0.00,VWS V14.01,2013-02-25 11:10:00,
2013-02-25 06:11:00,31.6,19.4,28.70,ENE,74,11.2,14.3,60,0.00,,---,0.00,VWS V14.01,2013-02-25 11:11:00,
2013-02-25 06:12:00,31.6,19.4,28.70,ENE,68,12.5,13.9,60,0.00,,---,0.00,VWS V14.01,2013-02-25 11:12:00,
2013-02-25 06:13:00,31.6,19.4,28.70,NE,52,9.6,14.8,60,0.00,,---,0.00,VWS V14.01,2013-02-25 11:13:00,
2013-02-25 06:14:00,31.6,19.4,28.70,ENE,68,14.8,14.8,60,0.00,,---,0.00,VWS V14.01,2013-02-25 11:14:00,
2013-02-25 06:15:00,21.4,18.4,29.09,West,267,0.0,0.0,88,0.00,,---,0.00,VWS V14.01,2013-02-25 11:15:00,
2013-02-25 06:16:00,31.6,19.4,28.70,ENE,66,12.1,13.4,60,0.00,,---,0.00,VWS V14.01,2013-02-25 11:16:00,
2013-02-25 06:17:00,31.5,19.2,28.70,ESE,103,11.2,12.5,60,0.00,,---,0.00,VWS V14.01,2013-02-25 11:17:00,
2013-02-25 06:18:00,31.5,19.2,28.70,ENE,70,7.4,13.4,60,0.00,,---,0.00,VWS V14.01,2013-02-25 11:18:00,
2013-02-25 06:19:00,31.5,19.2,28.70,ENE,59,13.0,15.9,60,0.00,,---,0.00,VWS V14.01,2013-02-25 11:19:00,
2013-02-25 06:20:00,31.5,19.2,28.70,East,84,14.3,15.2,60,0.00,,---,0.00,VWS V14.01,2013-02-25 11:20:00,
2013-02-25 06:21:00,21.6,18.8,29.09,West,267,0.0,0.0,89,0.00,,---,0.00,VWS V14.01,2013-02-25 11:21:00,
2013-02-25 06:22:00,31.5,19.2,28.67,ENE,62,11.6,14.8,60,0.00,,---,0.00,VWS V14.01,2013-02-25 11:22:00,
2013-02-25 06:23:00,31.5,19.2,28.67,ENE,74,11.0,15.4,60,0.00,,---,0.00,VWS V14.01,2013-02-25 11:23:00,
2013-02-25 06:24:00,31.5,19.2,28.67,NE,53,10.1,13.0,60,0.00,,---,0.00,VWS V14.01,2013-02-25 11:24:00,
2013-02-25 06:25:00,31.5,19.2,28.67,NE,56,9.6,13.4,60,0.00,,---,0.00,VWS V14.01,2013-02-25 11:25:00,
2013-02-25 06:26:00,31.5,19.2,28.67,NE,55,13.0,13.4,60,0.00,,---,0.00,VWS V14.01,2013-02-25 11:26:00,
2013-02-25 06:29:00,21.6,18.8,29.09,West,267,0.0,0.0,89,0.00,,---,0.00,VWS V14.01,2013-02-25 11:29:00,
2013-02-25 06:30:00,31.5,19.2,28.67,East,90,15.4,15.4,60,0.00,,---,0.00,VWS V14.01,2013-02-25 11:30:00,
2013-02-25 06:31:00,31.5,19.2,28.67,ENE,65,13.0,15.4,60,0.00,,---,0.00,VWS V14.01,2013-02-25 11:31:00,
2013-02-25 06:32:00,31.5,19.2,28.67,ENE,59,11.0,17.2,60,0.00,,---,0.00,VWS V14.01,2013-02-25 11:32:00,
2013-02-25 06:33:00,31.6,19.4,28.67,East,87,11.0,14.3,60,0.00,,---,0.00,VWS V14.01,2013-02-25 11:33:00,
2013-02-25 06:34:00,21.4,18.6,29.09,West,267,0.0,0.0,89,0.00,,---,0.00,VWS V14.01,2013-02-25 11:34:00,
2013-02-25 06:35:00,31.6,19.4,28.67,ESE,108,9.2,13.9,60,0.00,,---,0.00,VWS V14.01,2013-02-25 11:35:00,
2013-02-25 06:36:00,31.6,19.4,28.64,East,79,13.9,17.2,60,0.00,,---,0.00,VWS V14.01,2013-02-25 11:36:00,
2013-02-25 06:37:00,31.6,19.4,28.64,ENE,68,11.6,13.9,60,0.00,,---,0.00,VWS V14.01,2013-02-25 11:37:00,
2013-02-25 06:38:00,31.5,19.2,28.64,ENE,60,12.1,14.8,60,0.00,,---,0.00,VWS V14.01,2013-02-25 11:38:00,
2013-02-25 06:39:00,31.5,19.2,28.64,East,96,13.4,15.4,60,0.00,,---,0.00,VWS V14.01,2013-02-25 11:39:00,
2013-02-25 06:40:00,31.5,19.2,28.64,East,84,10.1,13.4,60,0.00,,---,0.00,VWS V14.01,2013-02-25 11:40:00,
2013-02-25 06:41:00,21.2,18.5,29.09,West,267,0.0,0.0,89,0.00,,---,0.00,VWS V14.01,2013-02-25 11:41:00,
2013-02-25 06:42:00,31.5,19.2,28.64,ENE,70,11.6,13.0,60,0.00,,---,0.00,VWS V14.01,2013-02-25 11:42:00,
2013-02-25 06:43:00,31.5,19.2,28.64,East,86,8.7,12.1,60,0.00,,---,0.00,VWS V14.01,2013-02-25 11:43:00,
2013-02-25 06:44:00,31.5,19.2,28.64,ENE,60,8.7,11.2,60,0.00,,---,0.00,VWS V14.01,2013-02-25 11:44:00,
2013-02-25 06:45:00,31.5,19.2,28.64,ENE,76,11.0,13.9,60,0.00,,---,0.00,VWS V14.01,2013-02-25 11:45:00,
2013-02-25 06:46:00,21.2,18.5,29.09,West,267,0.0,0.0,89,0.00,,---,0.00,VWS V14.01,2013-02-25 11:46:00,
2013-02-25 06:47:00,31.5,19.2,28.64,East,79,13.0,15.4,60,0.00,,---,0.00,VWS V14.01,2013-02-25 11:47:00,
2013-02-25 06:48:00,31.5,19.2,28.64,ENE,72,9.2,13.0,60,0.00,,---,0.00,VWS V14.01,2013-02-25 11:48:00,
2013-02-25 06:49:00,31.5,19.2,28.64,East,88,11.6,11.6,60,0.00,,---,0.00,VWS V14.01,2013-02-25 11:49:00,
2013-02-25 06:50:00,31.5,19.2,28.64,ENE,68,9.2,13.9,60,0.00,,---,0.00,VWS V14.01,2013-02-25 11:50:00,
2013-02-25 06:51:00,21.2,18.5,29.09,West,267,0.0,0.0,89,0.00,,---,0.00,VWS V14.01,2013-02-25 11:51:00,
2013-02-25 06:52:00,31.5,19.2,28.67,East,88,11.0,15.4,60,0.00,,---,0.00,VWS V14.01,2013-02-25 11:52:00,
2013-02-25 06:53:00,31.5,19.2,28.67,SE,125,10.1,11.6,60,0.00,,---,0.00,VWS V14.01,2013-02-25 11:53:00,
2013-02-25 06:54:00,31.5,19.2,28.67,East,99,7.4,13.4,60,0.00,,---,0.00,VWS V14.01,2013-02-25 11:54:00,
2013-02-25 06:55:00,31.5,19.2,28.67,ENE,72,9.6,12.1,60,0.00,,---,0.00,VWS V14.01,2013-02-25 11:55:00,
2013-02-25 06:56:00,21.6,18.8,29.09,West,267,0.0,0.0,89,0.00,,---,0.00,VWS V14.01,2013-02-25 11:56:00,
2013-02-25 06:57:00,31.5,19.2,28.67,NE,42,11.6,14.8,60,0.00,,---,0.00,VWS V14.01,2013-02-25 11:57:00,
2013-02-25 06:58:00,31.5,19.2,28.67,ENE,68,10.1,13.4,60,0.00,,---,0.00,VWS V14.01,2013-02-25 11:58:00,
2013-02-25 06:59:00,31.6,19.4,28.67,ENE,57,9.6,11.2,60,0.00,,---,0.00,VWS V14.01,2013-02-25 11:59:00,
2013-02-25 07:00:00,31.6,19.4,28.67,ENE,74,10.1,15.4,60,0.00,,---,0.00,VWS V14.01,2013-02-25 12:00:00,
2013-02-25 07:01:00,21.7,19.3,29.12,West,267,0.0,0.0,90,0.00,,---,0.00,VWS V14.01,2013-02-25 12:01:00,
2013-02-25 07:02:00,31.6,19.4,28.67,East,97,7.8,14.8,60,0.00,,---,0.00,VWS V14.01,2013-02-25 12:02:00,
2013-02-25 07:03:00,31.6,19.0,28.67,ENE,74,11.0,11.6,59,0.00,,---,0.00,VWS V14.01,2013-02-25 12:03:00,
2013-02-25 07:04:00,31.6,19.0,28.67,East,97,12.5,12.5,59,0.00,,---,0.00,VWS V14.01,2013-02-25 12:04:00,
2013-02-25 07:05:00,31.6,19.0,28.67,ESE,107,8.3,15.4,59,0.00,,---,0.00,VWS V14.01,2013-02-25 12:05:00,
2013-02-25 07:06:00,21.7,19.3,29.12,West,267,0.0,0.0,90,0.00,,---,0.00,VWS V14.01,2013-02-25 12:06:00,
2013-02-25 07:07:00,31.6,19.0,28.64,East,91,7.8,10.1,59,0.00,,---,0.00,VWS V14.01,2013-02-25 12:07:00,
2013-02-25 07:08:00,31.6,19.0,28.64,East,94,9.6,9.6,59,0.00,,---,0.00,VWS V14.01,2013-02-25 12:08:00,
2013-02-25 07:09:00,31.6,19.0,28.64,NNE,26,12.1,14.3,59,0.00,,---,0.00,VWS V14.01,2013-02-25 12:09:00,
2013-02-25 07:10:00,31.6,19.0,28.64,East,80,10.5,13.0,59,0.00,,---,0.00,VWS V14.01,2013-02-25 12:10:00,
2013-02-25 07:11:00,31.6,19.0,28.64,NE,43,8.3,12.1,59,0.00,,---,0.00,VWS V14.01,2013-02-25 12:11:00,
2013-02-25 07:12:00,21.9,19.4,29.12,West,267,3.1,3.6,90,0.00,,---,0.00,VWS V14.01,2013-02-25 12:12:00,
2013-02-25 07:13:00,31.8,19.1,28.64,NE,56,8.7,13.0,59,0.00,,---,0.00,VWS V14.01,2013-02-25 12:13:00,
2013-02-25 07:14:00,31.8,19.1,28.64,East,99,9.2,11.2,59,0.00,,---,0.00,VWS V14.01,2013-02-25 12:14:00,
2013-02-25 07:15:00,31.8,19.1,28.64,East,91,10.5,11.6,59,0.00,,---,0.00,VWS V14.01,2013-02-25 12:15:00,
2013-02-25 07:16:00,31.8,19.1,28.64,ESE,110,7.4,13.4,59,0.00,,---,0.00,VWS V14.01,2013-02-25 12:16:00,
2013-02-25 07:17:00,31.8,19.1,28.64,ENE,65,13.4,14.3,59,0.00,,---,0.00,VWS V14.01,2013-02-25 12:17:00,
2013-02-25 07:18:00,22.1,19.6,29.12,West,267,3.6,4.0,90,0.00,,---,0.00,VWS V14.01,2013-02-25 12:18:00,
2013-02-25 07:19:00,31.8,19.1,28.64,ENE,66,6.7,11.0,59,0.00,,---,0.00,VWS V14.01,2013-02-25 12:19:00,
2013-02-25 07:20:00,31.8,19.1,28.64,ENE,70,8.7,14.3,59,0.00,,---,0.00,VWS V14.01,2013-02-25 12:20:00,
2013-02-25 07:21:00,31.8,19.1,28.64,ENE,63,8.7,12.1,59,0.00,,---,0.00,VWS V14.01,2013-02-25 12:21:00,
2013-02-25 07:22:00,31.8,19.1,28.64,East,89,10.5,13.4,59,0.00,,---,0.00,VWS V14.01,2013-02-25 12:22:00,
2013-02-25 07:23:00,22.3,19.8,29.12,West,267,2.7,3.6,90,0.00,,---,0.00,VWS V14.01,2013-02-25 12:23:00,
2013-02-25 07:24:00,32.0,18.9,28.64,ENE,59,10.5,11.0,58,0.00,,---,0.00,VWS V14.01,2013-02-25 12:24:00,
2013-02-25 07:25:00,32.0,18.9,28.64,ENE,63,6.3,11.6,58,0.00,,---,0.00,VWS V14.01,2013-02-25 12:25:00,
2013-02-25 07:26:00,32.0,18.9,28.64,ENE,68,9.2,13.0,58,0.00,,---,0.00,VWS V14.01,2013-02-25 12:26:00,
2013-02-25 07:27:00,32.0,18.9,28.64,ENE,62,11.6,12.5,58,0.00,,---,0.00,VWS V14.01,2013-02-25 12:27:00,
2013-02-25 07:28:00,22.5,20.2,29.09,West,267,2.7,3.1,91,0.00,,---,0.00,VWS V14.01,2013-02-25 12:28:00,
2013-02-25 07:29:00,32.2,19.1,28.64,East,79,11.2,13.4,58,0.00,,---,0.00,VWS V14.01,2013-02-25 12:29:00,
2013-02-25 07:30:00,32.2,19.1,28.64,NE,41,10.1,16.8,58,0.00,,---,0.00,VWS V14.01,2013-02-25 12:30:00,
2013-02-25 07:31:00,32.2,19.1,28.64,NE,52,8.7,12.1,58,0.00,,---,0.00,VWS V14.01,2013-02-25 12:31:00,
2013-02-25 07:32:00,32.2,19.1,28.64,ENE,60,6.7,10.5,58,0.00,,---,0.00,VWS V14.01,2013-02-25 12:32:00,
2013-02-25 07:33:00,22.8,20.6,29.09,West,267,3.1,3.1,91,0.00,,---,0.00,VWS V14.01,2013-02-25 12:33:00,
2013-02-25 07:34:00,32.2,18.7,28.64,ENE,69,9.2,12.5,57,0.00,,---,0.00,VWS V14.01,2013-02-25 12:34:00,
2013-02-25 07:35:00,32.2,18.7,28.64,ENE,71,10.5,14.3,57,0.00,,---,0.00,VWS V14.01,2013-02-25 12:35:00,
2013-02-25 07:36:00,32.2,18.7,28.64,ENE,75,10.5,14.3,57,0.00,,---,0.00,VWS V14.01,2013-02-25 12:36:00,
2013-02-25 07:37:00,32.2,18.7,28.64,East,81,10.5,12.5,57,0.00,,---,0.00,VWS V14.01,2013-02-25 12:37:00,
2013-02-25 07:38:00,23.0,20.8,29.09,West,267,0.0,0.0,91,0.00,,---,0.00,VWS V14.01,2013-02-25 12:38:00,
2013-02-25 07:39:00,32.2,18.7,28.64,ENE,68,14.3,14.8,57,0.00,,---,0.00,VWS V14.01,2013-02-25 12:39:00,
2013-02-25 07:40:00,32.2,18.7,28.64,East,94,7.4,14.3,57,0.00,,---,0.00,VWS V14.01,2013-02-25 12:40:00,
2013-02-25 07:41:00,32.2,18.7,28.64,East,101,10.5,13.0,57,0.00,,---,0.00,VWS V14.01,2013-02-25 12:41:00,
2013-02-25 07:42:00,32.2,18.7,28.64,East,90,11.2,11.6,57,0.00,,---,0.00,VWS V14.01,2013-02-25 12:42:00,
2013-02-25 07:43:00,23.2,21.0,29.09,West,267,0.0,0.0,91,0.00,,---,0.00,VWS V14.01,2013-02-25 12:43:00,
2013-02-25 07:44:00,32.2,18.7,28.64,East,82,9.2,10.5,57,0.00,,---,0.00,VWS V14.01,2013-02-25 12:44:00,
2013-02-25 07:45:00,32.4,18.8,28.64,ENE,68,9.6,10.1,57,0.00,,---,0.00,VWS V14.01,2013-02-25 12:45:00,
2013-02-25 07:46:00,32.4,18.8,28.64,ENE,76,9.6,11.0,57,0.00,,---,0.00,VWS V14.01,2013-02-25 12:46:00,
2013-02-25 07:47:00,32.4,18.8,28.64,ENE,78,9.2,12.5,57,0.00,,---,0.00,VWS V14.01,2013-02-25 12:47:00,
2013-02-25 07:48:00,23.7,21.7,29.09,West,267,0.0,0.0,92,0.00,,---,0.00,VWS V14.01,2013-02-25 12:48:00,
2013-02-25 07:49:00,32.4,18.8,28.64,East,84,6.7,10.1,57,0.00,,---,0.00,VWS V14.01,2013-02-25 12:49:00,
2013-02-25 07:50:00,32.4,18.8,28.64,ENE,69,6.9,11.2,57,0.00,,---,0.00,VWS V14.01,2013-02-25 12:50:00,
2013-02-25 07:51:00,32.4,18.8,28.67,SE,138,12.5,12.5,57,0.00,,---,0.00,VWS V14.01,2013-02-25 12:51:00,
2013-02-25 07:52:00,32.4,18.8,28.67,East,80,7.4,12.5,57,0.00,,---,0.00,VWS V14.01,2013-02-25 12:52:00,
2013-02-25 07:53:00,24.3,22.0,29.09,West,267,0.0,0.0,91,0.00,,---,0.00,VWS V14.01,2013-02-25 12:53:00,
2013-02-25 07:54:00,32.4,18.8,28.67,ENE,75,6.3,9.6,57,0.00,,---,0.00,VWS V14.01,2013-02-25 12:54:00,
2013-02-25 07:55:00,32.4,18.8,28.67,ENE,73,9.6,9.6,57,0.00,,---,0.00,VWS V14.01,2013-02-25 12:55:00,
2013-02-25 07:56:00,32.4,18.8,28.67,ENE,78,9.6,9.6,57,0.00,,---,0.00,VWS V14.01,2013-02-25 12:56:00,
2013-02-25 07:57:00,32.4,19.2,28.67,NE,53,12.1,13.9,58,0.00,,---,0.00,VWS V14.01,2013-02-25 12:57:00,
2013-02-25 07:58:00,25.2,23.2,29.09,West,267,2.7,2.7,92,0.00,,---,0.00,VWS V14.01,2013-02-25 12:58:00,
2013-02-25 07:59:00,32.2,19.1,28.67,East,85,6.7,12.1,58,0.00,,---,0.00,VWS V14.01,2013-02-25 12:59:00,
2013-02-25 08:00:00,32.2,19.1,28.67,NE,55,8.3,9.2,58,0.00,,---,0.00,VWS V14.01,2013-02-25 13:00:00,
2013-02-25 08:01:00,32.2,19.5,28.67,East,91,7.8,9.2,59,0.00,,---,0.00,VWS V14.01,2013-02-25 13:01:00,
2013-02-25 08:02:00,32.2,19.5,28.67,East,101,7.4,10.1,59,0.00,,---,0.00,VWS V14.01,2013-02-25 13:02:00,
2013-02-25 08:03:00,25.7,24.0,29.09,West,267,0.0,0.0,93,0.00,,---,0.00,VWS V14.01,2013-02-25 13:03:00,
2013-02-25 08:04:00,32.2,19.9,28.67,ENE,61,6.3,8.3,60,0.00,,---,0.00,VWS V14.01,2013-02-25 13:04:00,
2013-02-25 08:05:00,32.2,19.9,28.67,ENE,70,8.7,10.5,60,0.00,,---,0.00,VWS V14.01,2013-02-25 13:05:00,
2013-02-25 08:06:00,32.2,19.9,28.67,ENE,71,12.1,12.1,60,0.00,,---,0.00,VWS V14.01,2013-02-25 13:06:00,
2013-02-25 08:07:00,32.2,19.9,28.67,ENE,71,11.0,12.1,60,0.00,,---,0.00,VWS V14.01,2013-02-25 13:07:00,
2013-02-25 08:08:00,26.4,24.7,29.09,West,267,0.0,0.0,93,0.00,,---,0.00,VWS V14.01,2013-02-25 13:08:00,
2013-02-25 08:09:00,32.4,20.4,28.67,ENE,69,7.8,14.3,61,0.00,,---,0.00,VWS V14.01,2013-02-25 13:09:00,
2013-02-25 08:10:00,32.4,20.4,28.67,ESE,117,9.2,12.1,61,0.00,,---,0.00,VWS V14.01,2013-02-25 13:10:00,
2013-02-25 08:11:00,32.4,20.4,28.67,ENE,67,8.3,9.6,61,0.00,,---,0.00,VWS V14.01,2013-02-25 13:11:00,
2013-02-25 08:12:00,32.4,20.4,28.67,ENE,62,6.3,8.7,61,0.00,,---,0.00,VWS V14.01,2013-02-25 13:12:00,
2013-02-25 08:13:00,27.7,25.9,29.12,West,267,0.0,0.0,93,0.00,,---,0.00,VWS V14.01,2013-02-25 13:13:00,
2013-02-25 08:14:00,32.2,20.3,28.67,ENE,63,11.0,14.3,61,0.00,,---,0.00,VWS V14.01,2013-02-25 13:14:00,
2013-02-25 08:15:00,32.2,20.6,28.67,ENE,60,8.3,11.0,62,0.00,,---,0.00,VWS V14.01,2013-02-25 13:15:00,
2013-02-25 08:16:00,32.0,20.5,28.67,East,88,7.8,10.1,62,0.00,,---,0.00,VWS V14.01,2013-02-25 13:16:00,
2013-02-25 08:17:00,32.0,20.9,28.67,ENE,73,12.1,13.0,63,0.00,,---,0.00,VWS V14.01,2013-02-25 13:17:00,
2013-02-25 08:18:00,28.8,27.2,29.12,West,267,3.1,3.1,94,0.00,,---,0.00,VWS V14.01,2013-02-25 13:18:00,
2013-02-25 08:19:00,31.8,21.0,28.67,ENE,65,15.4,15.4,64,0.00,,---,0.00,VWS V14.01,2013-02-25 13:19:00,
2013-02-25 08:20:00,32.0,21.6,28.67,NE,56,11.2,15.4,65,0.00,,---,0.00,VWS V14.01,2013-02-25 13:20:00,
2013-02-25 08:21:00,32.0,21.9,28.64,SE,124,6.9,11.2,66,0.00,,---,0.00,VWS V14.01,2013-02-25 13:21:00,
2013-02-25 08:22:00,32.0,22.3,28.64,ENE,71,11.0,11.0,67,0.00,,---,0.00,VWS V14.01,2013-02-25 13:22:00,
2013-02-25 08:23:00,29.5,28.0,29.12,West,267,4.0,4.0,94,0.00,,---,0.00,VWS V14.01,2013-02-25 13:23:00,
2013-02-25 08:24:00,31.8,22.8,28.64,ESE,111,6.3,8.3,69,0.00,,---,0.00,VWS V14.01,2013-02-25 13:24:00,
2013-02-25 08:25:00,31.8,22.8,28.64,ENE,63,9.2,9.2,69,0.00,,---,0.00,VWS V14.01,2013-02-25 13:25:00,
2013-02-25 08:26:00,31.8,23.2,28.64,East,95,9.6,11.0,70,0.00,,---,0.00,VWS V14.01,2013-02-25 13:26:00,
2013-02-25 08:27:00,31.6,23.0,28.64,East,85,9.6,11.2,70,0.00,,---,0.00,VWS V14.01,2013-02-25 13:27:00,
2013-02-25 08:28:00,30.0,28.5,29.12,West,267,0.0,0.0,94,0.00,,---,0.00,VWS V14.01,2013-02-25 13:28:00,
2013-02-25 08:29:00,31.5,23.2,28.64,ENE,70,6.9,10.5,71,0.00,,---,0.00,VWS V14.01,2013-02-25 13:29:00,
2013-02-25 08:30:00,31.5,23.5,28.64,East,85,7.8,8.7,72,0.00,,---,0.00,VWS V14.01,2013-02-25 13:30:00,
2013-02-25 08:31:00,31.5,23.5,28.64,East,95,8.7,10.5,72,0.00,,---,0.00,VWS V14.01,2013-02-25 13:31:00,
2013-02-25 08:32:00,31.5,23.8,28.64,East,83,8.7,14.8,73,0.00,,---,0.00,VWS V14.01,2013-02-25 13:32:00,
2013-02-25 08:33:00,30.7,29.2,29.12,West,267,0.0,0.0,94,0.00,,---,0.00,VWS V14.01,2013-02-25 13:33:00,
2013-02-25 08:34:00,31.8,24.5,28.64,ENE,72,6.9,11.2,74,0.00,,---,0.00,VWS V14.01,2013-02-25 13:34:00,
2013-02-25 08:35:00,32.0,24.7,28.64,East,87,10.5,10.5,74,0.00,,---,0.00,VWS V14.01,2013-02-25 13:35:00,
2013-02-25 08:36:00,32.0,25.0,28.64,NE,56,7.4,10.5,75,0.00,,---,0.00,VWS V14.01,2013-02-25 13:36:00,
2013-02-25 08:37:00,32.0,25.0,28.64,ENE,71,10.1,11.0,75,0.00,,---,0.00,VWS V14.01,2013-02-25 13:37:00,
2013-02-25 08:38:00,32.2,25.5,28.64,ENE,71,7.8,11.0,76,0.00,,---,0.00,VWS V14.01,2013-02-25 13:38:00,
2013-02-25 08:39:00,31.5,29.7,29.12,West,267,0.0,0.0,93,0.00,,---,0.00,VWS V14.01,2013-02-25 13:39:00,
2013-02-25 08:40:00,32.2,25.5,28.64,ENE,73,11.0,13.9,76,0.00,,---,0.00,VWS V14.01,2013-02-25 13:40:00,
2013-02-25 08:41:00,32.2,25.5,28.64,ENE,59,10.1,12.1,76,0.00,,---,0.00,VWS V14.01,2013-02-25 13:41:00,
2013-02-25 08:42:00,32.2,25.8,28.64,ENE,73,10.1,11.2,77,0.00,,---,0.00,VWS V14.01,2013-02-25 13:42:00,
2013-02-25 08:43:00,32.0,25.6,28.64,East,84,9.2,13.0,77,0.00,,---,0.00,VWS V14.01,2013-02-25 13:43:00,
2013-02-25 08:44:00,32.2,29.9,29.09,West,265,3.6,4.9,91,0.00,,---,0.00,VWS V14.01,2013-02-25 13:44:00,
2013-02-25 08:45:00,31.8,25.4,28.64,East,80,11.2,14.3,77,0.00,,---,0.00,VWS V14.01,2013-02-25 13:45:00,
2013-02-25 08:46:00,31.8,25.4,28.64,NE,56,8.7,14.3,77,0.00,,---,0.00,VWS V14.01,2013-02-25 13:46:00,
2013-02-25 08:47:00,32.0,25.6,28.64,East,80,11.0,11.0,77,0.00,,---,0.00,VWS V14.01,2013-02-25 13:47:00,
2013-02-25 08:48:00,32.0,25.9,28.64,East,93,7.8,12.1,78,0.00,,---,0.00,VWS V14.01,2013-02-25 13:48:00,
2013-02-25 08:49:00,32.2,26.1,28.64,ENE,60,9.2,11.6,78,0.00,,---,0.00,VWS V14.01,2013-02-25 13:49:00,
2013-02-25 08:50:00,33.1,29.1,29.09,West,264,3.1,4.5,85,0.00,,---,0.00,VWS V14.01,2013-02-25 13:50:00,
2013-02-25 08:51:00,32.0,25.9,28.64,ESE,113,8.7,10.1,78,0.00,,---,0.00,VWS V14.01,2013-02-25 13:51:00,
2013-02-25 08:52:00,32.0,25.9,28.64,ENE,66,8.3,8.7,78,0.00,,---,0.00,VWS V14.01,2013-02-25 13:52:00,
2013-02-25 08:53:00,32.0,26.2,28.64,ENE,75,8.3,10.5,79,0.00,,---,0.00,VWS V14.01,2013-02-25 13:53:00,
2013-02-25 08:54:00,32.2,26.4,28.64,ENE,69,9.6,11.2,79,0.00,,---,0.00,VWS V14.01,2013-02-25 13:54:00,
2013-02-25 08:55:00,33.6,26.9,29.09,ESE,115,4.5,6.3,76,0.00,,---,0.00,VWS V14.01,2013-02-25 13:55:00,
2013-02-25 08:56:00,32.0,26.2,28.64,ENE,73,8.3,11.6,79,0.00,,---,0.00,VWS V14.01,2013-02-25 13:56:00,
2013-02-25 08:57:00,32.0,26.2,28.64,NE,55,10.5,10.5,79,0.00,,---,0.00,VWS V14.01,2013-02-25 13:57:00,
2013-02-25 08:58:00,32.0,26.2,28.64,East,88,9.2,10.5,79,0.00,,---,0.00,VWS V14.01,2013-02-25 13:58:00,
2013-02-25 08:59:00,32.0,26.5,28.64,ENE,68,8.3,11.0,80,0.00,,---,0.00,VWS V14.01,2013-02-25 13:59:00,
2013-02-25 09:00:00,34.0,22.0,29.09,ESE,116,5.4,5.4,61,0.00,,---,0.00,VWS V14.01,2013-02-25 14:00:00,
2013-02-25 09:01:00,32.2,26.7,28.64,East,84,8.7,10.1,80,0.00,,---,0.00,VWS V14.01,2013-02-25 14:01:00,
2013-02-25 09:02:00,32.2,26.7,28.64,ENE,65,10.1,11.0,80,0.00,,---,0.00,VWS V14.01,2013-02-25 14:02:00,
2013-02-25 09:03:00,32.2,27.0,28.64,ENE,67,6.3,11.6,81,0.00,,---,0.00,VWS V14.01,2013-02-25 14:03:00,
2013-02-25 09:04:00,32.2,27.0,28.64,East,84,9.6,10.1,81,0.00,,---,0.00,VWS V14.01,2013-02-25 14:04:00,
2013-02-25 09:05:00,34.5,18.7,29.09,ESE,116,6.3,6.3,52,0.00,,---,0.00,VWS V14.01,2013-02-25 14:05:00,
2013-02-25 09:06:00,32.2,27.0,28.61,NE,54,8.3,10.5,81,0.00,,---,0.00,VWS V14.01,2013-02-25 14:06:00,
2013-02-25 09:07:00,32.2,27.3,28.61,ENE,73,9.2,9.6,82,0.00,,---,0.00,VWS V14.01,2013-02-25 14:07:00,
2013-02-25 09:08:00,32.2,27.3,28.61,ENE,77,6.7,10.5,82,0.00,,---,0.00,VWS V14.01,2013-02-25 14:08:00,
2013-02-25 09:09:00,32.4,27.5,28.61,ENE,69,6.9,9.6,82,0.00,,---,0.00,VWS V14.01,2013-02-25 14:09:00,
2013-02-25 09:10:00,32.4,27.8,28.61,ENE,76,8.7,8.7,83,0.00,,---,0.00,VWS V14.01,2013-02-25 14:10:00,
2013-02-25 09:11:00,32.4,27.8,28.61,NE,54,6.9,8.7,83,0.00,,---,0.00,VWS V14.01,2013-02-25 14:11:00,
2013-02-25 09:12:00,35.4,17.2,29.09,East,101,4.0,6.3,47,0.00,,---,0.00,VWS V14.01,2013-02-25 14:12:00,
2013-02-25 09:13:00,32.4,27.8,28.61,ENE,71,9.2,13.0,83,0.00,,---,0.00,VWS V14.01,2013-02-25 14:13:00,
2013-02-25 09:14:00,32.4,28.1,28.61,NE,52,8.7,10.1,84,0.00,,---,0.00,VWS V14.01,2013-02-25 14:14:00,
2013-02-25 09:15:00,32.5,28.2,28.61,East,79,8.3,10.1,84,0.00,,---,0.00,VWS V14.01,2013-02-25 14:15:00,
2013-02-25 09:16:00,32.5,28.2,28.61,ENE,65,6.3,8.3,84,0.00,,---,0.00,VWS V14.01,2013-02-25 14:16:00,
2013-02-25 09:17:00,32.5,28.2,28.61,East,95,0.0,8.7,84,0.04,,---,0.04,VWS V14.01,2013-02-25 14:17:00,
2013-02-25 09:18:00,32.4,28.1,28.61,ENE,78,6.9,7.4,84,0.04,,---,0.04,VWS V14.01,2013-02-25 14:18:00,
2013-02-25 09:19:00,36.1,16.9,29.09,SE,128,0.0,4.0,45,0.00,,---,0.00,VWS V14.01,2013-02-25 14:19:00,
2013-02-25 09:20:00,32.4,28.4,28.61,East,83,3.6,6.3,85,0.04,,---,0.04,VWS V14.01,2013-02-25 14:20:00,
2013-02-25 09:21:00,32.4,28.4,28.64,ENE,69,6.7,9.2,85,0.04,,---,0.04,VWS V14.01,2013-02-25 14:21:00,
2013-02-25 09:22:00,32.4,28.4,28.64,East,84,6.7,8.7,85,0.04,,---,0.04,VWS V14.01,2013-02-25 14:22:00,
2013-02-25 09:23:00,32.4,28.4,28.64,East,92,4.9,6.7,85,0.04,,---,0.04,VWS V14.01,2013-02-25 14:23:00,
2013-02-25 09:24:00,32.4,28.4,28.64,East,91,0.0,4.9,85,0.04,,---,0.04,VWS V14.01,2013-02-25 14:24:00,
2013-02-25 09:25:00,37.0,17.7,29.09,ESE,105,4.5,4.5,45,0.00,,---,0.00,VWS V14.01,2013-02-25 14:25:00,
2013-02-25 09:26:00,32.4,28.4,28.64,East,91,0.0,0.0,85,0.04,,---,0.04,VWS V14.01,2013-02-25 14:26:00,
2013-02-25 09:27:00,32.4,28.6,28.64,East,91,0.0,0.0,86,0.04,,---,0.04,VWS V14.01,2013-02-25 14:27:00,
2013-02-25 09:28:00,32.4,28.6,28.64,East,91,0.0,0.0,86,0.04,,---,0.04,VWS V14.01,2013-02-25 14:28:00,
2013-02-25 09:29:00,32.4,28.6,28.64,East,91,0.0,0.0,86,0.04,,---,0.04,VWS V14.01,2013-02-25 14:29:00,
2013-02-25 09:30:00,37.6,17.1,29.09,SE,131,5.4,6.3,43,0.00,,---,0.00,VWS V14.01,2013-02-25 14:30:00,
2013-02-25 09:31:00,32.4,28.6,28.64,East,91,0.0,0.0,86,0.04,,---,0.04,VWS V14.01,2013-02-25 14:31:00,
2013-02-25 09:32:00,32.4,28.6,28.64,East,91,0.0,0.0,86,0.04,,---,0.04,VWS V14.01,2013-02-25 14:32:00,
2013-02-25 09:33:00,32.2,28.5,28.64,East,91,0.0,0.0,86,0.04,,---,0.04,VWS V14.01,2013-02-25 14:33:00,
2013-02-25 09:34:00,32.2,28.5,28.64,East,91,0.0,0.0,86,0.04,,---,0.04,VWS V14.01,2013-02-25 14:34:00,
2013-02-25 09:35:00,32.4,28.9,28.64,East,91,0.0,0.0,87,0.04,,---,0.04,VWS V14.01,2013-02-25 14:35:00,
2013-02-25 09:36:00,32.2,28.8,28.64,East,91,0.0,0.0,87,0.04,,---,0.04,VWS V14.01,2013-02-25 14:36:00,
2013-02-25 09:37:00,32.2,28.8,28.64,East,91,0.0,0.0,87,0.04,,---,0.04,VWS V14.01,2013-02-25 14:37:00,
2013-02-25 09:38:00,32.2,28.8,28.64,East,91,0.0,0.0,87,0.04,,---,0.04,VWS V14.01,2013-02-25 14:38:00,
2013-02-25 09:39:00,32.2,28.8,28.64,East,91,0.0,0.0,87,0.04,,---,0.04,VWS V14.01,2013-02-25 14:39:00,
2013-02-25 09:40:00,32.2,28.8,28.64,East,91,0.0,0.0,87,0.04,,---,0.04,VWS V14.01,2013-02-25 14:40:00,
2013-02-25 09:41:00,32.2,28.8,28.64,East,91,0.0,0.0,87,0.04,,---,0.04,VWS V14.01,2013-02-25 14:41:00,
2013-02-25 09:42:00,37.6,15.5,29.09,SE,135,5.4,7.4,40,0.00,,---,0.00,VWS V14.01,2013-02-25 14:42:00,
2013-02-25 09:43:00,32.4,28.9,28.64,East,91,0.0,0.0,87,0.04,,---,0.04,VWS V14.01,2013-02-25 14:43:00,
2013-02-25 09:44:00,32.4,28.9,28.64,East,91,0.0,0.0,87,0.04,,---,0.04,VWS V14.01,2013-02-25 14:44:00,
2013-02-25 09:45:00,32.4,29.2,28.64,East,91,0.0,0.0,88,0.04,,---,0.04,VWS V14.01,2013-02-25 14:45:00,
2013-02-25 09:46:00,32.4,29.2,28.64,East,91,0.0,0.0,88,0.04,,---,0.04,VWS V14.01,2013-02-25 14:46:00,
2013-02-25 09:47:00,37.9,15.2,29.09,ESE,106,4.0,6.9,39,0.00,,---,0.00,VWS V14.01,2013-02-25 14:47:00,
2013-02-25 09:48:00,32.4,29.2,28.64,East,91,0.0,0.0,88,0.04,,---,0.04,VWS V14.01,2013-02-25 14:48:00,
2013-02-25 09:49:00,32.5,29.4,28.64,East,91,0.0,0.0,88,0.04,,---,0.04,VWS V14.01,2013-02-25 14:49:00,
2013-02-25 09:50:00,32.4,29.2,28.64,East,91,0.0,0.0,88,0.04,,---,0.04,VWS V14.01,2013-02-25 14:50:00,
2013-02-25 09:51:00,32.4,29.2,28.61,East,91,0.0,0.0,88,0.04,,---,0.04,VWS V14.01,2013-02-25 14:51:00,
2013-02-25 09:52:00,32.4,29.2,28.61,East,91,0.0,0.0,88,0.04,,---,0.04,VWS V14.01,2013-02-25 14:52:00,
2013-02-25 09:53:00,32.4,29.2,28.61,East,91,0.0,0.0,88,0.04,,---,0.04,VWS V14.01,2013-02-25 14:53:00,
2013-02-25 09:54:00,38.8,16.0,29.09,East,99,4.9,7.4,39,0.00,,---,0.00,VWS V14.01,2013-02-25 14:54:00,
2013-02-25 09:55:00,32.2,29.0,28.61,East,91,0.0,0.0,88,0.04,,---,0.04,VWS V14.01,2013-02-25 14:55:00,
2013-02-25 09:56:00,32.2,29.3,28.61,East,91,0.0,0.0,89,0.04,,---,0.04,VWS V14.01,2013-02-25 14:56:00,
2013-02-25 09:57:00,32.2,29.3,28.61,East,91,0.0,0.0,89,0.04,,---,0.04,VWS V14.01,2013-02-25 14:57:00,
2013-02-25 09:58:00,32.2,29.3,28.61,East,91,0.0,0.0,89,0.04,,---,0.04,VWS V14.01,2013-02-25 14:58:00,
2013-02-25 09:59:00,38.8,13.5,29.09,ESE,116,4.9,8.3,35,0.00,,---,0.00,VWS V14.01,2013-02-25 14:59:00,
2013-02-25 10:00:00,32.2,29.3,28.61,East,91,0.0,0.0,89,0.04,,---,0.04,VWS V14.01,2013-02-25 15:00:00,
2013-02-25 10:01:00,32.2,29.3,28.61,East,91,0.0,0.0,89,0.04,,---,0.04,VWS V14.01,2013-02-25 15:01:00,
2013-02-25 10:02:00,32.2,29.3,28.61,East,91,0.0,0.0,89,0.04,,---,0.04,VWS V14.01,2013-02-25 15:02:00,
2013-02-25 10:03:00,32.2,29.3,28.61,East,91,0.0,0.0,89,0.04,,---,0.04,VWS V14.01,2013-02-25 15:03:00,
2013-02-25 10:04:00,38.5,12.6,29.09,East,94,5.4,9.2,34,0.00,,---,0.00,VWS V14.01,2013-02-25 15:04:00,
2013-02-25 10:05:00,32.0,29.1,28.61,East,91,0.0,0.0,89,0.04,,---,0.04,VWS V14.01,2013-02-25 15:05:00,
2013-02-25 10:06:00,32.0,29.1,28.58,East,91,0.0,0.0,89,0.04,,---,0.04,VWS V14.01,2013-02-25 15:06:00,
2013-02-25 10:07:00,32.0,29.1,28.58,East,91,0.0,0.0,89,0.04,,---,0.04,VWS V14.01,2013-02-25 15:07:00,
2013-02-25 10:08:00,32.0,29.1,28.58,East,91,0.0,0.0,89,0.04,,---,0.04,VWS V14.01,2013-02-25 15:08:00,
2013-02-25 10:09:00,32.0,29.1,28.58,East,91,0.0,0.0,89,0.04,,---,0.04,VWS V14.01,2013-02-25 15:09:00,
2013-02-25 10:10:00,38.7,12.7,29.09,SE,128,6.3,6.3,34,0.00,,---,0.00,VWS V14.01,2013-02-25 15:10:00,
2013-02-25 10:11:00,32.0,29.1,28.58,East,91,0.0,0.0,89,0.04,,---,0.04,VWS V14.01,2013-02-25 15:11:00,
2013-02-25 10:12:00,32.0,29.1,28.58,East,91,0.0,0.0,89,0.04,,---,0.04,VWS V14.01,2013-02-25 15:12:00,
2013-02-25 10:13:00,32.0,29.1,28.58,East,91,0.0,0.0,89,0.04,,---,0.04,VWS V14.01,2013-02-25 15:13:00,
2013-02-25 10:14:00,32.0,29.1,28.58,East,91,0.0,0.0,89,0.04,,---,0.04,VWS V14.01,2013-02-25 15:14:00,
2013-02-25 10:15:00,39.4,13.4,29.09,East,101,6.9,8.3,34,0.00,,---,0.00,VWS V14.01,2013-02-25 15:15:00,
2013-02-25 10:16:00,32.2,29.6,28.58,East,91,0.0,0.0,90,0.04,,---,0.04,VWS V14.01,2013-02-25 15:16:00,
2013-02-25 10:17:00,32.2,29.6,28.58,East,91,0.0,0.0,90,0.04,,---,0.04,VWS V14.01,2013-02-25 15:17:00,
2013-02-25 10:18:00,32.2,29.6,28.58,East,91,0.0,0.0,90,0.00,,---,0.04,VWS V14.01,2013-02-25 15:18:00,
2013-02-25 10:19:00,32.2,29.6,28.58,East,91,0.0,0.0,90,0.00,,---,0.04,VWS V14.01,2013-02-25 15:19:00,
2013-02-25 10:20:00,39.7,13.0,29.09,ESE,111,6.3,10.1,33,0.00,,---,0.00,VWS V14.01,2013-02-25 15:20:00,
2013-02-25 10:21:00,32.2,29.6,28.58,East,91,0.0,0.0,90,0.00,,---,0.04,VWS V14.01,2013-02-25 15:21:00,
2013-02-25 10:22:00,32.2,29.6,28.58,East,91,0.0,0.0,90,0.00,,---,0.04,VWS V14.01,2013-02-25 15:22:00,
2013-02-25 10:23:00,32.2,29.6,28.58,East,91,0.0,0.0,90,0.00,,---,0.04,VWS V14.01,2013-02-25 15:23:00,
2013-02-25 10:24:00,32.2,29.6,28.58,East,91,0.0,0.0,90,0.00,,---,0.04,VWS V14.01,2013-02-25 15:24:00,
2013-02-25 10:25:00,40.1,12.6,29.09,SE,133,6.7,10.5,32,0.00,,---,0.00,VWS V14.01,2013-02-25 15:25:00,
2013-02-25 10:26:00,32.2,29.6,28.58,East,91,0.0,0.0,90,0.00,,---,0.04,VWS V14.01,2013-02-25 15:26:00,
2013-02-25 10:27:00,32.4,30.0,28.58,East,91,0.0,0.0,91,0.00,,---,0.04,VWS V14.01,2013-02-25 15:27:00,
2013-02-25 10:28:00,32.4,30.0,28.58,East,91,0.0,0.0,91,0.00,,---,0.04,VWS V14.01,2013-02-25 15:28:00,
2013-02-25 10:29:00,32.4,30.0,28.58,East,91,0.0,0.0,91,0.00,,---,0.04,VWS V14.01,2013-02-25 15:29:00,
2013-02-25 10:30:00,39.9,11.8,29.09,SSE,164,2.7,7.4,31,0.00,,---,0.00,VWS V14.01,2013-02-25 15:30:00,
2013-02-25 10:31:00,32.4,30.0,28.58,East,91,0.0,0.0,91,0.00,,---,0.04,VWS V14.01,2013-02-25 15:31:00,
2013-02-25 10:32:00,32.5,30.2,28.58,East,91,0.0,0.0,91,0.00,,---,0.04,VWS V14.01,2013-02-25 15:32:00,
2013-02-25 10:33:00,32.4,30.0,28.58,East,91,0.0,0.0,91,0.00,,---,0.04,VWS V14.01,2013-02-25 15:33:00,
2013-02-25 10:34:00,32.4,30.0,28.58,East,91,0.0,0.0,91,0.00,,---,0.04,VWS V14.01,2013-02-25 15:34:00,
2013-02-25 10:35:00,32.4,30.0,28.58,East,91,0.0,0.0,91,0.00,,---,0.04,VWS V14.01,2013-02-25 15:35:00,
2013-02-25 10:36:00,39.6,10.7,29.09,SSE,151,6.9,6.9,30,0.00,,---,0.00,VWS V14.01,2013-02-25 15:36:00,
2013-02-25 10:37:00,32.4,30.0,28.56,East,91,0.0,0.0,91,0.00,,---,0.04,VWS V14.01,2013-02-25 15:37:00,
2013-02-25 10:38:00,32.4,30.0,28.56,East,91,0.0,0.0,91,0.00,,---,0.04,VWS V14.01,2013-02-25 15:38:00,
2013-02-25 10:39:00,32.4,30.0,28.56,East,91,0.0,0.0,91,0.00,,---,0.04,VWS V14.01,2013-02-25 15:39:00,
2013-02-25 10:40:00,32.5,30.2,28.56,East,91,0.0,0.0,91,0.00,,---,0.04,VWS V14.01,2013-02-25 15:40:00,
2013-02-25 10:41:00,39.4,9.8,29.09,East,101,8.3,10.5,29,0.00,,---,0.00,VWS V14.01,2013-02-25 15:41:00,
2013-02-25 10:42:00,32.5,30.2,28.56,East,91,0.0,0.0,91,0.00,,---,0.04,VWS V14.01,2013-02-25 15:42:00,
2013-02-25 10:43:00,32.5,30.5,28.56,East,91,0.0,0.0,92,0.00,,---,0.04,VWS V14.01,2013-02-25 15:43:00,
2013-02-25 10:44:00,32.5,30.5,28.56,East,91,0.0,0.0,92,0.00,,---,0.04,VWS V14.01,2013-02-25 15:44:00,
2013-02-25 10:45:00,32.5,30.5,28.56,East,91,0.0,0.0,92,0.00,,---,0.04,VWS V14.01,2013-02-25 15:45:00,
2013-02-25 10:46:00,32.4,30.3,28.56,East,91,0.0,0.0,92,0.00,,---,0.04,VWS V14.01,2013-02-25 15:46:00,
2013-02-25 10:47:00,32.5,30.5,28.56,East,91,0.0,0.0,92,0.00,,---,0.04,VWS V14.01,2013-02-25 15:47:00,
2013-02-25 10:48:00,40.5,10.7,29.09,SE,143,6.9,6.9,29,0.00,,---,0.00,VWS V14.01,2013-02-25 15:48:00,
2013-02-25 10:49:00,32.5,30.5,28.56,East,91,0.0,0.0,92,0.00,,---,0.04,VWS V14.01,2013-02-25 15:49:00,
2013-02-25 10:50:00,32.5,30.5,28.56,East,91,0.0,0.0,92,0.00,,---,0.04,VWS V14.01,2013-02-25 15:50:00,
2013-02-25 10:51:00,32.5,30.5,28.56,East,91,0.0,0.0,92,0.00,,---,0.04,VWS V14.01,2013-02-25 15:51:00,
2013-02-25 10:52:00,32.5,30.5,28.56,East,91,0.0,0.0,92,0.00,,---,0.04,VWS V14.01,2013-02-25 15:52:00,
2013-02-25 10:53:00,39.9,10.2,29.09,SSE,151,6.3,9.2,29,0.00,,---,0.00,VWS V14.01,2013-02-25 15:53:00,
2013-02-25 10:54:00,32.5,30.5,28.56,East,91,0.0,0.0,92,0.00,,---,0.04,VWS V14.01,2013-02-25 15:54:00,
2013-02-25 10:55:00,32.5,30.5,28.56,East,91,0.0,0.0,92,0.00,,---,0.04,VWS V14.01,2013-02-25 15:55:00,
2013-02-25 10:56:00,32.5,30.5,28.56,East,91,0.0,0.0,92,0.00,,---,0.04,VWS V14.01,2013-02-25 15:56:00,
2013-02-25 10:57:00,32.5,30.5,28.56,East,91,0.0,0.0,92,0.00,,---,0.04,VWS V14.01,2013-02-25 15:57:00,
2013-02-25 10:58:00,41.0,11.2,29.09,ENE,78,6.7,8.7,29,0.00,,---,0.00,VWS V14.01,2013-02-25 15:58:00,
2013-02-25 11:01:00,32.7,30.7,28.56,East,91,0.0,0.0,92,0.00,,---,0.04,VWS V14.01,2013-02-25 16:01:00,
2013-02-25 11:02:00,32.7,30.7,28.56,East,91,0.0,0.0,92,0.00,,---,0.04,VWS V14.01,2013-02-25 16:02:00,
2013-02-25 11:03:00,41.0,10.4,29.09,SE,141,11.2,11.2,28,0.00,,---,0.00,VWS V14.01,2013-02-25 16:03:00,
2013-02-25 11:06:00,32.7,30.9,28.53,East,91,0.0,0.0,93,0.00,,---,0.04,VWS V14.01,2013-02-25 16:06:00,
2013-02-25 11:07:00,32.7,30.9,28.53,East,91,0.0,0.0,93,0.00,,---,0.04,VWS V14.01,2013-02-25 16:07:00,
2013-02-25 11:08:00,40.6,10.1,29.09,ESE,113,5.8,6.7,28,0.00,,---,0.00,VWS V14.01,2013-02-25 16:08:00,
2013-02-25 11:09:00,32.7,30.9,28.53,East,91,0.0,0.0,93,0.00,,---,0.04,VWS V14.01,2013-02-25 16:09:00,
2013-02-25 11:10:00,32.7,30.9,28.53,East,91,0.0,0.0,93,0.00,,---,0.04,VWS V14.01,2013-02-25 16:10:00,
2013-02-25 11:11:00,32.7,30.9,28.53,East,91,0.0,0.0,93,0.00,,---,0.04,VWS V14.01,2013-02-25 16:11:00,
2013-02-25 11:12:00,32.5,30.8,28.53,East,91,0.0,0.0,93,0.00,,---,0.04,VWS V14.01,2013-02-25 16:12:00,
2013-02-25 11:13:00,32.5,30.7,28.53,East,91,0.0,0.0,93,0.00,,---,0.04,VWS V14.01,2013-02-25 16:13:00,
2013-02-25 11:14:00,40.3,8.1,29.09,ESE,123,4.5,10.1,26,0.00,,---,0.00,VWS V14.01,2013-02-25 16:14:00,
2013-02-25 11:15:00,32.5,30.8,28.53,East,91,0.0,0.0,93,0.00,,---,0.04,VWS V14.01,2013-02-25 16:15:00,
2013-02-25 11:16:00,32.4,30.6,28.53,East,91,0.0,0.0,93,0.00,,---,0.04,VWS V14.01,2013-02-25 16:16:00,
2013-02-25 11:17:00,32.4,30.6,28.53,East,91,0.0,0.0,93,0.00,,---,0.04,VWS V14.01,2013-02-25 16:17:00,
2013-02-25 11:18:00,32.2,30.4,28.53,East,91,0.0,0.0,93,0.00,,---,0.04,VWS V14.01,2013-02-25 16:18:00,
2013-02-25 11:19:00,32.2,30.4,28.53,East,91,0.0,0.0,93,0.00,,---,0.04,VWS V14.01,2013-02-25 16:19:00,
2013-02-25 11:20:00,40.3,8.1,29.09,ESE,108,10.1,11.2,26,0.00,,---,0.00,VWS V14.01,2013-02-25 16:20:00,
2013-02-25 11:21:00,32.5,30.8,28.53,East,91,0.0,0.0,93,0.00,,---,0.04,VWS V14.01,2013-02-25 16:21:00,
2013-02-25 11:22:00,32.5,30.8,28.53,East,91,0.0,0.0,93,0.00,,---,0.04,VWS V14.01,2013-02-25 16:22:00,
2013-02-25 11:23:00,32.5,30.8,28.53,East,91,0.0,0.0,93,0.00,,---,0.04,VWS V14.01,2013-02-25 16:23:00,
2013-02-25 11:24:00,32.5,30.8,28.53,East,91,0.0,0.0,93,0.00,,---,0.04,VWS V14.01,2013-02-25 16:24:00,
2013-02-25 11:25:00,40.6,8.4,29.09,ESE,108,10.5,10.5,26,0.00,,---,0.00,VWS V14.01,2013-02-25 16:25:00,
2013-02-25 11:26:00,32.4,30.6,28.53,East,91,0.0,0.0,93,0.00,,---,0.04,VWS V14.01,2013-02-25 16:26:00,
2013-02-25 11:27:00,32.4,30.6,28.53,East,91,0.0,0.0,93,0.00,,---,0.04,VWS V14.01,2013-02-25 16:27:00,
2013-02-25 11:28:00,32.4,30.6,28.53,East,91,0.0,0.0,93,0.00,,---,0.04,VWS V14.01,2013-02-25 16:28:00,
2013-02-25 11:29:00,32.4,30.6,28.53,East,91,0.0,0.0,93,0.00,,---,0.04,VWS V14.01,2013-02-25 16:29:00,
2013-02-25 11:30:00,40.5,9.9,29.09,ESE,103,6.3,11.0,28,0.00,,---,0.00,VWS V14.01,2013-02-25 16:30:00,
2013-02-25 11:31:00,32.4,30.8,28.53,East,91,0.0,0.0,94,0.00,,---,0.04,VWS V14.01,2013-02-25 16:31:00,
2013-02-25 11:32:00,32.5,31.0,28.53,East,91,0.0,0.0,94,0.00,,---,0.04,VWS V14.01,2013-02-25 16:32:00,
2013-02-25 11:33:00,32.5,31.0,28.53,East,91,0.0,0.0,94,0.00,,---,0.04,VWS V14.01,2013-02-25 16:33:00,
2013-02-25 11:34:00,32.4,30.8,28.53,East,91,0.0,0.0,94,0.00,,---,0.04,VWS V14.01,2013-02-25 16:34:00,
2013-02-25 11:35:00,40.8,10.2,29.09,South,175,7.4,8.3,28,0.00,,---,0.00,VWS V14.01,2013-02-25 16:35:00,
2013-02-25 11:36:00,32.5,31.0,28.50,East,91,0.0,0.0,94,0.00,,---,0.04,VWS V14.01,2013-02-25 16:36:00,
2013-02-25 11:37:00,32.5,31.0,28.50,East,91,0.0,0.0,94,0.00,,---,0.04,VWS V14.01,2013-02-25 16:37:00,
2013-02-25 11:38:00,32.5,31.0,28.50,East,91,0.0,0.0,94,0.00,,---,0.04,VWS V14.01,2013-02-25 16:38:00,
2013-02-25 11:39:00,32.5,31.0,28.50,East,91,0.0,0.0,94,0.00,,---,0.04,VWS V14.01,2013-02-25 16:39:00,
2013-02-25 11:40:00,41.2,10.6,29.09,East,95,4.9,7.8,28,0.00,,---,0.00,VWS V14.01,2013-02-25 16:40:00,
2013-02-25 11:41:00,32.5,31.0,28.50,East,91,0.0,0.0,94,0.00,,---,0.04,VWS V14.01,2013-02-25 16:41:00,
2013-02-25 11:42:00,32.5,31.0,28.50,East,91,0.0,0.0,94,0.00,,---,0.04,VWS V14.01,2013-02-25 16:42:00,
2013-02-25 11:43:00,32.5,31.0,28.50,East,91,0.0,0.0,94,0.00,,---,0.04,VWS V14.01,2013-02-25 16:43:00,
2013-02-25 11:44:00,32.7,31.2,28.50,East,91,0.0,0.0,94,0.00,,---,0.04,VWS V14.01,2013-02-25 16:44:00,
2013-02-25 11:45:00,41.5,9.2,29.09,East,94,6.7,6.7,26,0.00,,---,0.00,VWS V14.01,2013-02-25 16:45:00,
2013-02-25 11:46:00,32.7,31.5,28.50,East,91,0.0,0.0,95,0.00,,---,0.04,VWS V14.01,2013-02-25 16:46:00,
2013-02-25 11:47:00,32.7,31.5,28.50,East,91,0.0,0.0,95,0.00,,---,0.04,VWS V14.01,2013-02-25 16:47:00,
2013-02-25 11:48:00,32.7,31.5,28.50,East,91,0.0,0.0,95,0.00,,---,0.04,VWS V14.01,2013-02-25 16:48:00,
2013-02-25 11:49:00,32.7,31.5,28.50,East,91,0.0,0.0,95,0.00,,---,0.04,VWS V14.01,2013-02-25 16:49:00,
2013-02-25 11:50:00,41.7,9.4,29.09,ESE,123,6.3,10.5,26,0.00,,---,0.00,VWS V14.01,2013-02-25 16:50:00,
2013-02-25 11:51:00,32.7,31.5,28.50,East,91,0.0,0.0,95,0.00,,---,0.04,VWS V14.01,2013-02-25 16:51:00,
2013-02-25 11:52:00,32.7,31.5,28.50,East,91,0.0,0.0,95,0.00,,---,0.04,VWS V14.01,2013-02-25 16:52:00,
2013-02-25 11:53:00,32.7,31.5,28.50,East,91,0.0,0.0,95,0.00,,---,0.04,VWS V14.01,2013-02-25 16:53:00,
2013-02-25 11:54:00,32.7,31.5,28.50,East,91,0.0,0.0,95,0.00,,---,0.04,VWS V14.01,2013-02-25 16:54:00,
2013-02-25 11:55:00,41.5,9.2,29.09,SE,129,7.8,7.8,26,0.00,,---,0.00,VWS V14.01,2013-02-25 16:55:00,
2013-02-25 11:56:00,32.7,31.5,28.50,East,91,0.0,0.0,95,0.00,,---,0.04,VWS V14.01,2013-02-25 16:56:00,
2013-02-25 11:57:00,32.7,31.5,28.50,East,91,0.0,0.0,95,0.00,,---,0.04,VWS V14.01,2013-02-25 16:57:00,
2013-02-25 11:58:00,32.7,31.5,28.50,East,91,0.0,0.0,95,0.00,,---,0.04,VWS V14.01,2013-02-25 16:58:00,
2013-02-25 11:59:00,32.7,31.5,28.50,East,91,0.0,0.0,95,0.00,,---,0.04,VWS V14.01,2013-02-25 16:59:00,
2013-02-25 12:00:00,41.7,9.4,29.09,ESE,113,5.4,7.4,26,0.00,,---,0.00,VWS V14.01,2013-02-25 17:00:00,
2013-02-25 12:01:00,32.7,31.5,28.50,East,91,0.0,0.0,95,0.00,,---,0.04,VWS V14.01,2013-02-25 17:01:00,
2013-02-25 12:02:00,32.7,31.5,28.50,East,91,0.0,0.0,95,0.00,,---,0.04,VWS V14.01,2013-02-25 17:02:00,
2013-02-25 12:03:00,32.7,31.5,28.50,East,91,0.0,0.0,95,0.00,,---,0.04,VWS V14.01,2013-02-25 17:03:00,
2013-02-25 12:04:00,32.7,31.5,28.50,East,91,0.0,0.0,95,0.00,,---,0.04,VWS V14.01,2013-02-25 17:04:00,
2013-02-25 12:05:00,42.1,8.8,29.09,East,101,6.7,7.8,25,0.00,,---,0.00,VWS V14.01,2013-02-25 17:05:00,
2013-02-25 12:06:00,32.9,31.6,28.50,East,91,0.0,0.0,95,0.00,,---,0.04,VWS V14.01,2013-02-25 17:06:00,
2013-02-25 12:07:00,32.9,31.9,28.50,East,91,0.0,0.0,96,0.00,,---,0.04,VWS V14.01,2013-02-25 17:07:00,
2013-02-25 12:08:00,32.9,31.6,28.50,East,91,0.0,0.0,95,0.00,,---,0.04,VWS V14.01,2013-02-25 17:08:00,
2013-02-25 12:09:00,32.9,31.6,28.50,East,91,0.0,0.0,95,0.00,,---,0.04,VWS V14.01,2013-02-25 17:09:00,
2013-02-25 12:10:00,42.4,9.1,29.09,ESE,107,5.4,6.9,25,0.00,,---,0.00,VWS V14.01,2013-02-25 17:10:00,
2013-02-25 12:11:00,33.1,31.8,28.50,East,91,0.0,0.0,95,0.00,,---,0.04,VWS V14.01,2013-02-25 17:11:00,
2013-02-25 12:12:00,33.1,31.8,28.50,East,91,0.0,0.0,95,0.00,,---,0.04,VWS V14.01,2013-02-25 17:12:00,
2013-02-25 12:13:00,33.1,31.8,28.50,East,91,0.0,0.0,95,0.00,,---,0.04,VWS V14.01,2013-02-25 17:13:00,
2013-02-25 12:14:00,33.1,32.1,28.50,East,91,0.0,0.0,96,0.00,,---,0.04,VWS V14.01,2013-02-25 17:14:00,
2013-02-25 12:15:00,43.7,10.2,29.09,SE,126,6.7,8.3,25,0.00,,---,0.00,VWS V14.01,2013-02-25 17:15:00,
2013-02-25 12:16:00,33.1,32.1,28.50,East,91,0.0,0.0,96,0.00,,---,0.04,VWS V14.01,2013-02-25 17:16:00,
2013-02-25 12:17:00,33.1,32.1,28.50,East,91,0.0,0.0,96,0.00,,---,0.04,VWS V14.01,2013-02-25 17:17:00,
2013-02-25 12:18:00,33.1,32.1,28.50,East,91,0.0,0.0,96,0.04,,---,0.08,VWS V14.01,2013-02-25 17:18:00,
2013-02-25 12:19:00,33.1,32.1,28.50,East,91,0.0,0.0,96,0.04,,---,0.08,VWS V14.01,2013-02-25 17:19:00,
2013-02-25 12:20:00,42.4,9.1,29.09,ESE,105,9.2,10.5,25,0.00,,---,0.00,VWS V14.01,2013-02-25 17:20:00,
2013-02-25 12:21:00,33.1,32.1,28.47,East,91,0.0,0.0,96,0.04,,---,0.08,VWS V14.01,2013-02-25 17:21:00,
2013-02-25 12:22:00,33.1,32.1,28.47,East,91,0.0,0.0,96,0.04,,---,0.08,VWS V14.01,2013-02-25 17:22:00,
2013-02-25 12:23:00,33.1,32.1,28.47,East,91,0.0,0.0,96,0.04,,---,0.08,VWS V14.01,2013-02-25 17:23:00,
2013-02-25 12:24:00,33.1,32.1,28.47,East,91,0.0,0.0,96,0.04,,---,0.08,VWS V14.01,2013-02-25 17:24:00,
2013-02-25 12:25:00,42.8,7.6,29.09,ESE,112,8.3,11.2,23,0.00,,---,0.00,VWS V14.01,2013-02-25 17:25:00,
2013-02-25 12:26:00,33.1,32.1,28.47,East,91,0.0,0.0,96,0.04,,---,0.08,VWS V14.01,2013-02-25 17:26:00,
2013-02-25 12:27:00,33.1,32.1,28.47,East,91,0.0,0.0,96,0.04,,---,0.08,VWS V14.01,2013-02-25 17:27:00,
2013-02-25 12:28:00,33.1,32.1,28.47,East,91,0.0,0.0,96,0.04,,---,0.08,VWS V14.01,2013-02-25 17:28:00,
2013-02-25 12:29:00,33.1,32.1,28.47,East,91,0.0,0.0,96,0.04,,---,0.08,VWS V14.01,2013-02-25 17:29:00,
2013-02-25 12:30:00,43.0,12.1,29.06,SE,126,10.1,11.2,28,0.00,,---,0.00,VWS V14.01,2013-02-25 17:30:00,
2013-02-25 12:31:00,33.3,32.5,28.47,East,91,0.0,0.0,97,0.04,,---,0.08,VWS V14.01,2013-02-25 17:31:00,
2013-02-25 12:32:00,33.3,32.5,28.47,East,91,0.0,0.0,97,0.04,,---,0.08,VWS V14.01,2013-02-25 17:32:00,
2013-02-25 12:33:00,33.3,32.5,28.47,East,91,0.0,0.0,97,0.04,,---,0.08,VWS V14.01,2013-02-25 17:33:00,
2013-02-25 12:34:00,33.3,32.5,28.47,East,91,0.0,0.0,97,0.04,,---,0.08,VWS V14.01,2013-02-25 17:34:00,
2013-02-25 12:35:00,43.2,7.9,29.06,SE,134,8.3,9.6,23,0.00,,---,0.00,VWS V14.01,2013-02-25 17:35:00,
2013-02-25 12:36:00,33.3,32.5,28.50,East,91,0.0,0.0,97,0.08,,---,0.12,VWS V14.01,2013-02-25 17:36:00,
2013-02-25 12:37:00,33.3,32.5,28.50,East,91,0.0,0.0,97,0.08,,---,0.12,VWS V14.01,2013-02-25 17:37:00,
2013-02-25 12:38:00,33.3,32.5,28.50,East,91,0.0,0.0,97,0.08,,---,0.12,VWS V14.01,2013-02-25 17:38:00,
2013-02-25 12:39:00,33.3,32.5,28.50,East,91,0.0,0.0,97,0.08,,---,0.12,VWS V14.01,2013-02-25 17:39:00,
2013-02-25 12:40:00,44.6,11.0,29.06,ESE,121,6.3,12.1,25,0.00,,---,0.00,VWS V14.01,2013-02-25 17:40:00,
2013-02-25 12:41:00,33.3,32.5,28.50,East,91,0.0,0.0,97,0.08,,---,0.12,VWS V14.01,2013-02-25 17:41:00,
2013-02-25 12:42:00,33.3,32.5,28.50,East,91,0.0,0.0,97,0.08,,---,0.12,VWS V14.01,2013-02-25 17:42:00,
2013-02-25 12:43:00,33.3,32.5,28.50,East,91,0.0,0.0,97,0.08,,---,0.12,VWS V14.01,2013-02-25 17:43:00,
2013-02-25 12:44:00,33.3,32.5,28.50,East,91,0.0,0.0,97,0.08,,---,0.12,VWS V14.01,2013-02-25 17:44:00,
2013-02-25 12:45:00,33.3,32.5,28.50,East,91,0.0,0.0,97,0.08,,---,0.12,VWS V14.01,2013-02-25 17:45:00,
2013-02-25 12:46:00,33.3,32.5,28.50,East,91,0.0,0.0,97,0.08,,---,0.12,VWS V14.01,2013-02-25 17:46:00,
2013-02-25 12:47:00,44.2,7.8,29.06,ESE,112,6.9,10.5,22,0.00,,---,0.00,VWS V14.01,2013-02-25 17:47:00,
2013-02-25 12:48:00,33.3,32.5,28.50,East,91,0.0,0.0,97,0.08,,---,0.12,VWS V14.01,2013-02-25 17:48:00,
2013-02-25 12:49:00,33.3,32.5,28.50,East,91,0.0,0.0,97,0.08,,---,0.12,VWS V14.01,2013-02-25 17:49:00,
2013-02-25 12:50:00,33.3,32.5,28.50,East,91,0.0,0.0,97,0.08,,---,0.12,VWS V14.01,2013-02-25 17:50:00,
2013-02-25 12:51:00,33.3,32.5,28.50,East,91,0.0,0.0,97,0.08,,---,0.12,VWS V14.01,2013-02-25 17:51:00,
2013-02-25 12:52:00,43.5,8.2,29.06,SE,128,5.8,9.6,23,0.00,,---,0.00,VWS V14.01,2013-02-25 17:52:00,
2013-02-25 12:53:00,33.3,32.5,28.50,East,91,0.0,0.0,97,0.08,,---,0.12,VWS V14.01,2013-02-25 17:53:00,
2013-02-25 12:54:00,33.3,32.5,28.50,East,91,0.0,0.0,97,0.08,,---,0.12,VWS V14.01,2013-02-25 17:54:00,
2013-02-25 12:55:00,33.3,32.5,28.50,East,91,0.0,0.0,97,0.08,,---,0.12,VWS V14.01,2013-02-25 17:55:00,
2013-02-25 12:56:00,33.3,32.5,28.50,East,91,0.0,0.0,97,0.08,,---,0.12,VWS V14.01,2013-02-25 17:56:00,
2013-02-25 12:57:00,44.1,7.7,29.03,East,80,6.9,11.0,22,0.00,,---,0.00,VWS V14.01,2013-02-25 17:57:00,
2013-02-25 12:58:00,33.3,32.5,28.50,East,91,0.0,0.0,97,0.08,,---,0.12,VWS V14.01,2013-02-25 17:58:00,
2013-02-25 12:59:00,33.3,32.5,28.50,East,91,0.0,0.0,97,0.08,,---,0.12,VWS V14.01,2013-02-25 17:59:00,
2013-02-25 13:00:00,33.3,32.5,28.50,East,91,0.0,0.0,97,0.08,,---,0.12,VWS V14.01,2013-02-25 18:00:00,
2013-02-25 13:01:00,33.3,32.5,28.50,East,91,0.0,0.0,97,0.08,,---,0.12,VWS V14.01,2013-02-25 18:01:00,
2013-02-25 13:02:00,44.8,8.3,29.03,ESE,104,7.4,7.4,22,0.00,,---,0.00,VWS V14.01,2013-02-25 18:02:00,
2013-02-25 13:03:00,33.3,32.5,28.50,East,91,0.0,0.0,97,0.08,,---,0.12,VWS V14.01,2013-02-25 18:03:00,
2013-02-25 13:04:00,33.3,32.5,28.50,East,91,0.0,0.0,97,0.08,,---,0.12,VWS V14.01,2013-02-25 18:04:00,
2013-02-25 13:05:00,33.3,32.5,28.50,East,91,0.0,0.0,97,0.12,,---,0.16,VWS V14.01,2013-02-25 18:05:00,
2013-02-25 13:06:00,33.3,32.5,28.50,East,91,0.0,0.0,97,0.12,,---,0.16,VWS V14.01,2013-02-25 18:06:00,
2013-02-25 13:07:00,45.1,8.6,29.03,SE,129,11.2,13.4,22,0.00,,---,0.00,VWS V14.01,2013-02-25 18:07:00,
2013-02-25 13:08:00,33.3,32.5,28.50,East,91,0.0,0.0,97,0.12,,---,0.16,VWS V14.01,2013-02-25 18:08:00,
2013-02-25 13:09:00,33.3,32.5,28.50,East,91,0.0,0.0,97,0.12,,---,0.16,VWS V14.01,2013-02-25 18:09:00,
2013-02-25 13:10:00,33.3,32.5,28.50,East,91,0.0,0.0,97,0.12,,---,0.16,VWS V14.01,2013-02-25 18:10:00,
2013-02-25 13:11:00,33.3,32.5,28.50,East,91,0.0,0.0,97,0.12,,---,0.16,VWS V14.01,2013-02-25 18:11:00,
2013-02-25 13:12:00,45.0,8.4,29.03,NE,54,4.0,7.8,22,0.00,,---,0.00,VWS V14.01,2013-02-25 18:12:00,
2013-02-25 13:13:00,33.3,32.5,28.50,East,91,0.0,0.0,97,0.12,,---,0.16,VWS V14.01,2013-02-25 18:13:00,
2013-02-25 13:14:00,33.3,32.5,28.50,East,91,0.0,0.0,97,0.12,,---,0.16,VWS V14.01,2013-02-25 18:14:00,
2013-02-25 13:15:00,33.3,32.5,28.50,East,91,0.0,0.0,97,0.12,,---,0.16,VWS V14.01,2013-02-25 18:15:00,
2013-02-25 13:16:00,33.3,32.5,28.50,East,91,0.0,0.0,97,0.12,,---,0.16,VWS V14.01,2013-02-25 18:16:00,
2013-02-25 13:17:00,33.3,32.5,28.50,East,91,0.0,0.0,97,0.12,,---,0.16,VWS V14.01,2013-02-25 18:17:00,
2013-02-25 13:18:00,33.4,32.7,28.50,East,91,0.0,0.0,97,0.12,,---,0.16,VWS V14.01,2013-02-25 18:18:00,
2013-02-25 13:19:00,45.5,8.9,29.03,East,100,6.7,11.6,22,0.00,,---,0.00,VWS V14.01,2013-02-25 18:19:00,
2013-02-25 13:20:00,33.4,32.7,28.50,East,91,0.0,0.0,97,0.08,,---,0.16,VWS V14.01,2013-02-25 18:20:00,
2013-02-25 13:21:00,33.6,32.9,28.47,East,91,0.0,0.0,97,0.08,,---,0.16,VWS V14.01,2013-02-25 18:21:00,
2013-02-25 13:22:00,33.6,32.9,28.47,East,91,0.0,0.0,97,0.08,,---,0.16,VWS V14.01,2013-02-25 18:22:00,
2013-02-25 13:23:00,33.6,32.9,28.47,East,91,0.0,0.0,97,0.08,,---,0.16,VWS V14.01,2013-02-25 18:23:00,
2013-02-25 13:24:00,33.6,32.9,28.47,East,91,0.0,0.0,97,0.08,,---,0.16,VWS V14.01,2013-02-25 18:24:00,
2013-02-25 13:25:00,33.6,32.9,28.47,East,91,0.0,0.0,97,0.08,,---,0.16,VWS V14.01,2013-02-25 18:25:00,
2013-02-25 13:26:00,33.6,32.9,28.47,East,91,0.0,0.0,97,0.08,,---,0.16,VWS V14.01,2013-02-25 18:26:00,
2013-02-25 13:27:00,33.6,32.9,28.47,East,91,0.0,0.0,97,0.08,,---,0.16,VWS V14.01,2013-02-25 18:27:00,
2013-02-25 13:28:00,33.6,32.9,28.47,East,91,0.0,0.0,97,0.08,,---,0.16,VWS V14.01,2013-02-25 18:28:00,
2013-02-25 13:29:00,44.4,8.0,29.03,SE,130,6.3,9.2,22,0.00,,---,0.00,VWS V14.01,2013-02-25 18:29:00,
2013-02-25 13:30:00,33.6,32.9,28.47,East,91,0.0,0.0,97,0.08,,---,0.16,VWS V14.01,2013-02-25 18:30:00,
2013-02-25 13:31:00,33.6,32.9,28.47,East,91,0.0,0.0,97,0.08,,---,0.16,VWS V14.01,2013-02-25 18:31:00,
2013-02-25 13:32:00,33.6,32.9,28.47,East,91,0.0,0.0,97,0.08,,---,0.16,VWS V14.01,2013-02-25 18:32:00,
2013-02-25 13:33:00,33.6,32.9,28.47,East,91,0.0,0.0,97,0.08,,---,0.16,VWS V14.01,2013-02-25 18:33:00,
2013-02-25 13:34:00,44.8,8.3,29.03,ESE,123,11.0,11.0,22,0.00,,---,0.00,VWS V14.01,2013-02-25 18:34:00,
2013-02-25 13:35:00,33.6,32.9,28.47,East,91,0.0,0.0,97,0.08,,---,0.16,VWS V14.01,2013-02-25 18:35:00,
2013-02-25 13:36:00,33.6,32.9,28.47,East,91,0.0,0.0,97,0.08,,---,0.16,VWS V14.01,2013-02-25 18:36:00,
2013-02-25 13:37:00,33.6,32.9,28.47,East,91,0.0,0.0,97,0.04,,---,0.16,VWS V14.01,2013-02-25 18:37:00,
2013-02-25 13:38:00,33.6,32.9,28.47,East,91,0.0,0.0,97,0.04,,---,0.16,VWS V14.01,2013-02-25 18:38:00,
2013-02-25 13:39:00,45.0,8.4,29.03,SE,137,9.6,9.6,22,0.00,,---,0.00,VWS V14.01,2013-02-25 18:39:00,
2013-02-25 13:40:00,33.6,32.9,28.47,East,91,0.0,0.0,97,0.04,,---,0.16,VWS V14.01,2013-02-25 18:40:00,
2013-02-25 13:41:00,33.6,32.9,28.47,East,91,0.0,0.0,97,0.04,,---,0.16,VWS V14.01,2013-02-25 18:41:00,
2013-02-25 13:42:00,33.6,32.9,28.47,East,91,0.0,0.0,97,0.04,,---,0.16,VWS V14.01,2013-02-25 18:42:00,
2013-02-25 13:43:00,33.6,32.9,28.47,East,91,0.0,0.0,97,0.04,,---,0.16,VWS V14.01,2013-02-25 18:43:00,
2013-02-25 13:44:00,44.8,8.3,29.03,East,88,2.7,7.4,22,0.00,,---,0.00,VWS V14.01,2013-02-25 18:44:00,
2013-02-25 13:45:00,33.6,32.9,28.47,East,91,0.0,0.0,97,0.04,,---,0.16,VWS V14.01,2013-02-25 18:45:00,
2013-02-25 13:46:00,33.6,32.9,28.47,East,91,0.0,0.0,97,0.04,,---,0.16,VWS V14.01,2013-02-25 18:46:00,
2013-02-25 13:47:00,33.6,32.9,28.47,East,91,0.0,0.0,97,0.04,,---,0.16,VWS V14.01,2013-02-25 18:47:00,
2013-02-25 13:48:00,33.6,32.9,28.47,East,91,0.0,0.0,97,0.04,,---,0.16,VWS V14.01,2013-02-25 18:48:00,
2013-02-25 13:49:00,45.7,9.0,29.03,ESE,103,10.5,12.5,22,0.00,,---,0.00,VWS V14.01,2013-02-25 18:49:00,
2013-02-25 13:50:00,33.6,32.9,28.47,East,91,0.0,0.0,97,0.04,,---,0.16,VWS V14.01,2013-02-25 18:50:00,
2013-02-25 13:51:00,33.6,32.9,28.44,East,91,0.0,0.0,97,0.04,,---,0.16,VWS V14.01,2013-02-25 18:51:00,
2013-02-25 13:52:00,33.6,32.9,28.44,East,91,0.0,0.0,97,0.04,,---,0.16,VWS V14.01,2013-02-25 18:52:00,
2013-02-25 13:54:00,45.0,8.4,29.03,ESE,104,4.5,8.3,22,0.00,,---,0.00,VWS V14.01,2013-02-25 18:54:00,
2013-02-25 13:55:00,33.8,33.0,28.44,East,91,0.0,0.0,97,0.04,,---,0.16,VWS V14.01,2013-02-25 18:55:00,
2013-02-25 13:56:00,33.8,33.0,28.44,East,91,0.0,0.0,97,0.04,,---,0.16,VWS V14.01,2013-02-25 18:56:00,
2013-02-25 13:57:00,33.8,33.0,28.44,East,91,0.0,0.0,97,0.04,,---,0.16,VWS V14.01,2013-02-25 18:57:00,
2013-02-25 13:58:00,33.8,33.0,28.44,East,91,0.0,0.0,97,0.04,,---,0.16,VWS V14.01,2013-02-25 18:58:00,
2013-02-25 13:59:00,45.5,8.9,29.03,ESE,117,5.4,9.2,22,0.00,,---,0.00,VWS V14.01,2013-02-25 18:59:00,
2013-02-25 14:00:00,33.8,33.0,28.44,East,91,0.0,0.0,97,0.04,,---,0.16,VWS V14.01,2013-02-25 19:00:00,
2013-02-25 14:02:00,33.8,33.0,28.44,East,91,0.0,0.0,97,0.04,,---,0.16,VWS V14.01,2013-02-25 19:02:00,
2013-02-25 14:03:00,33.8,33.0,28.44,East,91,0.0,0.0,97,0.04,,---,0.16,VWS V14.01,2013-02-25 19:03:00,
2013-02-25 14:04:00,46.2,9.5,29.03,ESE,122,8.7,8.7,22,0.00,,---,0.00,VWS V14.01,2013-02-25 19:04:00,
2013-02-25 14:05:00,33.8,33.0,28.44,East,91,0.0,0.0,97,0.04,,---,0.16,VWS V14.01,2013-02-25 19:05:00,
2013-02-25 14:06:00,33.8,33.0,28.44,East,91,0.0,0.0,97,0.00,,---,0.16,VWS V14.01,2013-02-25 19:06:00,
2013-02-25 14:07:00,33.8,33.0,28.44,East,91,0.0,0.0,97,0.00,,---,0.16,VWS V14.01,2013-02-25 19:07:00,
2013-02-25 14:08:00,33.8,33.0,28.44,East,91,0.0,0.0,97,0.00,,---,0.16,VWS V14.01,2013-02-25 19:08:00,
2013-02-25 14:09:00,46.2,9.5,29.03,East,101,7.8,8.7,22,0.00,,---,0.00,VWS V14.01,2013-02-25 19:09:00,
2013-02-25 14:10:00,33.8,33.0,28.44,East,91,0.0,0.0,97,0.00,,---,0.16,VWS V14.01,2013-02-25 19:10:00,
2013-02-25 14:11:00,33.8,33.0,28.44,East,91,0.0,0.0,97,0.00,,---,0.16,VWS V14.01,2013-02-25 19:11:00,
2013-02-25 14:12:00,33.8,33.0,28.44,East,91,0.0,0.0,97,0.00,,---,0.16,VWS V14.01,2013-02-25 19:12:00,
2013-02-25 14:13:00,33.8,33.0,28.44,East,91,0.0,0.0,97,0.00,,---,0.16,VWS V14.01,2013-02-25 19:13:00,
2013-02-25 14:14:00,33.8,33.0,28.44,East,91,0.0,0.0,97,0.00,,---,0.16,VWS V14.01,2013-02-25 19:14:00,
2013-02-25 14:15:00,46.0,9.3,29.03,ESE,107,6.7,10.1,22,0.00,,---,0.00,VWS V14.01,2013-02-25 19:15:00,
2013-02-25 14:16:00,33.8,33.0,28.44,East,91,0.0,0.0,97,0.00,,---,0.16,VWS V14.01,2013-02-25 19:16:00,
2013-02-25 14:17:00,33.8,33.0,28.44,East,91,0.0,0.0,97,0.00,,---,0.16,VWS V14.01,2013-02-25 19:17:00,
2013-02-25 14:18:00,33.8,33.0,28.44,East,91,0.0,0.0,97,0.00,,---,0.16,VWS V14.01,2013-02-25 19:18:00,
2013-02-25 14:19:00,33.8,33.0,28.44,East,91,0.0,0.0,97,0.00,,---,0.16,VWS V14.01,2013-02-25 19:19:00,
2013-02-25 14:20:00,45.7,9.0,29.03,East,92,7.4,9.2,22,0.00,,---,0.00,VWS V14.01,2013-02-25 19:20:00,
2013-02-25 14:21:00,33.8,33.0,28.44,East,91,0.0,0.0,97,0.00,,---,0.16,VWS V14.01,2013-02-25 19:21:00,
2013-02-25 14:22:00,33.8,33.0,28.44,East,91,0.0,0.0,97,0.00,,---,0.16,VWS V14.01,2013-02-25 19:22:00,
2013-02-25 14:23:00,33.8,33.0,28.44,East,91,0.0,0.0,97,0.00,,---,0.16,VWS V14.01,2013-02-25 19:23:00,
2013-02-25 14:24:00,33.8,33.0,28.44,East,91,0.0,0.0,97,0.00,,---,0.16,VWS V14.01,2013-02-25 19:24:00,
2013-02-25 14:25:00,46.0,9.3,29.03,East,99,8.3,10.1,22,0.00,,---,0.00,VWS V14.01,2013-02-25 19:25:00,
2013-02-25 14:26:00,33.8,33.0,28.44,East,91,0.0,0.0,97,0.00,,---,0.16,VWS V14.01,2013-02-25 19:26:00,
2013-02-25 14:27:00,34.0,33.2,28.44,East,91,0.0,0.0,97,0.00,,---,0.16,VWS V14.01,2013-02-25 19:27:00,
2013-02-25 14:28:00,33.8,33.0,28.44,East,91,0.0,0.0,97,0.00,,---,0.16,VWS V14.01,2013-02-25 19:28:00,
2013-02-25 14:29:00,34.0,33.2,28.44,East,91,0.0,0.0,97,0.00,,---,0.16,VWS V14.01,2013-02-25 19:29:00,
2013-02-25 14:30:00,46.8,9.9,29.03,ESE,104,6.9,8.7,22,0.00,,---,0.00,VWS V14.01,2013-02-25 19:30:00,
2013-02-25 14:33:00,34.0,33.2,28.44,East,92,0.0,0.0,97,0.00,,---,0.16,VWS V14.01,2013-02-25 19:33:00,
2013-02-25 14:34:00,34.0,33.2,28.44,East,91,0.0,0.0,97,0.00,,---,0.16,VWS V14.01,2013-02-25 19:34:00,
2013-02-25 14:35:00,34.0,33.2,28.44,East,92,0.0,0.0,97,0.00,,---,0.16,VWS V14.01,2013-02-25 19:35:00,
2013-02-25 14:36:00,46.6,9.8,29.03,ENE,67,6.3,8.3,22,0.00,,---,0.00,VWS V14.01,2013-02-25 19:36:00,
2013-02-25 14:37:00,34.0,33.2,28.41,ESE,102,0.0,0.0,97,0.00,,---,0.16,VWS V14.01,2013-02-25 19:37:00,
2013-02-25 14:38:00,34.0,33.2,28.41,East,99,0.0,0.0,97,0.00,,---,0.16,VWS V14.01,2013-02-25 19:38:00,
2013-02-25 14:39:00,34.0,33.2,28.41,East,89,0.0,0.0,97,0.00,,---,0.16,VWS V14.01,2013-02-25 19:39:00,
2013-02-25 14:40:00,34.0,33.2,28.41,East,82,0.0,0.0,97,0.00,,---,0.16,VWS V14.01,2013-02-25 19:40:00,
2013-02-25 14:41:00,34.0,33.2,28.41,ENE,68,0.0,0.0,97,0.00,,---,0.16,VWS V14.01,2013-02-25 19:41:00,
2013-02-25 14:42:00,34.0,33.2,28.41,ENE,70,0.0,0.0,97,0.00,,---,0.16,VWS V14.01,2013-02-25 19:42:00,
2013-02-25 14:43:00,34.0,33.2,28.41,East,84,0.0,0.0,97,0.00,,---,0.16,VWS V14.01,2013-02-25 19:43:00,
2013-02-25 14:44:00,34.0,33.2,28.41,East,84,0.0,0.0,97,0.00,,---,0.16,VWS V14.01,2013-02-25 19:44:00,
2013-02-25 14:45:00,34.0,33.2,28.41,ENE,68,0.0,0.0,97,0.00,,---,0.16,VWS V14.01,2013-02-25 19:45:00,
2013-02-25 14:46:00,34.0,33.2,28.41,East,85,0.0,0.0,97,0.00,,---,0.16,VWS V14.01,2013-02-25 19:46:00,
2013-02-25 14:47:00,46.8,9.9,29.00,SE,127,8.7,8.7,22,0.00,,---,0.00,VWS V14.01,2013-02-25 19:47:00,
2013-02-25 14:48:00,34.0,33.2,28.41,East,90,0.0,0.0,97,0.00,,---,0.16,VWS V14.01,2013-02-25 19:48:00,
2013-02-25 14:49:00,34.0,33.2,28.41,ENE,60,0.0,0.0,97,0.00,,---,0.16,VWS V14.01,2013-02-25 19:49:00,
2013-02-25 14:50:00,34.2,33.4,28.41,East,88,0.0,0.0,97,0.00,,---,0.16,VWS V14.01,2013-02-25 19:50:00,
2013-02-25 14:51:00,34.2,33.4,28.41,East,79,0.0,0.0,97,0.00,,---,0.16,VWS V14.01,2013-02-25 19:51:00,
2013-02-25 14:52:00,34.0,33.2,28.41,East,87,0.0,0.0,97,0.00,,---,0.16,VWS V14.01,2013-02-25 19:52:00,
2013-02-25 14:53:00,34.2,33.4,28.41,NE,48,0.0,0.0,97,0.00,,---,0.16,VWS V14.01,2013-02-25 19:53:00,
2013-02-25 14:54:00,46.8,9.9,29.00,ESE,109,4.9,6.3,22,0.00,,---,0.00,VWS V14.01,2013-02-25 19:54:00,
2013-02-25 14:55:00,34.2,33.4,28.41,ENE,58,0.0,0.0,97,0.00,,---,0.16,VWS V14.01,2013-02-25 19:55:00,
2013-02-25 14:56:00,34.2,33.4,28.41,ESE,106,0.0,0.0,97,0.00,,---,0.16,VWS V14.01,2013-02-25 19:56:00,
2013-02-25 14:57:00,34.2,33.4,28.41,ENE,77,0.0,0.0,97,0.00,,---,0.16,VWS V14.01,2013-02-25 19:57:00,
2013-02-25 14:58:00,34.2,33.4,28.41,East,98,0.0,0.0,97,0.00,,---,0.16,VWS V14.01,2013-02-25 19:58:00,
2013-02-25 14:59:00,46.9,10.1,29.00,East,87,6.3,9.6,22,0.00,,---,0.00,VWS V14.01,2013-02-25 19:59:00,
2013-02-25 15:00:00,34.2,33.4,28.41,ENE,76,0.0,0.0,97,0.00,,---,0.16,VWS V14.01,2013-02-25 20:00:00,
2013-02-25 15:01:00,34.2,33.4,28.41,ENE,63,0.0,0.0,97,0.00,,---,0.16,VWS V14.01,2013-02-25 20:01:00,
2013-02-25 15:02:00,34.2,33.4,28.41,East,80,0.0,0.0,97,0.00,,---,0.16,VWS V14.01,2013-02-25 20:02:00,
2013-02-25 15:03:00,34.2,33.4,28.41,East,82,0.0,0.0,97,0.00,,---,0.16,VWS V14.01,2013-02-25 20:03:00,
2013-02-25 15:04:00,34.2,33.4,28.41,East,89,0.0,0.0,97,0.00,,---,0.16,VWS V14.01,2013-02-25 20:04:00,
2013-02-25 15:05:00,34.2,33.4,28.41,East,89,0.0,0.0,97,0.00,,---,0.16,VWS V14.01,2013-02-25 20:05:00,
2013-02-25 15:06:00,34.2,33.4,28.41,ENE,76,0.0,0.0,97,0.00,,---,0.16,VWS V14.01,2013-02-25 20:06:00,
2013-02-25 15:07:00,46.2,9.5,29.00,East,97,8.3,11.2,22,0.00,,---,0.00,VWS V14.01,2013-02-25 20:07:00,
2013-02-25 15:08:00,34.2,33.4,28.41,East,97,0.0,0.0,97,0.00,,---,0.16,VWS V14.01,2013-02-25 20:08:00,
2013-02-25 15:09:00,34.2,33.4,28.41,East,88,0.0,0.0,97,0.00,,---,0.16,VWS V14.01,2013-02-25 20:09:00,
2013-02-25 15:10:00,34.2,33.4,28.41,ENE,60,0.0,0.0,97,0.00,,---,0.16,VWS V14.01,2013-02-25 20:10:00,
2013-02-25 15:11:00,34.2,33.4,28.41,East,84,0.0,0.0,97,0.00,,---,0.16,VWS V14.01,2013-02-25 20:11:00,
2013-02-25 15:12:00,34.2,33.4,28.41,ESE,115,0.0,0.0,97,0.00,,---,0.16,VWS V14.01,2013-02-25 20:12:00,
2013-02-25 15:13:00,46.2,9.5,29.00,East,98,9.6,9.6,22,0.00,,---,0.00,VWS V14.01,2013-02-25 20:13:00,
2013-02-25 15:14:00,34.3,33.6,28.41,ENE,57,0.0,0.0,97,0.00,,---,0.16,VWS V14.01,2013-02-25 20:14:00,
2013-02-25 15:15:00,34.3,33.6,28.41,ENE,76,0.0,0.0,97,0.00,,---,0.16,VWS V14.01,2013-02-25 20:15:00,
2013-02-25 15:16:00,34.3,33.6,28.41,NE,52,0.0,0.0,97,0.00,,---,0.16,VWS V14.01,2013-02-25 20:16:00,
2013-02-25 15:17:00,34.3,33.6,28.41,ENE,63,0.0,0.0,97,0.00,,---,0.16,VWS V14.01,2013-02-25 20:17:00,
2013-02-25 15:18:00,34.3,33.6,28.41,ENE,75,0.0,0.0,97,0.00,,---,0.16,VWS V14.01,2013-02-25 20:18:00,
2013-02-25 15:19:00,47.1,10.2,29.00,East,95,6.3,9.2,22,0.00,,---,0.00,VWS V14.01,2013-02-25 20:19:00,
2013-02-25 15:20:00,34.3,33.6,28.41,ENE,73,0.0,0.0,97,0.00,,---,0.16,VWS V14.01,2013-02-25 20:20:00,
2013-02-25 15:21:00,34.3,33.6,28.38,ENE,78,0.0,0.0,97,0.00,,---,0.16,VWS V14.01,2013-02-25 20:21:00,
2013-02-25 15:22:00,34.3,33.6,28.38,ENE,78,0.0,0.0,97,0.00,,---,0.16,VWS V14.01,2013-02-25 20:22:00,
2013-02-25 15:23:00,34.3,33.6,28.38,ESE,108,0.0,0.0,97,0.00,,---,0.16,VWS V14.01,2013-02-25 20:23:00,
2013-02-25 15:24:00,34.3,33.6,28.38,ESE,106,0.0,0.0,97,0.00,,---,0.16,VWS V14.01,2013-02-25 20:24:00,
2013-02-25 15:25:00,34.5,33.8,28.38,East,89,0.0,0.0,97,0.00,,---,0.16,VWS V14.01,2013-02-25 20:25:00,
2013-02-25 15:26:00,34.5,33.8,28.38,East,99,0.0,0.0,97,0.00,,---,0.16,VWS V14.01,2013-02-25 20:26:00,
2013-02-25 15:27:00,34.5,33.8,28.38,ENE,61,0.0,0.0,97,0.00,,---,0.16,VWS V14.01,2013-02-25 20:27:00,
2013-02-25 15:28:00,34.5,33.8,28.38,East,85,0.0,0.0,97,0.00,,---,0.16,VWS V14.01,2013-02-25 20:28:00,
2013-02-25 15:29:00,46.9,10.1,29.00,East,97,10.1,11.2,22,0.00,,---,0.00,VWS V14.01,2013-02-25 20:29:00,
2013-02-25 15:30:00,34.5,33.8,28.38,East,98,0.0,0.0,97,0.00,,---,0.16,VWS V14.01,2013-02-25 20:30:00,
2013-02-25 15:31:00,34.5,33.8,28.38,ENE,57,0.0,0.0,97,0.00,,---,0.16,VWS V14.01,2013-02-25 20:31:00,
2013-02-25 15:32:00,34.5,33.8,28.38,East,90,0.0,0.0,97,0.00,,---,0.16,VWS V14.01,2013-02-25 20:32:00,
2013-02-25 15:33:00,34.5,33.8,28.38,ENE,73,0.0,0.0,97,0.00,,---,0.16,VWS V14.01,2013-02-25 20:33:00,
2013-02-25 15:34:00,46.0,9.3,29.00,SE,133,6.9,7.4,22,0.00,,---,0.00,VWS V14.01,2013-02-25 20:34:00,
2013-02-25 15:35:00,34.5,33.8,28.38,ENE,70,0.0,0.0,97,0.00,,---,0.16,VWS V14.01,2013-02-25 20:35:00,
2013-02-25 15:36:00,34.5,33.8,28.38,East,79,0.0,0.0,97,0.00,,---,0.16,VWS V14.01,2013-02-25 20:36:00,
2013-02-25 15:37:00,34.7,33.9,28.38,ENE,67,0.0,0.0,97,0.00,,---,0.16,VWS V14.01,2013-02-25 20:37:00,
2013-02-25 15:38:00,34.7,33.9,28.38,ENE,67,0.0,0.0,97,0.00,,---,0.16,VWS V14.01,2013-02-25 20:38:00,
2013-02-25 15:39:00,46.4,9.6,29.00,ESE,104,4.5,7.4,22,0.00,,---,0.00,VWS V14.01,2013-02-25 20:39:00,
2013-02-25 15:40:00,34.7,33.9,28.38,ENE,69,0.0,0.0,97,0.00,,---,0.16,VWS V14.01,2013-02-25 20:40:00,
2013-02-25 15:41:00,34.7,33.9,28.38,East,79,0.0,0.0,97,0.00,,---,0.16,VWS V14.01,2013-02-25 20:41:00,
2013-02-25 15:42:00,34.7,33.9,28.38,East,95,0.0,0.0,97,0.00,,---,0.16,VWS V14.01,2013-02-25 20:42:00,
2013-02-25 15:43:00,34.9,34.1,28.38,ENE,74,0.0,0.0,97,0.00,,---,0.16,VWS V14.01,2013-02-25 20:43:00,
2013-02-25 15:44:00,46.2,9.5,29.00,East,94,7.8,8.7,22,0.00,,---,0.00,VWS V14.01,2013-02-25 20:44:00,
2013-02-25 15:45:00,34.9,34.1,28.38,ENE,72,0.0,0.0,97,0.00,,---,0.16,VWS V14.01,2013-02-25 20:45:00,
2013-02-25 15:46:00,34.9,34.1,28.38,East,97,0.0,0.0,97,0.00,,---,0.16,VWS V14.01,2013-02-25 20:46:00,
2013-02-25 15:47:00,34.9,34.1,28.38,ENE,71,0.0,0.0,97,0.00,,---,0.16,VWS V14.01,2013-02-25 20:47:00,
2013-02-25 15:48:00,34.9,34.1,28.38,ENE,76,0.0,0.0,97,0.00,,---,0.16,VWS V14.01,2013-02-25 20:48:00,
2013-02-25 15:49:00,46.0,9.3,29.00,ENE,77,5.8,7.4,22,0.00,,---,0.00,VWS V14.01,2013-02-25 20:49:00,
2013-02-25 15:50:00,35.1,34.3,28.38,ENE,61,0.0,0.0,97,0.00,,---,0.16,VWS V14.01,2013-02-25 20:50:00,
2013-02-25 15:51:00,35.1,34.3,28.38,East,79,0.0,0.0,97,0.00,,---,0.16,VWS V14.01,2013-02-25 20:51:00,
2013-02-25 15:52:00,35.1,34.3,28.38,ENE,70,0.0,0.0,97,0.00,,---,0.16,VWS V14.01,2013-02-25 20:52:00,
2013-02-25 15:53:00,35.1,34.3,28.38,ENE,67,0.0,0.0,97,0.00,,---,0.16,VWS V14.01,2013-02-25 20:53:00,
2013-02-25 15:54:00,46.2,9.5,29.00,East,98,4.0,7.8,22,0.00,,---,0.00,VWS V14.01,2013-02-25 20:54:00,
2013-02-25 15:55:00,35.2,34.5,28.38,East,92,0.0,0.0,97,0.00,,---,0.16,VWS V14.01,2013-02-25 20:55:00,
2013-02-25 15:56:00,35.2,34.5,28.38,East,84,0.0,0.0,97,0.00,,---,0.16,VWS V14.01,2013-02-25 20:56:00,
2013-02-25 15:57:00,35.4,34.7,28.38,ENE,68,0.0,0.0,97,0.00,,---,0.16,VWS V14.01,2013-02-25 20:57:00,
2013-02-25 15:58:00,35.4,34.7,28.38,ENE,69,0.0,0.0,97,0.00,,---,0.16,VWS V14.01,2013-02-25 20:58:00,
2013-02-25 15:59:00,46.0,9.3,28.97,East,100,9.6,10.1,22,0.00,,---,0.00,VWS V14.01,2013-02-25 20:59:00,
2013-02-25 16:00:00,35.6,34.8,28.38,ENE,72,0.0,0.0,97,0.00,,---,0.16,VWS V14.01,2013-02-25 21:00:00,
2013-02-25 16:01:00,35.8,35.0,28.38,East,97,0.0,0.0,97,0.00,,---,0.16,VWS V14.01,2013-02-25 21:01:00,
2013-02-25 16:02:00,35.8,35.0,28.38,ENE,71,0.0,0.0,97,0.00,,---,0.16,VWS V14.01,2013-02-25 21:02:00,
2013-02-25 16:04:00,45.0,8.4,28.97,ESE,113,7.4,10.5,22,0.00,,---,0.00,VWS V14.01,2013-02-25 21:04:00,
2013-02-25 16:07:00,36.1,35.4,28.38,ENE,69,0.0,0.0,97,0.00,,---,0.16,VWS V14.01,2013-02-25 21:07:00,
2013-02-25 16:08:00,36.1,35.4,28.38,East,98,0.0,0.0,97,0.00,,---,0.16,VWS V14.01,2013-02-25 21:08:00,
2013-02-25 16:09:00,36.1,35.4,28.38,ENE,63,0.0,6.9,97,0.00,,---,0.16,VWS V14.01,2013-02-25 21:09:00,
2013-02-25 16:10:00,45.1,11.4,28.97,ESE,108,8.3,8.3,25,0.00,,---,0.00,VWS V14.01,2013-02-25 21:10:00,
2013-02-25 16:11:00,36.1,35.4,28.38,East,95,4.0,6.7,97,0.00,,---,0.16,VWS V14.01,2013-02-25 21:11:00,
2013-02-25 16:12:00,36.1,35.4,28.38,ENE,72,4.5,5.8,97,0.00,,---,0.16,VWS V14.01,2013-02-25 21:12:00,
2013-02-25 16:13:00,36.3,35.5,28.38,ENE,70,4.0,7.8,97,0.00,,---,0.16,VWS V14.01,2013-02-25 21:13:00,
2013-02-25 16:14:00,36.1,35.4,28.38,ENE,71,9.2,9.2,97,0.00,,---,0.16,VWS V14.01,2013-02-25 21:14:00,
2013-02-25 16:15:00,36.1,35.4,28.38,ENE,75,4.0,9.2,97,0.00,,---,0.16,VWS V14.01,2013-02-25 21:15:00,
2013-02-25 16:16:00,45.0,11.3,28.97,ENE,74,7.8,9.2,25,0.00,,---,0.00,VWS V14.01,2013-02-25 21:16:00,
2013-02-25 16:17:00,36.1,35.4,28.38,East,81,5.8,9.6,97,0.00,,---,0.16,VWS V14.01,2013-02-25 21:17:00,
2013-02-25 16:18:00,36.1,35.4,28.38,ENE,78,7.4,8.3,97,0.00,,---,0.16,VWS V14.01,2013-02-25 21:18:00,
2013-02-25 16:19:00,36.1,35.4,28.38,East,80,5.8,7.4,97,0.00,,---,0.16,VWS V14.01,2013-02-25 21:19:00,
2013-02-25 16:20:00,36.1,35.4,28.38,ENE,65,6.3,8.3,97,0.00,,---,0.16,VWS V14.01,2013-02-25 21:20:00,
2013-02-25 16:21:00,36.1,35.4,28.38,East,79,5.4,6.7,97,0.00,,---,0.16,VWS V14.01,2013-02-25 21:21:00,
2013-02-25 16:22:00,44.8,11.1,28.97,ESE,108,6.9,9.2,25,0.00,,---,0.00,VWS V14.01,2013-02-25 21:22:00,
2013-02-25 16:23:00,36.1,35.4,28.38,East,84,6.7,8.7,97,0.00,,---,0.16,VWS V14.01,2013-02-25 21:23:00,
2013-02-25 16:24:00,36.1,35.4,28.38,ENE,69,6.9,7.8,97,0.00,,---,0.16,VWS V14.01,2013-02-25 21:24:00,
2013-02-25 16:25:00,36.1,35.4,28.38,ENE,72,6.9,8.3,97,0.00,,---,0.16,VWS V14.01,2013-02-25 21:25:00,
2013-02-25 16:26:00,36.1,35.4,28.38,ENE,66,7.4,10.1,97,0.00,,---,0.16,VWS V14.01,2013-02-25 21:26:00,
2013-02-25 16:27:00,36.1,35.4,28.38,East,84,5.8,10.5,97,0.00,,---,0.16,VWS V14.01,2013-02-25 21:27:00,
2013-02-25 16:28:00,44.8,12.9,28.97,ESE,121,6.9,8.7,27,0.00,,---,0.00,VWS V14.01,2013-02-25 21:28:00,
2013-02-25 16:29:00,36.1,35.4,28.38,ESE,103,8.7,8.7,97,0.00,,---,0.16,VWS V14.01,2013-02-25 21:29:00,
2013-02-25 16:30:00,36.1,35.4,28.38,ENE,64,7.8,8.7,97,0.00,,---,0.16,VWS V14.01,2013-02-25 21:30:00,
2013-02-25 16:31:00,36.1,35.4,28.38,ENE,77,8.7,9.2,97,0.00,,---,0.16,VWS V14.01,2013-02-25 21:31:00,
2013-02-25 16:32:00,36.1,35.4,28.38,ENE,71,5.4,8.7,97,0.00,,---,0.16,VWS V14.01,2013-02-25 21:32:00,
2013-02-25 16:33:00,44.6,12.7,28.97,East,81,5.8,11.2,27,0.00,,---,0.00,VWS V14.01,2013-02-25 21:33:00,
2013-02-25 16:34:00,36.1,35.4,28.38,ENE,67,6.7,8.3,97,0.00,,---,0.16,VWS V14.01,2013-02-25 21:34:00,
2013-02-25 16:35:00,36.1,35.4,28.38,East,87,6.9,8.3,97,0.00,,---,0.16,VWS V14.01,2013-02-25 21:35:00,
2013-02-25 16:36:00,36.1,35.4,28.38,East,89,5.4,8.3,97,0.00,,---,0.16,VWS V14.01,2013-02-25 21:36:00,
2013-02-25 16:37:00,36.1,35.4,28.38,East,82,5.4,6.3,97,0.00,,---,0.16,VWS V14.01,2013-02-25 21:37:00,
2013-02-25 16:38:00,36.1,35.4,28.38,ESE,115,5.4,6.9,97,0.00,,---,0.16,VWS V14.01,2013-02-25 21:38:00,
2013-02-25 16:39:00,44.8,13.7,28.97,East,101,11.0,11.0,28,0.00,,---,0.00,VWS V14.01,2013-02-25 21:39:00,
2013-02-25 16:40:00,36.1,35.4,28.38,East,92,4.5,6.7,97,0.00,,---,0.16,VWS V14.01,2013-02-25 21:40:00,
2013-02-25 16:41:00,36.3,35.5,28.38,ESE,102,6.7,9.2,97,0.00,,---,0.16,VWS V14.01,2013-02-25 21:41:00,
2013-02-25 16:42:00,36.3,35.5,28.38,ENE,76,6.3,7.4,97,0.04,,---,0.20,VWS V14.01,2013-02-25 21:42:00,
2013-02-25 16:43:00,36.3,35.5,28.38,ENE,60,6.7,7.4,97,0.04,,---,0.20,VWS V14.01,2013-02-25 21:43:00,
2013-02-25 16:44:00,44.2,13.2,28.97,East,93,6.3,7.8,28,0.00,,---,0.00,VWS V14.01,2013-02-25 21:44:00,
2013-02-25 16:45:00,36.3,35.5,28.38,ENE,66,7.8,9.2,97,0.04,,---,0.20,VWS V14.01,2013-02-25 21:45:00,
2013-02-25 16:46:00,36.3,35.5,28.38,ENE,72,6.7,8.7,97,0.04,,---,0.20,VWS V14.01,2013-02-25 21:46:00,
2013-02-25 16:47:00,36.3,35.5,28.38,ENE,74,6.9,7.8,97,0.04,,---,0.20,VWS V14.01,2013-02-25 21:47:00,
2013-02-25 16:48:00,36.3,35.5,28.38,ENE,67,7.8,8.7,97,0.04,,---,0.20,VWS V14.01,2013-02-25 21:48:00,
2013-02-25 16:49:00,44.4,13.4,28.97,East,97,6.9,10.1,28,0.00,,---,0.00,VWS V14.01,2013-02-25 21:49:00,
2013-02-25 16:50:00,36.3,35.5,28.38,East,81,7.4,8.3,97,0.04,,---,0.20,VWS V14.01,2013-02-25 21:50:00,
2013-02-25 16:51:00,36.3,35.5,28.38,East,83,6.3,7.4,97,0.04,,---,0.20,VWS V14.01,2013-02-25 21:51:00,
2013-02-25 16:52:00,36.3,35.5,28.38,NE,53,8.7,9.2,97,0.04,,---,0.20,VWS V14.01,2013-02-25 21:52:00,
2013-02-25 16:53:00,36.3,35.5,28.38,East,87,6.9,8.7,97,0.04,,---,0.20,VWS V14.01,2013-02-25 21:53:00,
2013-02-25 16:54:00,44.4,13.4,28.97,East,94,7.4,9.6,28,0.00,,---,0.00,VWS V14.01,2013-02-25 21:54:00,
2013-02-25 16:55:00,36.3,35.5,28.38,ESE,110,4.9,9.6,97,0.04,,---,0.20,VWS V14.01,2013-02-25 21:55:00,
2013-02-25 16:56:00,36.3,35.5,28.38,ENE,65,7.8,11.2,97,0.08,,---,0.24,VWS V14.01,2013-02-25 21:56:00,
2013-02-25 16:57:00,36.3,35.5,28.38,NE,54,5.8,8.7,97,0.08,,---,0.24,VWS V14.01,2013-02-25 21:57:00,
2013-02-25 16:58:00,36.5,35.7,28.38,East,86,6.3,7.8,97,0.08,,---,0.24,VWS V14.01,2013-02-25 21:58:00,
2013-02-25 16:59:00,44.1,13.1,28.97,ESE,121,6.7,10.1,28,0.00,,---,0.00,VWS V14.01,2013-02-25 21:59:00,
2013-02-25 17:00:00,36.5,35.7,28.38,ENE,67,6.7,7.4,97,0.08,,---,0.24,VWS V14.01,2013-02-25 22:00:00,
2013-02-25 17:01:00,36.5,35.7,28.38,East,86,5.4,6.9,97,0.08,,---,0.24,VWS V14.01,2013-02-25 22:01:00,
2013-02-25 17:02:00,36.5,35.7,28.38,East,88,6.3,6.9,97,0.08,,---,0.24,VWS V14.01,2013-02-25 22:02:00,
2013-02-25 17:03:00,36.7,35.9,28.38,NE,56,6.7,8.3,97,0.08,,---,0.24,VWS V14.01,2013-02-25 22:03:00,
2013-02-25 17:04:00,43.7,12.8,28.97,ENE,78,8.3,10.1,28,0.00,,---,0.00,VWS V14.01,2013-02-25 22:04:00,
2013-02-25 17:05:00,36.7,35.9,28.38,ENE,63,4.0,6.7,97,0.08,,---,0.24,VWS V14.01,2013-02-25 22:05:00,
2013-02-25 17:06:00,36.7,35.9,28.38,ENE,75,6.9,6.9,97,0.08,,---,0.24,VWS V14.01,2013-02-25 22:06:00,
2013-02-25 17:07:00,36.9,36.1,28.38,East,101,7.8,9.6,97,0.08,,---,0.24,VWS V14.01,2013-02-25 22:07:00,
2013-02-25 17:08:00,36.9,36.1,28.38,ESE,102,6.3,8.3,97,0.08,,---,0.24,VWS V14.01,2013-02-25 22:08:00,
2013-02-25 17:09:00,36.9,36.1,28.38,ENE,64,6.3,6.3,97,0.08,,---,0.24,VWS V14.01,2013-02-25 22:09:00,
2013-02-25 17:10:00,36.9,36.1,28.38,ENE,68,6.7,7.4,97,0.08,,---,0.24,VWS V14.01,2013-02-25 22:10:00,
2013-02-25 17:11:00,43.5,13.4,28.97,ESE,116,8.7,8.7,29,0.00,,---,0.00,VWS V14.01,2013-02-25 22:11:00,
2013-02-25 17:12:00,36.9,36.1,28.38,ENE,72,4.9,7.8,97,0.08,,---,0.24,VWS V14.01,2013-02-25 22:12:00,
2013-02-25 17:13:00,36.9,36.1,28.38,ENE,72,7.4,8.7,97,0.08,,---,0.24,VWS V14.01,2013-02-25 22:13:00,
2013-02-25 17:14:00,36.9,36.1,28.38,ENE,70,4.9,7.4,97,0.08,,---,0.24,VWS V14.01,2013-02-25 22:14:00,
2013-02-25 17:15:00,36.9,36.1,28.38,East,92,6.9,6.9,97,0.08,,---,0.24,VWS V14.01,2013-02-25 22:15:00,
2013-02-25 17:16:00,43.0,12.9,28.97,ENE,72,8.7,9.2,29,0.00,,---,0.00,VWS V14.01,2013-02-25 22:16:00,
2013-02-25 17:17:00,36.9,36.1,28.38,East,87,7.8,9.2,97,0.08,,---,0.24,VWS V14.01,2013-02-25 22:17:00,
2013-02-25 17:18:00,37.0,36.3,28.38,East,88,6.7,7.8,97,0.08,,---,0.24,VWS V14.01,2013-02-25 22:18:00,
2013-02-25 17:19:00,37.0,36.3,28.38,ESE,112,7.4,7.4,97,0.08,,---,0.24,VWS V14.01,2013-02-25 22:19:00,
2013-02-25 17:20:00,37.0,36.3,28.38,ENE,66,3.1,7.8,97,0.08,,---,0.24,VWS V14.01,2013-02-25 22:20:00,
2013-02-25 17:21:00,42.6,12.6,28.97,ENE,61,8.3,9.2,29,0.00,,---,0.00,VWS V14.01,2013-02-25 22:21:00,
2013-02-25 17:22:00,37.0,36.3,28.38,East,96,4.5,7.8,97,0.08,,---,0.24,VWS V14.01,2013-02-25 22:22:00,
2013-02-25 17:23:00,37.0,36.3,28.38,ENE,70,6.3,6.7,97,0.08,,---,0.24,VWS V14.01,2013-02-25 22:23:00,
2013-02-25 17:24:00,37.0,36.3,28.38,East,82,6.3,6.3,97,0.08,,---,0.24,VWS V14.01,2013-02-25 22:24:00,
2013-02-25 17:25:00,37.0,36.3,28.38,ENE,77,5.4,6.7,97,0.08,,---,0.24,VWS V14.01,2013-02-25 22:25:00,
2013-02-25 17:26:00,37.0,36.3,28.38,ENE,77,7.4,7.4,97,0.08,,---,0.24,VWS V14.01,2013-02-25 22:26:00,
2013-02-25 17:27:00,42.4,12.4,28.97,SE,129,6.3,8.7,29,0.00,,---,0.00,VWS V14.01,2013-02-25 22:27:00,
2013-02-25 17:28:00,37.0,36.3,28.38,ENE,59,6.9,7.8,97,0.08,,---,0.24,VWS V14.01,2013-02-25 22:28:00,
2013-02-25 17:29:00,37.0,36.3,28.38,ENE,63,7.8,8.3,97,0.08,,---,0.24,VWS V14.01,2013-02-25 22:29:00,
2013-02-25 17:30:00,37.0,36.3,28.38,ENE,62,5.8,7.8,97,0.08,,---,0.24,VWS V14.01,2013-02-25 22:30:00,
2013-02-25 17:31:00,37.0,36.3,28.38,East,94,5.8,7.8,97,0.08,,---,0.24,VWS V14.01,2013-02-25 22:31:00,
2013-02-25 17:32:00,37.0,36.3,28.38,East,92,4.0,5.8,97,0.08,,---,0.24,VWS V14.01,2013-02-25 22:32:00,
2013-02-25 17:33:00,37.0,36.3,28.38,ENE,77,5.4,6.3,97,0.08,,---,0.24,VWS V14.01,2013-02-25 22:33:00,
2013-02-25 17:34:00,42.1,12.9,28.97,ESE,106,7.8,7.8,30,0.00,,---,0.00,VWS V14.01,2013-02-25 22:34:00,
2013-02-25 17:35:00,37.0,36.3,28.38,East,87,6.9,8.3,97,0.08,,---,0.24,VWS V14.01,2013-02-25 22:35:00,
2013-02-25 17:36:00,37.0,36.3,28.38,ENE,76,6.3,6.9,97,0.08,,---,0.24,VWS V14.01,2013-02-25 22:36:00,
2013-02-25 17:37:00,37.0,36.3,28.38,ENE,74,7.4,7.4,97,0.08,,---,0.24,VWS V14.01,2013-02-25 22:37:00,
2013-02-25 17:38:00,37.0,36.3,28.38,East,86,6.3,7.4,97,0.08,,---,0.24,VWS V14.01,2013-02-25 22:38:00,
2013-02-25 17:39:00,37.0,36.3,28.38,ENE,66,5.8,6.3,97,0.08,,---,0.24,VWS V14.01,2013-02-25 22:39:00,
2013-02-25 17:40:00,41.7,13.3,28.97,ESE,102,4.5,8.3,31,0.00,,---,0.00,VWS V14.01,2013-02-25 22:40:00,
2013-02-25 17:41:00,37.0,36.3,28.38,East,92,4.0,6.7,97,0.08,,---,0.24,VWS V14.01,2013-02-25 22:41:00,
2013-02-25 17:42:00,37.0,36.3,28.38,NE,53,6.3,7.8,97,0.08,,---,0.24,VWS V14.01,2013-02-25 22:42:00,
2013-02-25 17:43:00,37.0,36.3,28.38,ENE,76,6.3,7.8,97,0.04,,---,0.24,VWS V14.01,2013-02-25 22:43:00,
2013-02-25 17:44:00,37.0,36.3,28.38,ENE,76,6.3,7.4,97,0.04,,---,0.24,VWS V14.01,2013-02-25 22:44:00,
2013-02-25 17:45:00,37.0,36.3,28.38,ENE,77,5.8,6.9,97,0.04,,---,0.24,VWS V14.01,2013-02-25 22:45:00,
2013-02-25 17:46:00,41.4,14.4,28.97,ENE,75,9.6,10.1,33,0.00,,---,0.00,VWS V14.01,2013-02-25 22:46:00,
2013-02-25 17:47:00,37.0,36.3,28.38,NE,50,6.7,6.7,97,0.04,,---,0.24,VWS V14.01,2013-02-25 22:47:00,
2013-02-25 17:48:00,37.0,36.3,28.38,East,100,5.4,6.7,97,0.04,,---,0.24,VWS V14.01,2013-02-25 22:48:00,
2013-02-25 17:49:00,37.0,36.3,28.38,NE,54,5.4,6.3,97,0.04,,---,0.24,VWS V14.01,2013-02-25 22:49:00,
2013-02-25 17:50:00,37.0,36.3,28.38,ENE,60,5.8,5.8,97,0.04,,---,0.24,VWS V14.01,2013-02-25 22:50:00,
2013-02-25 17:51:00,40.5,15.6,28.97,East,83,6.7,6.9,36,0.00,,---,0.00,VWS V14.01,2013-02-25 22:51:00,
2013-02-25 17:52:00,37.0,36.3,28.38,SE,131,6.7,6.9,97,0.04,,---,0.24,VWS V14.01,2013-02-25 22:52:00,
2013-02-25 17:53:00,37.0,36.3,28.38,ENE,64,6.3,6.9,97,0.04,,---,0.24,VWS V14.01,2013-02-25 22:53:00,
2013-02-25 17:54:00,37.0,36.3,28.38,East,99,4.9,6.9,97,0.04,,---,0.24,VWS V14.01,2013-02-25 22:54:00,
2013-02-25 17:55:00,37.0,36.3,28.38,ENE,60,5.4,7.4,97,0.04,,---,0.24,VWS V14.01,2013-02-25 22:55:00,
2013-02-25 17:56:00,39.9,16.4,28.97,NE,55,3.6,5.8,38,0.00,,---,0.00,VWS V14.01,2013-02-25 22:56:00,
2013-02-25 17:57:00,37.0,36.3,28.38,ENE,62,5.4,8.7,97,0.00,,---,0.24,VWS V14.01,2013-02-25 22:57:00,
2013-02-25 17:58:00,37.0,36.3,28.38,ENE,64,6.7,7.4,97,0.00,,---,0.24,VWS V14.01,2013-02-25 22:58:00,
2013-02-25 17:59:00,37.0,36.3,28.38,East,92,5.4,7.4,97,0.00,,---,0.24,VWS V14.01,2013-02-25 22:59:00,
2013-02-25 18:00:00,37.0,36.3,28.38,ENE,70,4.9,6.9,97,0.00,,---,0.24,VWS V14.01,2013-02-25 23:00:00,
2013-02-25 18:01:00,37.0,36.3,28.38,ENE,75,5.8,6.3,97,0.00,,---,0.24,VWS V14.01,2013-02-25 23:01:00,
2013-02-25 18:02:00,39.4,16.5,28.97,ENE,73,4.9,5.8,39,0.00,,---,0.00,VWS V14.01,2013-02-25 23:02:00,
2013-02-25 18:03:00,37.0,36.3,28.38,ENE,75,4.9,6.9,97,0.00,,---,0.24,VWS V14.01,2013-02-25 23:03:00,
2013-02-25 18:04:00,37.0,36.3,28.38,East,94,5.4,7.8,97,0.00,,---,0.24,VWS V14.01,2013-02-25 23:04:00,
2013-02-25 18:05:00,37.0,36.3,28.38,ENE,63,7.4,7.4,97,0.00,,---,0.24,VWS V14.01,2013-02-25 23:05:00,
2013-02-25 18:06:00,37.0,36.3,28.38,East,95,8.3,10.1,97,0.00,,---,0.24,VWS V14.01,2013-02-25 23:06:00,
2013-02-25 18:07:00,39.0,16.8,28.97,East,89,5.8,6.7,40,0.00,,---,0.00,VWS V14.01,2013-02-25 23:07:00,
2013-02-25 18:08:00,37.2,36.5,28.38,East,101,7.4,7.8,97,0.00,,---,0.24,VWS V14.01,2013-02-25 23:08:00,
2013-02-25 18:09:00,37.2,36.5,28.38,East,79,5.8,7.8,97,0.00,,---,0.24,VWS V14.01,2013-02-25 23:09:00,
2013-02-25 18:10:00,37.2,36.5,28.38,ENE,66,7.4,7.4,97,0.00,,---,0.24,VWS V14.01,2013-02-25 23:10:00,
2013-02-25 18:11:00,37.2,36.5,28.38,ENE,57,5.4,7.4,97,0.00,,---,0.24,VWS V14.01,2013-02-25 23:11:00,
2013-02-25 18:12:00,38.7,17.0,28.97,East,84,6.3,6.7,41,0.00,,---,0.00,VWS V14.01,2013-02-25 23:12:00,
2013-02-25 18:13:00,37.0,36.3,28.38,ENE,66,3.6,5.8,97,0.00,,---,0.24,VWS V14.01,2013-02-25 23:13:00,
2013-02-25 18:14:00,37.0,36.3,28.38,ENE,73,4.0,4.9,97,0.00,,---,0.24,VWS V14.01,2013-02-25 23:14:00,
2013-02-25 18:15:00,37.2,36.5,28.38,ENE,73,4.0,4.0,97,0.00,,---,0.24,VWS V14.01,2013-02-25 23:15:00,
2013-02-25 18:16:00,37.2,36.5,28.38,ENE,72,4.5,4.9,97,0.00,,---,0.24,VWS V14.01,2013-02-25 23:16:00,
2013-02-25 18:17:00,38.3,17.2,28.97,ESE,106,4.9,6.9,42,0.00,,---,0.00,VWS V14.01,2013-02-25 23:17:00,
2013-02-25 18:18:00,37.2,36.5,28.38,ENE,59,5.8,5.8,97,0.00,,---,0.24,VWS V14.01,2013-02-25 23:18:00,
2013-02-25 18:19:00,37.2,36.5,28.38,ENE,73,5.4,6.3,97,0.00,,---,0.24,VWS V14.01,2013-02-25 23:19:00,
2013-02-25 18:20:00,37.0,36.3,28.38,ENE,69,7.8,9.6,97,0.00,,---,0.24,VWS V14.01,2013-02-25 23:20:00,
2013-02-25 18:21:00,37.0,36.3,28.38,ENE,66,5.8,9.6,97,0.00,,---,0.24,VWS V14.01,2013-02-25 23:21:00,
2013-02-25 18:22:00,37.0,36.3,28.38,East,82,7.4,9.6,97,0.00,,---,0.24,VWS V14.01,2013-02-25 23:22:00,
2013-02-25 18:23:00,37.9,17.5,28.97,NE,54,6.7,6.7,43,0.00,,---,0.00,VWS V14.01,2013-02-25 23:23:00,
2013-02-25 18:24:00,37.0,36.3,28.38,East,80,6.3,6.7,97,0.00,,---,0.24,VWS V14.01,2013-02-25 23:24:00,
2013-02-25 18:25:00,37.0,36.3,28.38,East,87,5.4,6.7,97,0.00,,---,0.24,VWS V14.01,2013-02-25 23:25:00,
2013-02-25 18:26:00,37.0,36.3,28.38,ENE,71,4.9,6.9,97,0.00,,---,0.24,VWS V14.01,2013-02-25 23:26:00,
2013-02-25 18:27:00,37.0,36.3,28.38,ENE,62,5.4,6.7,97,0.00,,---,0.24,VWS V14.01,2013-02-25 23:27:00,
2013-02-25 18:28:00,37.0,36.3,28.38,ESE,115,4.5,5.8,97,0.00,,---,0.24,VWS V14.01,2013-02-25 23:28:00,
2013-02-25 18:29:00,37.8,17.8,28.97,ENE,68,4.9,6.9,44,0.00,,---,0.00,VWS V14.01,2013-02-25 23:29:00,
2013-02-25 18:30:00,37.0,36.3,28.38,ENE,76,5.4,5.4,97,0.00,,---,0.24,VWS V14.01,2013-02-25 23:30:00,
2013-02-25 18:31:00,37.0,36.3,28.38,ENE,57,4.5,5.4,97,0.00,,---,0.24,VWS V14.01,2013-02-25 23:31:00,
2013-02-25 18:32:00,37.0,36.3,28.38,ENE,70,5.4,6.3,97,0.00,,---,0.24,VWS V14.01,2013-02-25 23:32:00,
2013-02-25 18:33:00,37.0,36.3,28.38,ENE,65,3.6,5.4,97,0.00,,---,0.24,VWS V14.01,2013-02-25 23:33:00,
2013-02-25 18:34:00,37.0,36.3,28.38,ENE,74,4.9,5.8,97,0.00,,---,0.24,VWS V14.01,2013-02-25 23:34:00,
2013-02-25 18:35:00,37.0,36.3,28.38,ENE,58,4.0,4.9,97,0.00,,---,0.24,VWS V14.01,2013-02-25 23:35:00,
2013-02-25 18:36:00,37.4,18.0,28.97,ENE,70,4.0,6.9,45,0.00,,---,0.00,VWS V14.01,2013-02-25 23:36:00,
2013-02-25 18:37:00,37.0,36.3,28.38,ENE,59,4.5,5.8,97,0.00,,---,0.24,VWS V14.01,2013-02-25 23:37:00,
2013-02-25 18:38:00,37.0,36.3,28.38,ENE,59,4.9,4.9,97,0.00,,---,0.24,VWS V14.01,2013-02-25 23:38:00,
2013-02-25 18:39:00,37.0,36.3,28.38,ENE,73,4.0,4.9,97,0.00,,---,0.24,VWS V14.01,2013-02-25 23:39:00,
2013-02-25 18:40:00,37.0,36.3,28.38,East,84,4.5,6.3,97,0.00,,---,0.24,VWS V14.01,2013-02-25 23:40:00,
2013-02-25 18:41:00,37.0,36.3,28.38,ENE,68,4.9,6.3,97,0.00,,---,0.24,VWS V14.01,2013-02-25 23:41:00,
2013-02-25 18:42:00,37.0,18.2,28.97,ENE,76,4.9,7.4,46,0.00,,---,0.00,VWS V14.01,2013-02-25 23:42:00,
2013-02-25 18:43:00,37.0,36.3,28.38,ENE,71,5.8,6.9,97,0.00,,---,0.24,VWS V14.01,2013-02-25 23:43:00,
2013-02-25 18:44:00,37.0,36.3,28.38,ENE,70,5.4,6.7,97,0.00,,---,0.24,VWS V14.01,2013-02-25 23:44:00,
2013-02-25 18:45:00,37.0,36.3,28.38,ENE,70,3.6,5.8,97,0.00,,---,0.24,VWS V14.01,2013-02-25 23:45:00,
2013-02-25 18:46:00,37.0,36.3,28.38,East,79,2.7,4.9,97,0.00,,---,0.24,VWS V14.01,2013-02-25 23:46:00,
2013-02-25 18:47:00,37.0,36.3,28.38,East,84,5.8,5.8,97,0.00,,---,0.24,VWS V14.01,2013-02-25 23:47:00,
2013-02-25 18:48:00,37.0,19.2,28.97,ENE,64,5.4,8.3,48,0.00,,---,0.00,VWS V14.01,2013-02-25 23:48:00,
2013-02-25 18:49:00,37.0,36.3,28.38,NE,56,4.0,4.9,97,0.00,,---,0.24,VWS V14.01,2013-02-25 23:49:00,
2013-02-25 18:50:00,37.0,36.3,28.38,ENE,66,6.3,6.3,97,0.00,,---,0.24,VWS V14.01,2013-02-25 23:50:00,
2013-02-25 18:51:00,37.0,36.3,28.38,East,82,5.4,6.3,97,0.00,,---,0.24,VWS V14.01,2013-02-25 23:51:00,
2013-02-25 18:52:00,37.0,36.3,28.38,ENE,67,5.8,5.8,97,0.00,,---,0.24,VWS V14.01,2013-02-25 23:52:00,
2013-02-25 18:53:00,36.9,19.0,28.97,ENE,69,5.8,6.9,48,0.00,,---,0.00,VWS V14.01,2013-02-25 23:53:00,
2013-02-25 18:54:00,37.0,36.3,28.38,East,83,5.4,5.8,97,0.00,,---,0.24,VWS V14.01,2013-02-25 23:54:00,
2013-02-25 18:55:00,37.0,36.3,28.38,ENE,71,5.8,6.3,97,0.00,,---,0.24,VWS V14.01,2013-02-25 23:55:00,
2013-02-25 18:56:00,37.0,36.3,28.38,ENE,70,4.5,5.8,97,0.00,,---,0.24,VWS V14.01,2013-02-25 23:56:00,
2013-02-25 18:57:00,37.0,36.3,28.38,ENE,73,4.0,4.9,97,0.00,,---,0.24,VWS V14.01,2013-02-25 23:57:00,
2013-02-25 18:58:00,37.0,36.3,28.38,ENE,59,4.5,5.4,97,0.00,,---,0.24,VWS V14.01,2013-02-25 23:58:00,
2013-02-25 18:59:00,37.0,36.3,28.38,ENE,67,4.5,4.9,97,0.00,,---,0.24,VWS V14.01,2013-02-25 23:59:00,
2013-02-25 19:00:00,36.7,19.3,28.97,ENE,57,6.9,6.9,49,0.00,,---,0.00,VWS V14.01,2013-02-26 00:00:00,
2013-02-25 19:01:00,37.0,36.3,28.38,NE,55,4.5,6.3,97,0.00,,---,0.24,VWS V14.01,2013-02-26 00:01:00,
2013-02-25 19:02:00,37.0,36.3,28.38,ENE,74,4.9,5.4,97,0.00,,---,0.24,VWS V14.01,2013-02-26 00:02:00,
2013-02-25 19:03:00,37.0,36.3,28.38,ENE,62,4.9,5.8,97,0.00,,---,0.24,VWS V14.01,2013-02-26 00:03:00,
2013-02-25 19:04:00,37.0,36.3,28.38,ENE,74,5.4,6.7,97,0.00,,---,0.24,VWS V14.01,2013-02-26 00:04:00,
2013-02-25 19:05:00,37.0,36.3,28.38,ESE,108,5.4,6.3,97,0.00,,---,0.24,VWS V14.01,2013-02-26 00:05:00,
2013-02-25 19:06:00,37.0,36.3,28.38,East,79,3.6,5.4,97,0.00,,---,0.24,VWS V14.01,2013-02-26 00:06:00,
2013-02-25 19:07:00,36.5,19.6,28.97,ESE,113,5.4,5.8,50,0.00,,---,0.00,VWS V14.01,2013-02-26 00:07:00,
2013-02-25 19:08:00,37.0,36.3,28.38,ENE,65,3.6,4.5,97,0.00,,---,0.24,VWS V14.01,2013-02-26 00:08:00,
2013-02-25 19:09:00,37.0,36.3,28.38,ENE,68,4.5,4.5,97,0.00,,---,0.24,VWS V14.01,2013-02-26 00:09:00,
2013-02-25 19:10:00,37.0,36.3,28.38,East,84,3.1,4.5,97,0.00,,---,0.24,VWS V14.01,2013-02-26 00:10:00,
2013-02-25 19:11:00,37.0,36.3,28.38,East,82,0.0,3.6,97,0.00,,---,0.24,VWS V14.01,2013-02-26 00:11:00,
2013-02-25 19:12:00,37.0,36.3,28.38,East,82,0.0,0.0,97,0.00,,---,0.24,VWS V14.01,2013-02-26 00:12:00,
2013-02-25 19:13:00,37.0,36.3,28.38,East,82,0.0,0.0,97,0.00,,---,0.24,VWS V14.01,2013-02-26 00:13:00,
2013-02-25 19:14:00,36.3,19.5,28.97,ENE,73,4.5,6.9,50,0.00,,---,0.00,VWS V14.01,2013-02-26 00:14:00,
2013-02-25 19:15:00,37.0,36.3,28.38,East,82,0.0,3.1,97,0.04,,---,0.28,VWS V14.01,2013-02-26 00:15:00,
2013-02-25 19:16:00,37.0,36.3,28.38,East,82,0.0,0.0,97,0.04,,---,0.28,VWS V14.01,2013-02-26 00:16:00,
2013-02-25 19:17:00,37.0,36.3,28.38,East,82,0.0,0.0,97,0.04,,---,0.28,VWS V14.01,2013-02-26 00:17:00,
2013-02-25 19:18:00,37.0,36.3,28.38,East,82,0.0,0.0,97,0.04,,---,0.28,VWS V14.01,2013-02-26 00:18:00,
2013-02-25 19:19:00,36.1,19.3,28.97,ENE,63,4.9,6.9,50,0.00,,---,0.00,VWS V14.01,2013-02-26 00:19:00,
2013-02-25 19:20:00,37.0,36.3,28.38,East,82,0.0,0.0,97,0.04,,---,0.28,VWS V14.01,2013-02-26 00:20:00,
2013-02-25 19:21:00,37.0,36.3,28.38,East,82,0.0,0.0,97,0.04,,---,0.28,VWS V14.01,2013-02-26 00:21:00,
2013-02-25 19:22:00,37.0,36.3,28.38,East,82,0.0,0.0,97,0.04,,---,0.28,VWS V14.01,2013-02-26 00:22:00,
2013-02-25 19:23:00,37.0,36.3,28.38,East,82,0.0,0.0,97,0.04,,---,0.28,VWS V14.01,2013-02-26 00:23:00,
2013-02-25 19:24:00,37.0,36.3,28.38,East,82,3.1,3.1,97,0.04,,---,0.28,VWS V14.01,2013-02-26 00:24:00,
2013-02-25 19:25:00,36.0,19.6,28.97,ENE,69,6.3,8.3,51,0.00,,---,0.00,VWS V14.01,2013-02-26 00:25:00,
2013-02-25 19:26:00,37.0,36.3,28.38,ENE,73,3.1,3.6,97,0.04,,---,0.28,VWS V14.01,2013-02-26 00:26:00,
2013-02-25 19:27:00,37.0,36.3,28.38,East,79,2.7,3.6,97,0.04,,---,0.28,VWS V14.01,2013-02-26 00:27:00,
2013-02-25 19:28:00,37.0,36.3,28.38,East,90,3.1,4.0,97,0.04,,---,0.28,VWS V14.01,2013-02-26 00:28:00,
2013-02-25 19:29:00,37.0,36.3,28.38,ENE,71,0.0,3.6,97,0.04,,---,0.28,VWS V14.01,2013-02-26 00:29:00,
2013-02-25 19:30:00,35.8,19.4,28.94,East,87,5.4,6.7,51,0.00,,---,0.00,VWS V14.01,2013-02-26 00:30:00,
2013-02-25 19:31:00,37.0,36.3,28.38,ENE,77,3.1,3.1,97,0.04,,---,0.28,VWS V14.01,2013-02-26 00:31:00,
2013-02-25 19:32:00,37.0,36.3,28.38,ENE,77,3.1,3.6,97,0.04,,---,0.28,VWS V14.01,2013-02-26 00:32:00,
2013-02-25 19:33:00,37.0,36.3,28.38,ENE,77,3.1,3.6,97,0.04,,---,0.28,VWS V14.01,2013-02-26 00:33:00,
2013-02-25 19:34:00,37.0,36.3,28.38,ENE,75,3.1,4.5,97,0.04,,---,0.28,VWS V14.01,2013-02-26 00:34:00,
2013-02-25 19:35:00,35.6,19.7,28.94,ENE,77,6.7,6.9,52,0.00,,---,0.00,VWS V14.01,2013-02-26 00:35:00,
2013-02-25 19:36:00,37.2,36.5,28.38,ENE,70,4.0,4.5,97,0.04,,---,0.28,VWS V14.01,2013-02-26 00:36:00,
2013-02-25 19:37:00,37.2,36.5,28.38,ENE,75,4.5,4.9,97,0.04,,---,0.28,VWS V14.01,2013-02-26 00:37:00,
2013-02-25 19:38:00,37.2,36.5,28.38,ENE,70,4.5,4.9,97,0.04,,---,0.28,VWS V14.01,2013-02-26 00:38:00,
2013-02-25 19:39:00,37.2,36.5,28.38,ENE,75,4.0,4.5,97,0.04,,---,0.28,VWS V14.01,2013-02-26 00:39:00,
2013-02-25 19:40:00,35.4,20.0,28.94,ESE,109,8.3,8.3,53,0.00,,---,0.00,VWS V14.01,2013-02-26 00:40:00,
2013-02-25 19:41:00,37.2,36.5,28.38,ENE,70,4.5,4.9,97,0.04,,---,0.28,VWS V14.01,2013-02-26 00:41:00,
2013-02-25 19:42:00,37.2,36.5,28.38,ENE,76,3.1,4.5,97,0.04,,---,0.28,VWS V14.01,2013-02-26 00:42:00,
2013-02-25 19:43:00,37.2,36.5,28.38,NE,50,3.6,4.0,97,0.04,,---,0.28,VWS V14.01,2013-02-26 00:43:00,
2013-02-25 19:44:00,37.2,36.5,28.38,ENE,64,2.7,3.6,97,0.04,,---,0.28,VWS V14.01,2013-02-26 00:44:00,
2013-02-25 19:45:00,35.2,20.3,28.94,ENE,73,8.3,8.3,54,0.00,,---,0.00,VWS V14.01,2013-02-26 00:45:00,
2013-02-25 19:46:00,37.2,36.5,28.38,ENE,67,0.0,2.7,97,0.04,,---,0.28,VWS V14.01,2013-02-26 00:46:00,
2013-02-25 19:47:00,37.2,36.5,28.38,ENE,67,0.0,0.0,97,0.04,,---,0.28,VWS V14.01,2013-02-26 00:47:00,
2013-02-25 19:48:00,37.2,36.5,28.38,ENE,67,0.0,0.0,97,0.04,,---,0.28,VWS V14.01,2013-02-26 00:48:00,
2013-02-25 19:49:00,37.2,36.5,28.38,ENE,67,0.0,0.0,97,0.04,,---,0.28,VWS V14.01,2013-02-26 00:49:00,
2013-02-25 19:50:00,35.4,20.4,28.94,ENE,65,7.4,10.1,54,0.00,,---,0.00,VWS V14.01,2013-02-26 00:50:00,
2013-02-25 19:51:00,37.2,36.5,28.38,ENE,67,0.0,0.0,97,0.04,,---,0.28,VWS V14.01,2013-02-26 00:51:00,
2013-02-25 19:52:00,37.2,36.5,28.38,ENE,67,0.0,0.0,97,0.04,,---,0.28,VWS V14.01,2013-02-26 00:52:00,
2013-02-25 19:53:00,37.2,36.5,28.38,ENE,67,0.0,0.0,97,0.04,,---,0.28,VWS V14.01,2013-02-26 00:53:00,
2013-02-25 19:54:00,37.2,36.5,28.38,ENE,67,0.0,0.0,97,0.04,,---,0.28,VWS V14.01,2013-02-26 00:54:00,
2013-02-25 19:55:00,35.4,20.4,28.94,ENE,61,6.7,8.3,54,0.00,,---,0.00,VWS V14.01,2013-02-26 00:55:00,
2013-02-25 19:56:00,37.2,36.5,28.38,ENE,67,0.0,0.0,97,0.04,,---,0.28,VWS V14.01,2013-02-26 00:56:00,
2013-02-25 19:57:00,37.2,36.5,28.38,ENE,67,0.0,0.0,97,0.04,,---,0.28,VWS V14.01,2013-02-26 00:57:00,
2013-02-25 19:58:00,37.2,36.5,28.38,ENE,67,0.0,0.0,97,0.04,,---,0.28,VWS V14.01,2013-02-26 00:58:00,
2013-02-25 19:59:00,37.2,36.5,28.38,ENE,67,0.0,0.0,97,0.04,,---,0.28,VWS V14.01,2013-02-26 00:59:00,
2013-02-25 20:00:00,35.6,20.6,28.94,ENE,76,7.4,10.1,54,0.00,,---,0.00,VWS V14.01,2013-02-26 01:00:00,
2013-02-25 20:01:00,37.2,36.5,28.38,ENE,67,0.0,0.0,97,0.04,,---,0.28,VWS V14.01,2013-02-26 01:01:00,
2013-02-25 20:02:00,37.2,36.5,28.38,NNW,343,0.0,3.6,97,0.04,,---,0.28,VWS V14.01,2013-02-26 01:02:00,
2013-02-25 20:03:00,37.2,36.5,28.38,NNW,344,0.0,2.7,97,0.04,,---,0.28,VWS V14.01,2013-02-26 01:03:00,
2013-02-25 20:04:00,37.2,36.5,28.38,NNW,344,0.0,3.6,97,0.04,,---,0.28,VWS V14.01,2013-02-26 01:04:00,
2013-02-25 20:05:00,37.2,36.5,28.38,NNW,344,2.7,2.7,97,0.04,,---,0.28,VWS V14.01,2013-02-26 01:05:00,
2013-02-25 20:06:00,37.2,36.5,28.38,NE,45,3.6,3.6,97,0.04,,---,0.28,VWS V14.01,2013-02-26 01:06:00,
2013-02-25 20:07:00,37.2,36.5,28.38,ENE,73,4.5,4.9,97,0.04,,---,0.28,VWS V14.01,2013-02-26 01:07:00,
2013-02-25 20:08:00,37.2,36.5,28.38,ENE,68,4.5,4.9,97,0.04,,---,0.28,VWS V14.01,2013-02-26 01:08:00,
2013-02-25 20:09:00,37.2,36.5,28.38,ENE,76,5.4,6.3,97,0.04,,---,0.28,VWS V14.01,2013-02-26 01:09:00,
2013-02-25 20:10:00,37.2,36.5,28.38,ENE,64,4.0,5.4,97,0.04,,---,0.28,VWS V14.01,2013-02-26 01:10:00,
2013-02-25 20:11:00,35.4,20.0,28.94,ENE,70,7.4,8.7,53,0.00,,---,0.00,VWS V14.01,2013-02-26 01:11:00,
2013-02-25 20:12:00,37.2,36.5,28.38,ENE,66,3.1,4.0,97,0.04,,---,0.28,VWS V14.01,2013-02-26 01:12:00,
2013-02-25 20:13:00,37.2,36.5,28.38,ENE,67,2.7,4.0,97,0.04,,---,0.28,VWS V14.01,2013-02-26 01:13:00,
2013-02-25 20:14:00,37.2,36.5,28.38,ENE,67,0.0,2.7,97,0.04,,---,0.28,VWS V14.01,2013-02-26 01:14:00,
2013-02-25 20:15:00,37.2,36.5,28.38,ENE,67,0.0,0.0,97,0.04,,---,0.28,VWS V14.01,2013-02-26 01:15:00,
2013-02-25 20:16:00,35.2,20.3,28.94,East,87,6.9,9.6,54,0.00,,---,0.00,VWS V14.01,2013-02-26 01:16:00,
2013-02-25 20:17:00,37.2,36.5,28.38,ENE,67,3.6,3.6,97,0.00,,---,0.28,VWS V14.01,2013-02-26 01:17:00,
2013-02-25 20:18:00,37.2,36.5,28.38,ENE,67,2.7,3.6,97,0.00,,---,0.28,VWS V14.01,2013-02-26 01:18:00,
2013-02-25 20:19:00,37.2,36.5,28.38,ENE,67,2.7,4.0,97,0.04,,---,0.31,VWS V14.01,2013-02-26 01:19:00,
2013-02-25 20:20:00,37.2,36.5,28.38,ENE,67,0.0,2.7,97,0.04,,---,0.31,VWS V14.01,2013-02-26 01:20:00,
2013-02-25 20:21:00,37.2,36.5,28.38,ENE,67,0.0,0.0,97,0.04,,---,0.31,VWS V14.01,2013-02-26 01:21:00,
2013-02-25 20:22:00,37.2,36.5,28.38,ENE,67,0.0,0.0,97,0.04,,---,0.31,VWS V14.01,2013-02-26 01:22:00,
2013-02-25 20:23:00,37.2,36.5,28.38,ENE,67,0.0,0.0,97,0.04,,---,0.31,VWS V14.01,2013-02-26 01:23:00,
2013-02-25 20:24:00,37.2,36.5,28.38,ENE,67,0.0,0.0,97,0.04,,---,0.31,VWS V14.01,2013-02-26 01:24:00,
2013-02-25 20:25:00,37.2,36.5,28.38,ENE,67,0.0,0.0,97,0.04,,---,0.31,VWS V14.01,2013-02-26 01:25:00,
2013-02-25 20:26:00,35.1,20.5,28.94,NE,55,6.7,11.2,55,0.00,,---,0.00,VWS V14.01,2013-02-26 01:26:00,
2013-02-25 20:27:00,37.2,36.5,28.38,ENE,67,0.0,0.0,97,0.04,,---,0.31,VWS V14.01,2013-02-26 01:27:00,
2013-02-25 20:28:00,37.2,36.5,28.38,ENE,67,0.0,0.0,97,0.04,,---,0.31,VWS V14.01,2013-02-26 01:28:00,
2013-02-25 20:29:00,37.2,36.5,28.38,ENE,67,0.0,0.0,97,0.04,,---,0.31,VWS V14.01,2013-02-26 01:29:00,
2013-02-25 20:30:00,37.2,36.5,28.38,ENE,67,3.6,3.6,97,0.04,,---,0.31,VWS V14.01,2013-02-26 01:30:00,
2013-02-25 20:31:00,35.1,20.5,28.91,ENE,66,8.3,10.1,55,0.00,,---,0.00,VWS V14.01,2013-02-26 01:31:00,
2013-02-25 20:32:00,37.2,36.5,28.38,ENE,67,0.0,2.7,97,0.04,,---,0.31,VWS V14.01,2013-02-26 01:32:00,
2013-02-25 20:33:00,37.2,36.5,28.38,ENE,67,0.0,0.0,97,0.04,,---,0.31,VWS V14.01,2013-02-26 01:33:00,
2013-02-25 20:34:00,37.2,36.5,28.38,ENE,67,0.0,0.0,97,0.04,,---,0.31,VWS V14.01,2013-02-26 01:34:00,
2013-02-25 20:35:00,37.2,36.5,28.38,NNW,339,3.6,4.0,97,0.04,,---,0.31,VWS V14.01,2013-02-26 01:35:00,
2013-02-25 20:36:00,35.1,20.1,28.91,ENE,64,7.8,10.5,54,0.00,,---,0.00,VWS V14.01,2013-02-26 01:36:00,
2013-02-25 20:37:00,37.2,36.5,28.38,NNW,339,2.7,2.7,97,0.04,,---,0.31,VWS V14.01,2013-02-26 01:37:00,
2013-02-25 20:38:00,37.2,36.5,28.38,NNW,339,0.0,3.1,97,0.04,,---,0.31,VWS V14.01,2013-02-26 01:38:00,
2013-02-25 20:39:00,37.2,36.5,28.38,NNW,339,0.0,0.0,97,0.04,,---,0.31,VWS V14.01,2013-02-26 01:39:00,
2013-02-25 20:40:00,37.0,36.3,28.38,NNW,339,0.0,0.0,97,0.04,,---,0.31,VWS V14.01,2013-02-26 01:40:00,
2013-02-25 20:41:00,37.0,36.3,28.38,NNW,339,0.0,0.0,97,0.04,,---,0.31,VWS V14.01,2013-02-26 01:41:00,
2013-02-25 20:42:00,34.9,20.4,28.91,East,85,9.2,12.1,55,0.00,,---,0.00,VWS V14.01,2013-02-26 01:42:00,
2013-02-25 20:43:00,37.0,36.3,28.38,NNW,339,0.0,0.0,97,0.08,,---,0.35,VWS V14.01,2013-02-26 01:43:00,
2013-02-25 20:44:00,37.0,36.3,28.38,NNW,339,0.0,0.0,97,0.08,,---,0.35,VWS V14.01,2013-02-26 01:44:00,
2013-02-25 20:45:00,37.0,36.3,28.38,NNW,339,0.0,0.0,97,0.08,,---,0.35,VWS V14.01,2013-02-26 01:45:00,
2013-02-25 20:46:00,36.9,36.1,28.38,NNW,339,0.0,0.0,97,0.08,,---,0.35,VWS V14.01,2013-02-26 01:46:00,
2013-02-25 20:47:00,36.9,36.1,28.38,NNW,339,0.0,0.0,97,0.08,,---,0.35,VWS V14.01,2013-02-26 01:47:00,
2013-02-25 20:48:00,34.9,20.4,28.91,East,92,10.5,10.5,55,0.00,,---,0.00,VWS V14.01,2013-02-26 01:48:00,
2013-02-25 20:49:00,36.9,36.1,28.38,NNW,339,0.0,0.0,97,0.08,,---,0.35,VWS V14.01,2013-02-26 01:49:00,
2013-02-25 20:50:00,36.9,36.1,28.38,NNW,339,0.0,0.0,97,0.08,,---,0.35,VWS V14.01,2013-02-26 01:50:00,
2013-02-25 20:51:00,36.9,36.1,28.38,ENE,67,3.6,3.6,97,0.08,,---,0.35,VWS V14.01,2013-02-26 01:51:00,
2013-02-25 20:52:00,36.9,36.1,28.38,ENE,71,4.5,4.9,97,0.08,,---,0.35,VWS V14.01,2013-02-26 01:52:00,
2013-02-25 20:53:00,34.7,20.2,28.91,East,83,10.5,11.0,55,0.00,,---,0.00,VWS V14.01,2013-02-26 01:53:00,
2013-02-25 20:54:00,36.9,36.1,28.38,ENE,76,3.6,5.4,97,0.08,,---,0.35,VWS V14.01,2013-02-26 01:54:00,
2013-02-25 20:55:00,36.9,36.1,28.38,ENE,77,0.0,4.0,97,0.08,,---,0.35,VWS V14.01,2013-02-26 01:55:00,
2013-02-25 20:56:00,36.9,36.1,28.38,ENE,78,3.6,3.6,97,0.08,,---,0.35,VWS V14.01,2013-02-26 01:56:00,
2013-02-25 20:57:00,36.9,36.1,28.38,West,264,5.4,5.4,97,0.08,,---,0.35,VWS V14.01,2013-02-26 01:57:00,
2013-02-25 20:58:00,36.9,36.1,28.38,West,263,3.6,5.4,97,0.08,,---,0.35,VWS V14.01,2013-02-26 01:58:00,
2013-02-25 20:59:00,34.7,20.6,28.91,ESE,106,7.4,7.4,56,0.00,,---,0.00,VWS V14.01,2013-02-26 01:59:00,
2013-02-25 21:00:00,36.9,36.1,28.38,West,263,0.0,0.0,97,0.08,,---,0.35,VWS V14.01,2013-02-26 02:00:00,
2013-02-25 21:01:00,36.9,36.1,28.38,West,263,0.0,0.0,97,0.08,,---,0.35,VWS V14.01,2013-02-26 02:01:00,
2013-02-25 21:02:00,36.9,36.1,28.38,North,9,0.0,3.6,97,0.08,,---,0.35,VWS V14.01,2013-02-26 02:02:00,
2013-02-25 21:03:00,36.9,36.1,28.38,NNE,23,3.6,3.6,97,0.08,,---,0.35,VWS V14.01,2013-02-26 02:03:00,
2013-02-25 21:04:00,34.5,20.5,28.91,ESE,105,4.5,6.3,56,0.00,,---,0.00,VWS V14.01,2013-02-26 02:04:00,
2013-02-25 21:05:00,36.9,36.1,28.38,NNE,32,2.7,4.0,97,0.08,,---,0.35,VWS V14.01,2013-02-26 02:05:00,
2013-02-25 21:06:00,36.9,36.1,28.38,NNE,33,3.6,3.6,97,0.08,,---,0.35,VWS V14.01,2013-02-26 02:06:00,
2013-02-25 21:07:00,36.9,36.1,28.38,ENE,76,4.0,4.5,97,0.08,,---,0.35,VWS V14.01,2013-02-26 02:07:00,
2013-02-25 21:08:00,36.9,36.1,28.38,ENE,75,4.0,4.5,97,0.08,,---,0.35,VWS V14.01,2013-02-26 02:08:00,
2013-02-25 21:09:00,34.3,20.3,28.91,East,96,6.3,7.8,56,0.00,,---,0.00,VWS V14.01,2013-02-26 02:09:00,
2013-02-25 21:10:00,36.9,36.1,28.38,West,261,3.6,4.5,97,0.08,,---,0.35,VWS V14.01,2013-02-26 02:10:00,
2013-02-25 21:11:00,36.9,36.1,28.38,WSW,240,4.0,6.3,97,0.08,,---,0.35,VWS V14.01,2013-02-26 02:11:00,
2013-02-25 21:12:00,36.9,36.1,28.38,WSW,248,3.6,4.9,97,0.08,,---,0.35,VWS V14.01,2013-02-26 02:12:00,
2013-02-25 21:13:00,36.9,36.1,28.38,WSW,248,0.0,3.6,97,0.08,,---,0.35,VWS V14.01,2013-02-26 02:13:00,
2013-02-25 21:14:00,34.5,20.9,28.91,East,96,5.4,9.2,57,0.00,,---,0.00,VWS V14.01,2013-02-26 02:14:00,
2013-02-25 21:15:00,36.9,36.1,28.38,WSW,248,0.0,0.0,97,0.08,,---,0.35,VWS V14.01,2013-02-26 02:15:00,
2013-02-25 21:16:00,36.9,36.1,28.38,WSW,248,0.0,0.0,97,0.08,,---,0.35,VWS V14.01,2013-02-26 02:16:00,
2013-02-25 21:17:00,37.0,36.3,28.38,WSW,248,0.0,0.0,97,0.08,,---,0.35,VWS V14.01,2013-02-26 02:17:00,
2013-02-25 21:18:00,37.0,36.3,28.38,WSW,248,0.0,0.0,97,0.08,,---,0.35,VWS V14.01,2013-02-26 02:18:00,
2013-02-25 21:19:00,34.3,20.7,28.91,East,80,3.6,5.8,57,0.00,,---,0.00,VWS V14.01,2013-02-26 02:19:00,
2013-02-25 21:20:00,37.0,36.3,28.38,WSW,248,0.0,0.0,97,0.04,,---,0.35,VWS V14.01,2013-02-26 02:20:00,
2013-02-25 21:21:00,37.0,36.3,28.38,WSW,248,3.6,3.6,97,0.04,,---,0.35,VWS V14.01,2013-02-26 02:21:00,
2013-02-25 21:23:00,37.0,36.3,28.38,WSW,248,0.0,2.7,97,0.04,,---,0.35,VWS V14.01,2013-02-26 02:23:00,
2013-02-25 21:24:00,37.0,36.3,28.38,WSW,248,0.0,0.0,97,0.04,,---,0.35,VWS V14.01,2013-02-26 02:24:00,
2013-02-25 21:25:00,34.2,20.9,28.91,ESE,104,7.8,7.8,58,0.00,,---,0.00,VWS V14.01,2013-02-26 02:25:00,
2013-02-25 21:26:00,37.0,36.3,28.38,WSW,248,0.0,0.0,97,0.04,,---,0.35,VWS V14.01,2013-02-26 02:26:00,
2013-02-25 21:27:00,37.0,36.3,28.38,WSW,248,3.1,3.1,97,0.04,,---,0.35,VWS V14.01,2013-02-26 02:27:00,
2013-02-25 21:28:00,37.0,36.3,28.38,WSW,248,4.0,4.0,97,0.04,,---,0.35,VWS V14.01,2013-02-26 02:28:00,
2013-02-25 21:29:00,37.0,36.3,28.38,WSW,248,0.0,4.0,97,0.04,,---,0.35,VWS V14.01,2013-02-26 02:29:00,
2013-02-25 21:30:00,34.3,21.1,28.94,ENE,58,4.0,6.9,58,0.00,,---,0.00,VWS V14.01,2013-02-26 02:30:00,
2013-02-25 21:31:00,37.0,36.3,28.38,WSW,248,0.0,0.0,97,0.04,,---,0.35,VWS V14.01,2013-02-26 02:31:00,
2013-02-25 21:32:00,37.0,36.3,28.38,WSW,248,0.0,0.0,97,0.04,,---,0.35,VWS V14.01,2013-02-26 02:32:00,
2013-02-25 21:33:00,37.0,36.3,28.38,WSW,248,0.0,0.0,97,0.04,,---,0.35,VWS V14.01,2013-02-26 02:33:00,
2013-02-25 21:34:00,37.0,36.3,28.38,WSW,248,0.0,0.0,97,0.04,,---,0.35,VWS V14.01,2013-02-26 02:34:00,
2013-02-25 21:35:00,37.0,36.3,28.38,WSW,248,0.0,0.0,97,0.04,,---,0.35,VWS V14.01,2013-02-26 02:35:00,
2013-02-25 21:36:00,37.0,36.3,28.38,WSW,248,0.0,0.0,97,0.04,,---,0.35,VWS V14.01,2013-02-26 02:36:00,
2013-02-25 21:37:00,37.0,36.3,28.38,WSW,248,0.0,0.0,97,0.04,,---,0.35,VWS V14.01,2013-02-26 02:37:00,
2013-02-25 21:38:00,37.0,36.3,28.38,WSW,248,0.0,0.0,97,0.04,,---,0.35,VWS V14.01,2013-02-26 02:38:00,
2013-02-25 21:39:00,37.0,36.3,28.38,WSW,248,0.0,0.0,97,0.04,,---,0.35,VWS V14.01,2013-02-26 02:39:00,
2013-02-25 21:40:00,34.3,21.1,28.94,East,85,5.4,6.9,58,0.00,,---,0.00,VWS V14.01,2013-02-26 02:40:00,
2013-02-25 21:41:00,37.0,36.3,28.38,WSW,248,0.0,0.0,97,0.04,,---,0.35,VWS V14.01,2013-02-26 02:41:00,
2013-02-25 21:42:00,37.0,36.3,28.38,WSW,248,0.0,0.0,97,0.04,,---,0.35,VWS V14.01,2013-02-26 02:42:00,
2013-02-25 21:43:00,37.0,36.3,28.38,WSW,248,0.0,0.0,97,0.04,,---,0.35,VWS V14.01,2013-02-26 02:43:00,
2013-02-25 21:44:00,37.0,36.3,28.38,WSW,248,4.0,4.0,97,0.00,,---,0.35,VWS V14.01,2013-02-26 02:44:00,
2013-02-25 21:45:00,37.0,36.3,28.38,WSW,248,3.6,4.9,97,0.00,,---,0.35,VWS V14.01,2013-02-26 02:45:00,
2013-02-25 21:46:00,34.3,21.1,28.94,ESE,109,6.7,8.3,58,0.00,,---,0.00,VWS V14.01,2013-02-26 02:46:00,
2013-02-25 21:47:00,37.0,36.3,28.38,WSW,248,0.0,0.0,97,0.00,,---,0.35,VWS V14.01,2013-02-26 02:47:00,
2013-02-25 21:48:00,37.0,36.3,28.38,WSW,248,0.0,0.0,97,0.00,,---,0.35,VWS V14.01,2013-02-26 02:48:00,
2013-02-25 21:49:00,37.0,36.3,28.38,WSW,248,0.0,0.0,97,0.00,,---,0.35,VWS V14.01,2013-02-26 02:49:00,
2013-02-25 21:50:00,37.0,36.3,28.38,WSW,248,0.0,0.0,97,0.00,,---,0.35,VWS V14.01,2013-02-26 02:50:00,
2013-02-25 21:51:00,37.0,36.3,28.38,WSW,248,0.0,0.0,97,0.00,,---,0.35,VWS V14.01,2013-02-26 02:51:00,
2013-02-25 21:52:00,34.3,21.1,28.94,ESE,107,5.4,6.9,58,0.00,,---,0.00,VWS V14.01,2013-02-26 02:52:00,
2013-02-25 21:53:00,37.0,36.3,28.38,WSW,248,0.0,0.0,97,0.00,,---,0.35,VWS V14.01,2013-02-26 02:53:00,
2013-02-25 21:54:00,37.0,36.3,28.38,WSW,248,0.0,0.0,97,0.00,,---,0.35,VWS V14.01,2013-02-26 02:54:00,
2013-02-25 21:55:00,37.0,36.3,28.38,WSW,248,0.0,0.0,97,0.00,,---,0.35,VWS V14.01,2013-02-26 02:55:00,
2013-02-25 21:56:00,37.0,36.3,28.38,WSW,248,0.0,0.0,97,0.00,,---,0.35,VWS V14.01,2013-02-26 02:56:00,
2013-02-25 21:57:00,37.0,36.3,28.38,WSW,248,0.0,0.0,97,0.00,,---,0.35,VWS V14.01,2013-02-26 02:57:00,
2013-02-25 21:58:00,37.2,36.5,28.38,WSW,248,0.0,0.0,97,0.00,,---,0.35,VWS V14.01,2013-02-26 02:58:00,
2013-02-25 21:59:00,37.0,36.3,28.38,WSW,248,0.0,0.0,97,0.00,,---,0.35,VWS V14.01,2013-02-26 02:59:00,
2013-02-25 22:00:00,34.2,20.9,28.94,East,89,5.4,7.8,58,0.00,,---,0.00,VWS V14.01,2013-02-26 03:00:00,
2013-02-25 22:01:00,37.0,36.3,28.38,WSW,248,0.0,0.0,97,0.00,,---,0.35,VWS V14.01,2013-02-26 03:01:00,
2013-02-25 22:02:00,37.0,36.3,28.38,WSW,248,0.0,0.0,97,0.00,,---,0.35,VWS V14.01,2013-02-26 03:02:00,
2013-02-25 22:03:00,37.0,36.3,28.38,WSW,248,0.0,0.0,97,0.00,,---,0.35,VWS V14.01,2013-02-26 03:03:00,
2013-02-25 22:04:00,37.0,36.3,28.38,WSW,249,0.0,0.0,97,0.00,,---,0.35,VWS V14.01,2013-02-26 03:04:00,
2013-02-25 22:06:00,37.0,36.3,28.38,WSW,248,0.0,0.0,97,0.00,,---,0.35,VWS V14.01,2013-02-26 03:06:00,
2013-02-25 22:07:00,34.0,20.8,28.94,East,85,5.4,6.9,58,0.00,,---,0.00,VWS V14.01,2013-02-26 03:07:00,
2013-02-25 22:08:00,37.0,36.3,28.38,WSW,248,0.0,0.0,97,0.00,,---,0.35,VWS V14.01,2013-02-26 03:08:00,
2013-02-25 22:09:00,37.0,36.3,28.38,WSW,248,0.0,0.0,97,0.00,,---,0.35,VWS V14.01,2013-02-26 03:09:00,
2013-02-25 22:10:00,37.0,36.3,28.38,WSW,248,0.0,0.0,97,0.00,,---,0.35,VWS V14.01,2013-02-26 03:10:00,
2013-02-25 22:11:00,37.0,36.3,28.38,WSW,248,0.0,0.0,97,0.00,,---,0.35,VWS V14.01,2013-02-26 03:11:00,
2013-02-25 22:12:00,34.0,20.8,28.94,East,92,5.4,8.3,58,0.00,,---,0.00,VWS V14.01,2013-02-26 03:12:00,
2013-02-25 22:13:00,37.2,36.5,28.38,WSW,248,0.0,0.0,97,0.00,,---,0.35,VWS V14.01,2013-02-26 03:13:00,
2013-02-25 22:14:00,37.2,36.5,28.38,WSW,248,0.0,0.0,97,0.00,,---,0.35,VWS V14.01,2013-02-26 03:14:00,
2013-02-25 22:16:00,37.2,36.5,28.38,WSW,248,0.0,0.0,97,0.00,,---,0.35,VWS V14.01,2013-02-26 03:16:00,
2013-02-25 22:17:00,33.8,20.6,28.94,East,99,5.4,6.7,58,0.00,,---,0.00,VWS V14.01,2013-02-26 03:17:00,
2013-02-25 22:18:00,37.2,36.5,28.38,WSW,248,0.0,0.0,97,0.00,,---,0.35,VWS V14.01,2013-02-26 03:18:00,
2013-02-25 22:19:00,37.2,36.5,28.38,WSW,249,0.0,0.0,97,0.00,,---,0.35,VWS V14.01,2013-02-26 03:19:00,
2013-02-25 22:20:00,37.2,36.5,28.38,WSW,248,0.0,0.0,97,0.00,,---,0.35,VWS V14.01,2013-02-26 03:20:00,
2013-02-25 22:21:00,37.2,36.5,28.38,WSW,248,0.0,0.0,97,0.00,,---,0.35,VWS V14.01,2013-02-26 03:21:00,
2013-02-25 22:22:00,33.6,20.8,28.94,East,93,5.4,6.7,59,0.00,,---,0.00,VWS V14.01,2013-02-26 03:22:00,
2013-02-25 22:23:00,37.2,36.5,28.38,WSW,248,0.0,0.0,97,0.00,,---,0.35,VWS V14.01,2013-02-26 03:23:00,
2013-02-25 22:24:00,37.2,36.5,28.38,WSW,248,0.0,0.0,97,0.00,,---,0.35,VWS V14.01,2013-02-26 03:24:00,
2013-02-25 22:25:00,37.4,36.6,28.38,WSW,248,0.0,0.0,97,0.00,,---,0.35,VWS V14.01,2013-02-26 03:25:00,
2013-02-25 22:26:00,37.4,36.6,28.38,WSW,248,0.0,0.0,97,0.00,,---,0.35,VWS V14.01,2013-02-26 03:26:00,
2013-02-25 22:27:00,33.6,21.2,28.94,East,89,8.3,8.3,60,0.00,,---,0.00,VWS V14.01,2013-02-26 03:27:00,
2013-02-25 22:28:00,37.2,36.5,28.38,WSW,248,0.0,0.0,97,0.00,,---,0.35,VWS V14.01,2013-02-26 03:28:00,
2013-02-25 22:29:00,37.2,36.5,28.38,WSW,249,0.0,0.0,97,0.00,,---,0.35,VWS V14.01,2013-02-26 03:29:00,
2013-02-25 22:30:00,37.2,36.5,28.38,WSW,248,0.0,0.0,97,0.00,,---,0.35,VWS V14.01,2013-02-26 03:30:00,
2013-02-25 22:31:00,37.2,36.5,28.38,WSW,248,0.0,0.0,97,0.00,,---,0.35,VWS V14.01,2013-02-26 03:31:00,
2013-02-25 22:32:00,33.4,21.1,28.94,ENE,71,4.0,7.8,60,0.00,,---,0.00,VWS V14.01,2013-02-26 03:32:00,
2013-02-25 22:33:00,37.2,36.5,28.38,WSW,248,0.0,0.0,97,0.00,,---,0.35,VWS V14.01,2013-02-26 03:33:00,
2013-02-25 22:34:00,37.2,36.5,28.38,WSW,248,0.0,0.0,97,0.00,,---,0.35,VWS V14.01,2013-02-26 03:34:00,
2013-02-25 22:35:00,37.2,36.5,28.38,WSW,248,0.0,0.0,97,0.00,,---,0.35,VWS V14.01,2013-02-26 03:35:00,
2013-02-25 22:36:00,37.2,36.5,28.38,WSW,248,0.0,0.0,97,0.00,,---,0.35,VWS V14.01,2013-02-26 03:36:00,
2013-02-25 22:37:00,33.6,21.6,28.94,ENE,58,7.4,8.3,61,0.00,,---,0.00,VWS V14.01,2013-02-26 03:37:00,
2013-02-25 22:38:00,37.2,36.5,28.38,WSW,248,0.0,0.0,97,0.00,,---,0.35,VWS V14.01,2013-02-26 03:38:00,
2013-02-25 22:39:00,37.2,36.5,28.38,WSW,249,0.0,0.0,97,0.00,,---,0.35,VWS V14.01,2013-02-26 03:39:00,
2013-02-25 22:40:00,37.2,36.5,28.38,WSW,248,0.0,0.0,97,0.00,,---,0.35,VWS V14.01,2013-02-26 03:40:00,
2013-02-25 22:41:00,37.2,36.5,28.38,WSW,248,0.0,0.0,97,0.00,,---,0.35,VWS V14.01,2013-02-26 03:41:00,
2013-02-25 22:42:00,33.6,21.6,28.91,East,80,5.4,6.9,61,0.00,,---,0.00,VWS V14.01,2013-02-26 03:42:00,
2013-02-25 22:43:00,37.2,36.5,28.38,WSW,248,0.0,0.0,97,0.00,,---,0.35,VWS V14.01,2013-02-26 03:43:00,
2013-02-25 22:44:00,37.0,36.3,28.38,WSW,249,0.0,0.0,97,0.00,,---,0.35,VWS V14.01,2013-02-26 03:44:00,
2013-02-25 22:45:00,37.0,36.3,28.38,WSW,248,0.0,0.0,97,0.00,,---,0.35,VWS V14.01,2013-02-26 03:45:00,
2013-02-25 22:46:00,37.0,36.3,28.38,WSW,248,0.0,0.0,97,0.00,,---,0.35,VWS V14.01,2013-02-26 03:46:00,
2013-02-25 22:47:00,33.4,21.5,28.91,ENE,75,8.7,8.7,61,0.00,,---,0.00,VWS V14.01,2013-02-26 03:47:00,
2013-02-25 22:48:00,37.0,36.3,28.38,WSW,248,0.0,0.0,97,0.00,,---,0.35,VWS V14.01,2013-02-26 03:48:00,
2013-02-25 22:49:00,37.0,36.3,28.38,WSW,249,0.0,0.0,97,0.00,,---,0.35,VWS V14.01,2013-02-26 03:49:00,
2013-02-25 22:50:00,37.0,36.3,28.38,WSW,248,0.0,0.0,97,0.00,,---,0.35,VWS V14.01,2013-02-26 03:50:00,
2013-02-25 22:51:00,36.9,36.1,28.38,WSW,248,0.0,0.0,97,0.00,,---,0.35,VWS V14.01,2013-02-26 03:51:00,
2013-02-25 22:52:00,33.4,21.5,28.91,ENE,58,6.7,10.1,61,0.00,,---,0.00,VWS V14.01,2013-02-26 03:52:00,
2013-02-25 22:53:00,36.9,36.1,28.38,WSW,248,0.0,0.0,97,0.04,,---,0.39,VWS V14.01,2013-02-26 03:53:00,
2013-02-25 22:54:00,36.9,36.1,28.38,WSW,248,0.0,0.0,97,0.04,,---,0.39,VWS V14.01,2013-02-26 03:54:00,
2013-02-25 22:55:00,36.9,36.1,28.38,WSW,248,0.0,0.0,97,0.04,,---,0.39,VWS V14.01,2013-02-26 03:55:00,
2013-02-25 22:56:00,36.9,36.1,28.38,WSW,248,0.0,0.0,97,0.04,,---,0.39,VWS V14.01,2013-02-26 03:56:00,
2013-02-25 22:57:00,36.9,36.1,28.38,WSW,249,0.0,0.0,97,0.04,,---,0.39,VWS V14.01,2013-02-26 03:57:00,
2013-02-25 22:58:00,33.3,21.7,28.91,ESE,113,7.4,7.4,62,0.00,,---,0.00,VWS V14.01,2013-02-26 03:58:00,
2013-02-25 22:59:00,36.9,36.1,28.38,WSW,248,0.0,0.0,97,0.04,,---,0.39,VWS V14.01,2013-02-26 03:59:00,
2013-02-25 23:00:00,37.0,36.3,28.38,WSW,248,0.0,0.0,97,0.04,,---,0.39,VWS V14.01,2013-02-26 04:00:00,
2013-02-25 23:01:00,37.0,36.3,28.38,WSW,249,0.0,0.0,97,0.04,,---,0.39,VWS V14.01,2013-02-26 04:01:00,
2013-02-25 23:02:00,37.0,36.3,28.38,WSW,248,0.0,0.0,97,0.04,,---,0.39,VWS V14.01,2013-02-26 04:02:00,
2013-02-25 23:03:00,33.3,21.7,28.91,ENE,60,7.8,9.6,62,0.00,,---,0.00,VWS V14.01,2013-02-26 04:03:00,
2013-02-25 23:04:00,37.0,36.3,28.38,WSW,248,0.0,0.0,97,0.04,,---,0.39,VWS V14.01,2013-02-26 04:04:00,
2013-02-25 23:05:00,37.0,36.3,28.38,WSW,249,0.0,0.0,97,0.04,,---,0.39,VWS V14.01,2013-02-26 04:05:00,
2013-02-25 23:06:00,37.0,36.3,28.38,WSW,249,0.0,0.0,97,0.04,,---,0.39,VWS V14.01,2013-02-26 04:06:00,
2013-02-25 23:07:00,37.0,36.3,28.38,WSW,248,0.0,0.0,97,0.04,,---,0.39,VWS V14.01,2013-02-26 04:07:00,
2013-02-25 23:08:00,33.1,21.9,28.91,ENE,62,6.9,7.8,63,0.00,,---,0.00,VWS V14.01,2013-02-26 04:08:00,
2013-02-25 23:09:00,37.2,36.5,28.38,WSW,248,0.0,0.0,97,0.04,,---,0.39,VWS V14.01,2013-02-26 04:09:00,
2013-02-25 23:10:00,37.2,36.5,28.38,WSW,249,0.0,0.0,97,0.04,,---,0.39,VWS V14.01,2013-02-26 04:10:00,
2013-02-25 23:11:00,37.2,36.5,28.38,WSW,248,0.0,0.0,97,0.04,,---,0.39,VWS V14.01,2013-02-26 04:11:00,
2013-02-25 23:12:00,37.2,36.5,28.38,WSW,248,0.0,0.0,97,0.04,,---,0.39,VWS V14.01,2013-02-26 04:12:00,
2013-02-25 23:13:00,33.1,22.2,28.91,ENE,67,7.4,8.3,64,0.00,,---,0.00,VWS V14.01,2013-02-26 04:13:00,
2013-02-25 23:14:00,37.2,36.5,28.38,WSW,248,0.0,0.0,97,0.04,,---,0.39,VWS V14.01,2013-02-26 04:14:00,
2013-02-25 23:15:00,37.2,36.5,28.38,WSW,248,0.0,0.0,97,0.04,,---,0.39,VWS V14.01,2013-02-26 04:15:00,
2013-02-25 23:16:00,37.2,36.5,28.38,WSW,248,0.0,0.0,97,0.04,,---,0.39,VWS V14.01,2013-02-26 04:16:00,
2013-02-25 23:17:00,37.2,36.5,28.38,WSW,248,0.0,0.0,97,0.04,,---,0.39,VWS V14.01,2013-02-26 04:17:00,
2013-02-25 23:18:00,37.2,36.5,28.38,WSW,248,0.0,0.0,97,0.04,,---,0.39,VWS V14.01,2013-02-26 04:18:00,
2013-02-25 23:19:00,32.9,22.1,28.91,ENE,58,5.8,7.8,64,0.00,,---,0.00,VWS V14.01,2013-02-26 04:19:00,
2013-02-25 23:20:00,37.2,36.5,28.38,WSW,249,0.0,0.0,97,0.04,,---,0.39,VWS V14.01,2013-02-26 04:20:00,
2013-02-25 23:21:00,37.2,36.5,28.38,WSW,248,0.0,0.0,97,0.04,,---,0.39,VWS V14.01,2013-02-26 04:21:00,
2013-02-25 23:22:00,37.2,36.5,28.38,WSW,248,0.0,0.0,97,0.04,,---,0.39,VWS V14.01,2013-02-26 04:22:00,
2013-02-25 23:23:00,37.2,36.5,28.38,WSW,248,0.0,0.0,97,0.04,,---,0.39,VWS V14.01,2013-02-26 04:23:00,
2013-02-25 23:24:00,32.7,22.3,28.91,East,84,5.4,10.5,65,0.00,,---,0.00,VWS V14.01,2013-02-26 04:24:00,
2013-02-25 23:25:00,37.0,36.3,28.38,WSW,249,0.0,0.0,97,0.04,,---,0.39,VWS V14.01,2013-02-26 04:25:00,
2013-02-25 23:26:00,37.0,36.3,28.38,WSW,248,0.0,0.0,97,0.04,,---,0.39,VWS V14.01,2013-02-26 04:26:00,
2013-02-25 23:27:00,37.0,36.3,28.38,WSW,248,0.0,0.0,97,0.04,,---,0.39,VWS V14.01,2013-02-26 04:27:00,
2013-02-25 23:28:00,37.0,36.3,28.38,WSW,248,0.0,0.0,97,0.04,,---,0.39,VWS V14.01,2013-02-26 04:28:00,
2013-02-25 23:29:00,32.7,23.0,28.88,ENE,68,7.8,9.2,67,0.00,,---,0.00,VWS V14.01,2013-02-26 04:29:00,
2013-02-25 23:30:00,37.0,36.3,28.38,WSW,248,0.0,0.0,97,0.04,,---,0.39,VWS V14.01,2013-02-26 04:30:00,
2013-02-25 23:31:00,37.0,36.3,28.38,WSW,248,0.0,0.0,97,0.04,,---,0.39,VWS V14.01,2013-02-26 04:31:00,
2013-02-25 23:32:00,37.0,36.3,28.38,WSW,248,0.0,2.7,97,0.04,,---,0.39,VWS V14.01,2013-02-26 04:32:00,
2013-02-25 23:33:00,37.0,36.3,28.38,WSW,249,0.0,0.0,97,0.04,,---,0.39,VWS V14.01,2013-02-26 04:33:00,
2013-02-25 23:34:00,37.0,36.3,28.38,WSW,248,0.0,0.0,97,0.04,,---,0.39,VWS V14.01,2013-02-26 04:34:00,
2013-02-25 23:35:00,32.7,23.3,28.88,ENE,68,6.9,9.6,68,0.00,,---,0.00,VWS V14.01,2013-02-26 04:35:00,
2013-02-25 23:36:00,37.0,36.3,28.38,WSW,248,0.0,0.0,97,0.04,,---,0.39,VWS V14.01,2013-02-26 04:36:00,
2013-02-25 23:37:00,37.0,36.3,28.38,WSW,249,0.0,0.0,97,0.04,,---,0.39,VWS V14.01,2013-02-26 04:37:00,
2013-02-25 23:38:00,37.0,36.3,28.38,WSW,248,0.0,0.0,97,0.04,,---,0.39,VWS V14.01,2013-02-26 04:38:00,
2013-02-25 23:39:00,37.0,36.3,28.38,WSW,248,0.0,0.0,97,0.04,,---,0.39,VWS V14.01,2013-02-26 04:39:00,
2013-02-25 23:40:00,32.7,23.3,28.88,ENE,75,7.8,11.2,68,0.00,,---,0.00,VWS V14.01,2013-02-26 04:40:00,
2013-02-25 23:41:00,37.0,36.3,28.38,WSW,248,0.0,0.0,97,0.04,,---,0.39,VWS V14.01,2013-02-26 04:41:00,
2013-02-25 23:42:00,37.0,36.3,28.38,WSW,249,0.0,0.0,97,0.04,,---,0.39,VWS V14.01,2013-02-26 04:42:00,
2013-02-25 23:43:00,37.0,36.3,28.38,WSW,248,0.0,0.0,97,0.04,,---,0.39,VWS V14.01,2013-02-26 04:43:00,
2013-02-25 23:44:00,37.0,36.3,28.38,WSW,248,0.0,0.0,97,0.04,,---,0.39,VWS V14.01,2013-02-26 04:44:00,
2013-02-25 23:45:00,37.0,36.3,28.38,WSW,249,0.0,0.0,97,0.04,,---,0.39,VWS V14.01,2013-02-26 04:45:00,
2013-02-25 23:46:00,32.7,23.3,28.88,East,88,8.7,10.1,68,0.00,,---,0.00,VWS V14.01,2013-02-26 04:46:00,
2013-02-25 23:47:00,37.0,36.3,28.38,WSW,248,0.0,0.0,97,0.04,,---,0.39,VWS V14.01,2013-02-26 04:47:00,
2013-02-25 23:48:00,37.0,36.3,28.38,WSW,249,0.0,0.0,97,0.04,,---,0.39,VWS V14.01,2013-02-26 04:48:00,
2013-02-25 23:49:00,37.0,36.3,28.38,WSW,248,0.0,0.0,97,0.04,,---,0.39,VWS V14.01,2013-02-26 04:49:00,
2013-02-25 23:50:00,37.0,36.3,28.38,WSW,249,0.0,0.0,97,0.04,,---,0.39,VWS V14.01,2013-02-26 04:50:00,
2013-02-25 23:51:00,32.7,23.7,28.88,East,83,7.4,11.2,69,0.00,,---,0.00,VWS V14.01,2013-02-26 04:51:00,
2013-02-25 23:52:00,37.2,36.5,28.38,WSW,248,0.0,0.0,97,0.04,,---,0.39,VWS V14.01,2013-02-26 04:52:00,
2013-02-25 23:53:00,37.2,36.5,28.38,WSW,249,0.0,0.0,97,0.00,,---,0.39,VWS V14.01,2013-02-26 04:53:00,
2013-02-25 23:54:00,37.2,36.5,28.38,WSW,248,0.0,4.5,97,0.00,,---,0.39,VWS V14.01,2013-02-26 04:54:00,
2013-02-25 23:55:00,37.2,36.5,28.38,WSW,248,2.7,3.1,97,0.00,,---,0.39,VWS V14.01,2013-02-26 04:55:00,
2013-02-25 23:56:00,37.4,36.6,28.38,WSW,248,0.0,2.7,97,0.00,,---,0.39,VWS V14.01,2013-02-26 04:56:00,
2013-02-25 23:57:00,37.4,36.6,28.38,WSW,248,0.0,4.0,97,0.00,,---,0.39,VWS V14.01,2013-02-26 04:57:00,
2013-02-25 23:58:00,32.5,23.5,28.88,East,100,9.6,12.5,69,0.00,,---,0.00,VWS V14.01,2013-02-26 04:58:00,
2013-02-25 23:59:00,37.4,36.6,28.38,WSW,248,2.7,2.7,97,0.00,,---,0.39,VWS V14.01,2013-02-26 04:59:00,